<?xml version="1.0" encoding="UTF-8" standalone="no" ?>
<gpx xmlns="http://www.topografix.com/GPX/1/1" xmlns:xsi="http://www.w3.org/2001/XMLSchema-instance" xsi:schemaLocation="http://www.topografix.com/GPX/1/1 http://www.topografix.com/GPX/1/1/gpx.xsd" version="1.1" creator="VisuGPX - https://www.visugpx.com">
  <metadata>
    <name>Gd Replomb</name>
    <desc><![CDATA[
]]></desc>
  </metadata>
  <trk>
    <name><![CDATA[Gd Replomb_1]]></name>
    <extensions>
      <line xmlns="http://www.topografix.com/GPX/gpx_style/0/2">
        <color>0000FF</color>
        <width>4</width>
      </line>
    </extensions>
    <trkseg>
      <trkpt lat="45.2265" lon="5.99413">
        <ele>1294.4439697266</ele>
        <time>2017-05-13T03:39:32Z</time>
      </trkpt>
      <trkpt lat="45.22646" lon="5.99408">
        <ele>1293.4439697266</ele>
        <time>2017-05-13T03:39:37Z</time>
      </trkpt>
      <trkpt lat="45.2264" lon="5.99407">
        <ele>1290.4439697266</ele>
        <time>2017-05-13T03:39:42Z</time>
      </trkpt>
      <trkpt lat="45.22635" lon="5.99406">
        <ele>1288.4439697266</ele>
        <time>2017-05-13T03:39:47Z</time>
      </trkpt>
      <trkpt lat="45.22631" lon="5.99404">
        <ele>1290.4439697266</ele>
        <time>2017-05-13T03:39:50Z</time>
      </trkpt>
      <trkpt lat="45.22626" lon="5.99404">
        <ele>1288.4439697266</ele>
        <time>2017-05-13T03:39:54Z</time>
      </trkpt>
      <trkpt lat="45.22621" lon="5.99403">
        <ele>1282.4439697266</ele>
        <time>2017-05-13T03:39:59Z</time>
      </trkpt>
      <trkpt lat="45.22615" lon="5.99399">
        <ele>1281.4439697266</ele>
        <time>2017-05-13T03:40:03Z</time>
      </trkpt>
      <trkpt lat="45.2261" lon="5.99398">
        <ele>1281.4439697266</ele>
        <time>2017-05-13T03:40:06Z</time>
      </trkpt>
      <trkpt lat="45.22605" lon="5.99401">
        <ele>1275.4439697266</ele>
        <time>2017-05-13T03:40:10Z</time>
      </trkpt>
      <trkpt lat="45.22601" lon="5.99402">
        <ele>1275.4439697266</ele>
        <time>2017-05-13T03:40:14Z</time>
      </trkpt>
      <trkpt lat="45.22596" lon="5.99402">
        <ele>1273.4439697266</ele>
        <time>2017-05-13T03:40:18Z</time>
      </trkpt>
      <trkpt lat="45.22591" lon="5.99403">
        <ele>1272.4439697266</ele>
        <time>2017-05-13T03:40:21Z</time>
      </trkpt>
      <trkpt lat="45.22587" lon="5.99399">
        <ele>1274.4439697266</ele>
        <time>2017-05-13T03:40:24Z</time>
      </trkpt>
      <trkpt lat="45.22583" lon="5.99396">
        <ele>1275.4439697266</ele>
        <time>2017-05-13T03:40:28Z</time>
      </trkpt>
      <trkpt lat="45.22577" lon="5.99393">
        <ele>1276.4439697266</ele>
        <time>2017-05-13T03:40:31Z</time>
      </trkpt>
      <trkpt lat="45.22572" lon="5.99392">
        <ele>1279.4439697266</ele>
        <time>2017-05-13T03:40:34Z</time>
      </trkpt>
      <trkpt lat="45.22567" lon="5.99391">
        <ele>1281.4439697266</ele>
        <time>2017-05-13T03:40:38Z</time>
      </trkpt>
      <trkpt lat="45.22562" lon="5.99391">
        <ele>1281.4439697266</ele>
        <time>2017-05-13T03:40:42Z</time>
      </trkpt>
      <trkpt lat="45.22557" lon="5.99389">
        <ele>1283.4439697266</ele>
        <time>2017-05-13T03:40:45Z</time>
      </trkpt>
      <trkpt lat="45.22552" lon="5.99389">
        <ele>1286.4439697266</ele>
        <time>2017-05-13T03:40:49Z</time>
      </trkpt>
      <trkpt lat="45.22546" lon="5.99389">
        <ele>1287.4439697266</ele>
        <time>2017-05-13T03:40:54Z</time>
      </trkpt>
      <trkpt lat="45.22541" lon="5.99392">
        <ele>1286.4439697266</ele>
        <time>2017-05-13T03:40:59Z</time>
      </trkpt>
      <trkpt lat="45.22536" lon="5.99395">
        <ele>1291.4439697266</ele>
        <time>2017-05-13T03:41:04Z</time>
      </trkpt>
      <trkpt lat="45.2253" lon="5.99395">
        <ele>1297.4439697266</ele>
        <time>2017-05-13T03:41:11Z</time>
      </trkpt>
      <trkpt lat="45.22526" lon="5.99401">
        <ele>1293.4439697266</ele>
        <time>2017-05-13T03:41:14Z</time>
      </trkpt>
      <trkpt lat="45.22522" lon="5.99405">
        <ele>1295.4439697266</ele>
        <time>2017-05-13T03:41:22Z</time>
      </trkpt>
      <trkpt lat="45.22519" lon="5.99409">
        <ele>1294.4439697266</ele>
        <time>2017-05-13T03:41:25Z</time>
      </trkpt>
      <trkpt lat="45.22518" lon="5.99415">
        <ele>1293.4439697266</ele>
        <time>2017-05-13T03:41:30Z</time>
      </trkpt>
      <trkpt lat="45.22515" lon="5.99422">
        <ele>1296.4439697266</ele>
        <time>2017-05-13T03:41:34Z</time>
      </trkpt>
      <trkpt lat="45.22514" lon="5.9943">
        <ele>1296.4439697266</ele>
        <time>2017-05-13T03:41:39Z</time>
      </trkpt>
      <trkpt lat="45.22517" lon="5.99436">
        <ele>1298.4439697266</ele>
        <time>2017-05-13T03:41:45Z</time>
      </trkpt>
      <trkpt lat="45.22517" lon="5.99444">
        <ele>1296.4439697266</ele>
        <time>2017-05-13T03:41:49Z</time>
      </trkpt>
      <trkpt lat="45.22517" lon="5.99451">
        <ele>1298.4439697266</ele>
        <time>2017-05-13T03:41:53Z</time>
      </trkpt>
      <trkpt lat="45.22516" lon="5.99459">
        <ele>1299.4439697266</ele>
        <time>2017-05-13T03:41:56Z</time>
      </trkpt>
      <trkpt lat="45.22514" lon="5.99465">
        <ele>1298.4439697266</ele>
        <time>2017-05-13T03:42:01Z</time>
      </trkpt>
      <trkpt lat="45.22511" lon="5.99471">
        <ele>1299.4439697266</ele>
        <time>2017-05-13T03:42:06Z</time>
      </trkpt>
      <trkpt lat="45.22508" lon="5.99477">
        <ele>1300.4439697266</ele>
        <time>2017-05-13T03:42:09Z</time>
      </trkpt>
      <trkpt lat="45.22503" lon="5.99483">
        <ele>1302.4439697266</ele>
        <time>2017-05-13T03:42:12Z</time>
      </trkpt>
      <trkpt lat="45.225" lon="5.9949">
        <ele>1303.4439697266</ele>
        <time>2017-05-13T03:42:15Z</time>
      </trkpt>
      <trkpt lat="45.22499" lon="5.99498">
        <ele>1298.4439697266</ele>
        <time>2017-05-13T03:42:18Z</time>
      </trkpt>
      <trkpt lat="45.22496" lon="5.99506">
        <ele>1296.4439697266</ele>
        <time>2017-05-13T03:42:22Z</time>
      </trkpt>
      <trkpt lat="45.22495" lon="5.99513">
        <ele>1296.4439697266</ele>
        <time>2017-05-13T03:42:25Z</time>
      </trkpt>
      <trkpt lat="45.22492" lon="5.99519">
        <ele>1294.4439697266</ele>
        <time>2017-05-13T03:42:27Z</time>
      </trkpt>
      <trkpt lat="45.22491" lon="5.99526">
        <ele>1297.4439697266</ele>
        <time>2017-05-13T03:42:30Z</time>
      </trkpt>
      <trkpt lat="45.22489" lon="5.99534">
        <ele>1296.4439697266</ele>
        <time>2017-05-13T03:42:33Z</time>
      </trkpt>
      <trkpt lat="45.22487" lon="5.99541">
        <ele>1296.4439697266</ele>
        <time>2017-05-13T03:42:36Z</time>
      </trkpt>
      <trkpt lat="45.22487" lon="5.99549">
        <ele>1293.4439697266</ele>
        <time>2017-05-13T03:42:40Z</time>
      </trkpt>
      <trkpt lat="45.22483" lon="5.99556">
        <ele>1292.4439697266</ele>
        <time>2017-05-13T03:42:44Z</time>
      </trkpt>
      <trkpt lat="45.2248" lon="5.99562">
        <ele>1292.4439697266</ele>
        <time>2017-05-13T03:42:46Z</time>
      </trkpt>
      <trkpt lat="45.22476" lon="5.99566">
        <ele>1295.4439697266</ele>
        <time>2017-05-13T03:42:50Z</time>
      </trkpt>
      <trkpt lat="45.22473" lon="5.99574">
        <ele>1296.4439697266</ele>
        <time>2017-05-13T03:42:54Z</time>
      </trkpt>
      <trkpt lat="45.2247" lon="5.99579">
        <ele>1299.4439697266</ele>
        <time>2017-05-13T03:42:58Z</time>
      </trkpt>
      <trkpt lat="45.22467" lon="5.99585">
        <ele>1297.4439697266</ele>
        <time>2017-05-13T03:43:02Z</time>
      </trkpt>
      <trkpt lat="45.22463" lon="5.99591">
        <ele>1298.4439697266</ele>
        <time>2017-05-13T03:43:06Z</time>
      </trkpt>
      <trkpt lat="45.2246" lon="5.99597">
        <ele>1298.4439697266</ele>
        <time>2017-05-13T03:43:09Z</time>
      </trkpt>
      <trkpt lat="45.22457" lon="5.99605">
        <ele>1298.4439697266</ele>
        <time>2017-05-13T03:43:12Z</time>
      </trkpt>
      <trkpt lat="45.22454" lon="5.99611">
        <ele>1298.4439697266</ele>
        <time>2017-05-13T03:43:15Z</time>
      </trkpt>
      <trkpt lat="45.22452" lon="5.99617">
        <ele>1297.4439697266</ele>
        <time>2017-05-13T03:43:18Z</time>
      </trkpt>
      <trkpt lat="45.22448" lon="5.99621">
        <ele>1297.4439697266</ele>
        <time>2017-05-13T03:43:21Z</time>
      </trkpt>
      <trkpt lat="45.22444" lon="5.99627">
        <ele>1299.4439697266</ele>
        <time>2017-05-13T03:43:24Z</time>
      </trkpt>
      <trkpt lat="45.2244" lon="5.99632">
        <ele>1300.4439697266</ele>
        <time>2017-05-13T03:43:28Z</time>
      </trkpt>
      <trkpt lat="45.22436" lon="5.99638">
        <ele>1299.4439697266</ele>
        <time>2017-05-13T03:43:32Z</time>
      </trkpt>
      <trkpt lat="45.22433" lon="5.99644">
        <ele>1304.4439697266</ele>
        <time>2017-05-13T03:43:36Z</time>
      </trkpt>
      <trkpt lat="45.22429" lon="5.99649">
        <ele>1307.4439697266</ele>
        <time>2017-05-13T03:43:40Z</time>
      </trkpt>
      <trkpt lat="45.22424" lon="5.99653">
        <ele>1305.4439697266</ele>
        <time>2017-05-13T03:43:44Z</time>
      </trkpt>
      <trkpt lat="45.22419" lon="5.99655">
        <ele>1302.4439697266</ele>
        <time>2017-05-13T03:43:47Z</time>
      </trkpt>
      <trkpt lat="45.22414" lon="5.99656">
        <ele>1299.4439697266</ele>
        <time>2017-05-13T03:43:50Z</time>
      </trkpt>
      <trkpt lat="45.2241" lon="5.99658">
        <ele>1297.4439697266</ele>
        <time>2017-05-13T03:43:53Z</time>
      </trkpt>
      <trkpt lat="45.22404" lon="5.9966">
        <ele>1296.4439697266</ele>
        <time>2017-05-13T03:43:59Z</time>
      </trkpt>
      <trkpt lat="45.22398" lon="5.9966">
        <ele>1297.4439697266</ele>
        <time>2017-05-13T03:44:03Z</time>
      </trkpt>
      <trkpt lat="45.22392" lon="5.99656">
        <ele>1296.4439697266</ele>
        <time>2017-05-13T03:44:08Z</time>
      </trkpt>
      <trkpt lat="45.22388" lon="5.99653">
        <ele>1297.4439697266</ele>
        <time>2017-05-13T03:44:12Z</time>
      </trkpt>
      <trkpt lat="45.22384" lon="5.99648">
        <ele>1297.4439697266</ele>
        <time>2017-05-13T03:44:16Z</time>
      </trkpt>
      <trkpt lat="45.22381" lon="5.99644">
        <ele>1298.4439697266</ele>
        <time>2017-05-13T03:44:18Z</time>
      </trkpt>
      <trkpt lat="45.22375" lon="5.99639">
        <ele>1301.4439697266</ele>
        <time>2017-05-13T03:44:21Z</time>
      </trkpt>
      <trkpt lat="45.2237" lon="5.99634">
        <ele>1303.4439697266</ele>
        <time>2017-05-13T03:44:24Z</time>
      </trkpt>
      <trkpt lat="45.22366" lon="5.99629">
        <ele>1304.4439697266</ele>
        <time>2017-05-13T03:44:27Z</time>
      </trkpt>
      <trkpt lat="45.22362" lon="5.99626">
        <ele>1304.4439697266</ele>
        <time>2017-05-13T03:44:30Z</time>
      </trkpt>
      <trkpt lat="45.22357" lon="5.99621">
        <ele>1306.4439697266</ele>
        <time>2017-05-13T03:44:34Z</time>
      </trkpt>
      <trkpt lat="45.22354" lon="5.99617">
        <ele>1305.4439697266</ele>
        <time>2017-05-13T03:44:37Z</time>
      </trkpt>
      <trkpt lat="45.22349" lon="5.99614">
        <ele>1304.4439697266</ele>
        <time>2017-05-13T03:44:40Z</time>
      </trkpt>
      <trkpt lat="45.22345" lon="5.9961">
        <ele>1303.4439697266</ele>
        <time>2017-05-13T03:44:43Z</time>
      </trkpt>
      <trkpt lat="45.22341" lon="5.99606">
        <ele>1307.4439697266</ele>
        <time>2017-05-13T03:44:46Z</time>
      </trkpt>
      <trkpt lat="45.22337" lon="5.99604">
        <ele>1308.4439697266</ele>
        <time>2017-05-13T03:44:49Z</time>
      </trkpt>
      <trkpt lat="45.22335" lon="5.99598">
        <ele>1309.4439697266</ele>
        <time>2017-05-13T03:44:54Z</time>
      </trkpt>
      <trkpt lat="45.2233" lon="5.99597">
        <ele>1310.4439697266</ele>
        <time>2017-05-13T03:44:59Z</time>
      </trkpt>
      <trkpt lat="45.22327" lon="5.99592">
        <ele>1312.4439697266</ele>
        <time>2017-05-13T03:45:05Z</time>
      </trkpt>
      <trkpt lat="45.22325" lon="5.99586">
        <ele>1315.4439697266</ele>
        <time>2017-05-13T03:45:10Z</time>
      </trkpt>
      <trkpt lat="45.22321" lon="5.99582">
        <ele>1313.4439697266</ele>
        <time>2017-05-13T03:45:13Z</time>
      </trkpt>
      <trkpt lat="45.22316" lon="5.99582">
        <ele>1307.4439697266</ele>
        <time>2017-05-13T03:45:18Z</time>
      </trkpt>
      <trkpt lat="45.22311" lon="5.9958">
        <ele>1307.4439697266</ele>
        <time>2017-05-13T03:45:22Z</time>
      </trkpt>
      <trkpt lat="45.22307" lon="5.9958">
        <ele>1309.4439697266</ele>
        <time>2017-05-13T03:45:27Z</time>
      </trkpt>
      <trkpt lat="45.22301" lon="5.99579">
        <ele>1306.4439697266</ele>
        <time>2017-05-13T03:45:33Z</time>
      </trkpt>
      <trkpt lat="45.22296" lon="5.99577">
        <ele>1307.4439697266</ele>
        <time>2017-05-13T03:45:37Z</time>
      </trkpt>
      <trkpt lat="45.22291" lon="5.99579">
        <ele>1311.4439697266</ele>
        <time>2017-05-13T03:45:46Z</time>
      </trkpt>
      <trkpt lat="45.22286" lon="5.99582">
        <ele>1309.4439697266</ele>
        <time>2017-05-13T03:45:51Z</time>
      </trkpt>
      <trkpt lat="45.22282" lon="5.99585">
        <ele>1312.4439697266</ele>
        <time>2017-05-13T03:46:00Z</time>
      </trkpt>
      <trkpt lat="45.22279" lon="5.9959">
        <ele>1311.4439697266</ele>
        <time>2017-05-13T03:46:06Z</time>
      </trkpt>
      <trkpt lat="45.22275" lon="5.99595">
        <ele>1312.4439697266</ele>
        <time>2017-05-13T03:46:12Z</time>
      </trkpt>
      <trkpt lat="45.22271" lon="5.99602">
        <ele>1314.4439697266</ele>
        <time>2017-05-13T03:46:41Z</time>
      </trkpt>
      <trkpt lat="45.22268" lon="5.99608">
        <ele>1318.4439697266</ele>
        <time>2017-05-13T03:46:50Z</time>
      </trkpt>
      <trkpt lat="45.22267" lon="5.99614">
        <ele>1319.4439697266</ele>
        <time>2017-05-13T03:46:53Z</time>
      </trkpt>
      <trkpt lat="45.22264" lon="5.99619">
        <ele>1320.4439697266</ele>
        <time>2017-05-13T03:46:56Z</time>
      </trkpt>
      <trkpt lat="45.22262" lon="5.99625">
        <ele>1320.4439697266</ele>
        <time>2017-05-13T03:47:02Z</time>
      </trkpt>
      <trkpt lat="45.22259" lon="5.99635">
        <ele>1324.4439697266</ele>
        <time>2017-05-13T03:47:09Z</time>
      </trkpt>
      <trkpt lat="45.22255" lon="5.99638">
        <ele>1323.4439697266</ele>
        <time>2017-05-13T03:47:13Z</time>
      </trkpt>
      <trkpt lat="45.2225" lon="5.99643">
        <ele>1329.4439697266</ele>
        <time>2017-05-13T03:47:21Z</time>
      </trkpt>
      <trkpt lat="45.22245" lon="5.99646">
        <ele>1328.4439697266</ele>
        <time>2017-05-13T03:47:27Z</time>
      </trkpt>
      <trkpt lat="45.22234" lon="5.99646">
        <ele>1332.4439697266</ele>
        <time>2017-05-13T03:47:38Z</time>
      </trkpt>
      <trkpt lat="45.2223" lon="5.99647">
        <ele>1333.4439697266</ele>
        <time>2017-05-13T03:47:45Z</time>
      </trkpt>
      <trkpt lat="45.22225" lon="5.99645">
        <ele>1336.4439697266</ele>
        <time>2017-05-13T03:47:53Z</time>
      </trkpt>
      <trkpt lat="45.2222" lon="5.99643">
        <ele>1332.4439697266</ele>
        <time>2017-05-13T03:48:00Z</time>
      </trkpt>
      <trkpt lat="45.22216" lon="5.99644">
        <ele>1332.4439697266</ele>
        <time>2017-05-13T03:48:12Z</time>
      </trkpt>
      <trkpt lat="45.22212" lon="5.9964">
        <ele>1336.4439697266</ele>
        <time>2017-05-13T03:48:18Z</time>
      </trkpt>
      <trkpt lat="45.22207" lon="5.99638">
        <ele>1334.4439697266</ele>
        <time>2017-05-13T03:48:27Z</time>
      </trkpt>
      <trkpt lat="45.22201" lon="5.99639">
        <ele>1331.4439697266</ele>
        <time>2017-05-13T03:48:43Z</time>
      </trkpt>
      <trkpt lat="45.22197" lon="5.99635">
        <ele>1335.4439697266</ele>
        <time>2017-05-13T03:48:50Z</time>
      </trkpt>
      <trkpt lat="45.22191" lon="5.99632">
        <ele>1337.4439697266</ele>
        <time>2017-05-13T03:49:03Z</time>
      </trkpt>
      <trkpt lat="45.22189" lon="5.9964">
        <ele>1336.4439697266</ele>
        <time>2017-05-13T03:49:11Z</time>
      </trkpt>
      <trkpt lat="45.22186" lon="5.99636">
        <ele>1341.4439697266</ele>
        <time>2017-05-13T03:49:15Z</time>
      </trkpt>
      <trkpt lat="45.22181" lon="5.99638">
        <ele>1348.4439697266</ele>
        <time>2017-05-13T03:49:21Z</time>
      </trkpt>
      <trkpt lat="45.22176" lon="5.99639">
        <ele>1350.4439697266</ele>
        <time>2017-05-13T03:49:28Z</time>
      </trkpt>
      <trkpt lat="45.22173" lon="5.99644">
        <ele>1348.4439697266</ele>
        <time>2017-05-13T03:49:34Z</time>
      </trkpt>
      <trkpt lat="45.2217" lon="5.99649">
        <ele>1350.4439697266</ele>
        <time>2017-05-13T03:49:49Z</time>
      </trkpt>
      <trkpt lat="45.22166" lon="5.99651">
        <ele>1352.4439697266</ele>
        <time>2017-05-13T03:50:00Z</time>
      </trkpt>
      <trkpt lat="45.2216" lon="5.99654">
        <ele>1351.4439697266</ele>
        <time>2017-05-13T03:50:09Z</time>
      </trkpt>
      <trkpt lat="45.22156" lon="5.99656">
        <ele>1349.4439697266</ele>
        <time>2017-05-13T03:50:16Z</time>
      </trkpt>
      <trkpt lat="45.22151" lon="5.99657">
        <ele>1351.4439697266</ele>
        <time>2017-05-13T03:50:23Z</time>
      </trkpt>
      <trkpt lat="45.22146" lon="5.99658">
        <ele>1352.4439697266</ele>
        <time>2017-05-13T03:50:28Z</time>
      </trkpt>
      <trkpt lat="45.22142" lon="5.99656">
        <ele>1353.4439697266</ele>
        <time>2017-05-13T03:50:36Z</time>
      </trkpt>
      <trkpt lat="45.22137" lon="5.99655">
        <ele>1351.4439697266</ele>
        <time>2017-05-13T03:50:43Z</time>
      </trkpt>
      <trkpt lat="45.22132" lon="5.99655">
        <ele>1351.4439697266</ele>
        <time>2017-05-13T03:50:47Z</time>
      </trkpt>
      <trkpt lat="45.22127" lon="5.99653">
        <ele>1353.4439697266</ele>
        <time>2017-05-13T03:50:51Z</time>
      </trkpt>
      <trkpt lat="45.22123" lon="5.99653">
        <ele>1354.4439697266</ele>
        <time>2017-05-13T03:50:56Z</time>
      </trkpt>
      <trkpt lat="45.22118" lon="5.99654">
        <ele>1356.4439697266</ele>
        <time>2017-05-13T03:51:01Z</time>
      </trkpt>
      <trkpt lat="45.22113" lon="5.99652">
        <ele>1185.4439697266</ele>
        <time>2017-05-13T03:51:06Z</time>
      </trkpt>
      <trkpt lat="45.22108" lon="5.99648">
        <ele>1302.4439697266</ele>
        <time>2017-05-13T03:51:11Z</time>
      </trkpt>
      <trkpt lat="45.22106" lon="5.99642">
        <ele>1326.4439697266</ele>
        <time>2017-05-13T03:51:15Z</time>
      </trkpt>
      <trkpt lat="45.22102" lon="5.99638">
        <ele>1341.4439697266</ele>
        <time>2017-05-13T03:51:20Z</time>
      </trkpt>
      <trkpt lat="45.22099" lon="5.99632">
        <ele>1345.4439697266</ele>
        <time>2017-05-13T03:51:24Z</time>
      </trkpt>
      <trkpt lat="45.22096" lon="5.99627">
        <ele>1343.4439697266</ele>
        <time>2017-05-13T03:51:28Z</time>
      </trkpt>
      <trkpt lat="45.22097" lon="5.99619">
        <ele>1352.4439697266</ele>
        <time>2017-05-13T03:51:32Z</time>
      </trkpt>
      <trkpt lat="45.22094" lon="5.99613">
        <ele>1353.4439697266</ele>
        <time>2017-05-13T03:51:36Z</time>
      </trkpt>
      <trkpt lat="45.22091" lon="5.99607">
        <ele>1357.4439697266</ele>
        <time>2017-05-13T03:51:39Z</time>
      </trkpt>
      <trkpt lat="45.22088" lon="5.996">
        <ele>1361.4439697266</ele>
        <time>2017-05-13T03:51:44Z</time>
      </trkpt>
      <trkpt lat="45.22083" lon="5.99595">
        <ele>1363.4439697266</ele>
        <time>2017-05-13T03:51:48Z</time>
      </trkpt>
      <trkpt lat="45.22079" lon="5.99592">
        <ele>1356.4439697266</ele>
        <time>2017-05-13T03:51:51Z</time>
      </trkpt>
      <trkpt lat="45.22074" lon="5.99587">
        <ele>1349.4439697266</ele>
        <time>2017-05-13T03:51:54Z</time>
      </trkpt>
      <trkpt lat="45.2207" lon="5.99585">
        <ele>1351.4439697266</ele>
        <time>2017-05-13T03:51:58Z</time>
      </trkpt>
      <trkpt lat="45.22065" lon="5.99583">
        <ele>1353.4439697266</ele>
        <time>2017-05-13T03:52:02Z</time>
      </trkpt>
      <trkpt lat="45.2206" lon="5.99584">
        <ele>1359.4439697266</ele>
        <time>2017-05-13T03:52:08Z</time>
      </trkpt>
      <trkpt lat="45.22056" lon="5.99585">
        <ele>1364.4439697266</ele>
        <time>2017-05-13T03:52:12Z</time>
      </trkpt>
      <trkpt lat="45.22051" lon="5.99585">
        <ele>1363.4439697266</ele>
        <time>2017-05-13T03:52:15Z</time>
      </trkpt>
      <trkpt lat="45.22046" lon="5.99581">
        <ele>1365.4439697266</ele>
        <time>2017-05-13T03:52:19Z</time>
      </trkpt>
      <trkpt lat="45.22042" lon="5.99576">
        <ele>1369.4429931641</ele>
        <time>2017-05-13T03:52:25Z</time>
      </trkpt>
      <trkpt lat="45.22037" lon="5.99572">
        <ele>1372.4429931641</ele>
        <time>2017-05-13T03:52:29Z</time>
      </trkpt>
      <trkpt lat="45.22032" lon="5.99575">
        <ele>1372.4429931641</ele>
        <time>2017-05-13T03:54:19Z</time>
      </trkpt>
      <trkpt lat="45.22027" lon="5.99573">
        <ele>1374.4429931641</ele>
        <time>2017-05-13T03:54:23Z</time>
      </trkpt>
      <trkpt lat="45.22023" lon="5.99573">
        <ele>1376.4429931641</ele>
        <time>2017-05-13T03:54:28Z</time>
      </trkpt>
      <trkpt lat="45.22018" lon="5.99573">
        <ele>1375.4429931641</ele>
        <time>2017-05-13T03:54:33Z</time>
      </trkpt>
      <trkpt lat="45.22013" lon="5.99573">
        <ele>1376.4429931641</ele>
        <time>2017-05-13T03:54:38Z</time>
      </trkpt>
      <trkpt lat="45.22008" lon="5.99571">
        <ele>1377.4429931641</ele>
        <time>2017-05-13T03:54:42Z</time>
      </trkpt>
      <trkpt lat="45.22004" lon="5.99568">
        <ele>1378.4429931641</ele>
        <time>2017-05-13T03:55:29Z</time>
      </trkpt>
      <trkpt lat="45.21998" lon="5.99566">
        <ele>1381.4429931641</ele>
        <time>2017-05-13T03:55:34Z</time>
      </trkpt>
      <trkpt lat="45.21994" lon="5.99562">
        <ele>1379.4429931641</ele>
        <time>2017-05-13T03:55:40Z</time>
      </trkpt>
      <trkpt lat="45.21988" lon="5.99559">
        <ele>1380.4429931641</ele>
        <time>2017-05-13T03:55:45Z</time>
      </trkpt>
      <trkpt lat="45.21983" lon="5.99558">
        <ele>1379.4429931641</ele>
        <time>2017-05-13T03:55:49Z</time>
      </trkpt>
      <trkpt lat="45.21978" lon="5.99555">
        <ele>1379.4429931641</ele>
        <time>2017-05-13T03:55:54Z</time>
      </trkpt>
      <trkpt lat="45.21974" lon="5.99551">
        <ele>1377.4429931641</ele>
        <time>2017-05-13T03:55:59Z</time>
      </trkpt>
      <trkpt lat="45.2197" lon="5.99548">
        <ele>1379.4429931641</ele>
        <time>2017-05-13T03:56:03Z</time>
      </trkpt>
      <trkpt lat="45.21966" lon="5.99543">
        <ele>1379.4429931641</ele>
        <time>2017-05-13T03:56:07Z</time>
      </trkpt>
      <trkpt lat="45.21962" lon="5.99539">
        <ele>1378.4429931641</ele>
        <time>2017-05-13T03:56:11Z</time>
      </trkpt>
      <trkpt lat="45.21958" lon="5.99534">
        <ele>1378.4429931641</ele>
        <time>2017-05-13T03:56:15Z</time>
      </trkpt>
      <trkpt lat="45.21954" lon="5.99529">
        <ele>1378.4429931641</ele>
        <time>2017-05-13T03:56:18Z</time>
      </trkpt>
      <trkpt lat="45.21951" lon="5.99522">
        <ele>1377.4429931641</ele>
        <time>2017-05-13T03:56:22Z</time>
      </trkpt>
      <trkpt lat="45.21947" lon="5.99516">
        <ele>1378.4429931641</ele>
        <time>2017-05-13T03:56:26Z</time>
      </trkpt>
      <trkpt lat="45.21943" lon="5.99512">
        <ele>1378.4429931641</ele>
        <time>2017-05-13T03:56:29Z</time>
      </trkpt>
      <trkpt lat="45.2194" lon="5.99507">
        <ele>1379.4429931641</ele>
        <time>2017-05-13T03:56:32Z</time>
      </trkpt>
      <trkpt lat="45.21935" lon="5.99503">
        <ele>1378.4429931641</ele>
        <time>2017-05-13T03:56:36Z</time>
      </trkpt>
      <trkpt lat="45.21931" lon="5.99498">
        <ele>1377.4429931641</ele>
        <time>2017-05-13T03:56:40Z</time>
      </trkpt>
      <trkpt lat="45.21926" lon="5.99493">
        <ele>1376.4429931641</ele>
        <time>2017-05-13T03:56:44Z</time>
      </trkpt>
      <trkpt lat="45.21921" lon="5.99488">
        <ele>1376.4429931641</ele>
        <time>2017-05-13T03:56:48Z</time>
      </trkpt>
      <trkpt lat="45.21917" lon="5.99485">
        <ele>1375.4429931641</ele>
        <time>2017-05-13T03:56:51Z</time>
      </trkpt>
      <trkpt lat="45.21914" lon="5.9948">
        <ele>1376.4429931641</ele>
        <time>2017-05-13T03:56:54Z</time>
      </trkpt>
      <trkpt lat="45.21911" lon="5.99475">
        <ele>1376.4429931641</ele>
        <time>2017-05-13T03:56:57Z</time>
      </trkpt>
      <trkpt lat="45.21907" lon="5.99469">
        <ele>1377.4429931641</ele>
        <time>2017-05-13T03:57:00Z</time>
      </trkpt>
      <trkpt lat="45.21903" lon="5.99464">
        <ele>1374.4429931641</ele>
        <time>2017-05-13T03:57:04Z</time>
      </trkpt>
      <trkpt lat="45.21899" lon="5.99458">
        <ele>1374.4429931641</ele>
        <time>2017-05-13T03:57:08Z</time>
      </trkpt>
      <trkpt lat="45.21897" lon="5.99451">
        <ele>1376.4429931641</ele>
        <time>2017-05-13T03:57:11Z</time>
      </trkpt>
      <trkpt lat="45.21896" lon="5.99443">
        <ele>1379.4429931641</ele>
        <time>2017-05-13T03:57:16Z</time>
      </trkpt>
      <trkpt lat="45.21894" lon="5.99436">
        <ele>1381.4429931641</ele>
        <time>2017-05-13T03:57:21Z</time>
      </trkpt>
      <trkpt lat="45.21892" lon="5.99429">
        <ele>1382.4429931641</ele>
        <time>2017-05-13T03:57:24Z</time>
      </trkpt>
      <trkpt lat="45.2189" lon="5.99423">
        <ele>1382.4429931641</ele>
        <time>2017-05-13T03:57:27Z</time>
      </trkpt>
      <trkpt lat="45.21888" lon="5.99414">
        <ele>1386.4429931641</ele>
        <time>2017-05-13T03:57:32Z</time>
      </trkpt>
      <trkpt lat="45.21886" lon="5.99407">
        <ele>1383.4429931641</ele>
        <time>2017-05-13T03:57:37Z</time>
      </trkpt>
      <trkpt lat="45.21885" lon="5.99399">
        <ele>1385.4429931641</ele>
        <time>2017-05-13T03:57:41Z</time>
      </trkpt>
      <trkpt lat="45.21881" lon="5.99393">
        <ele>1388.4429931641</ele>
        <time>2017-05-13T03:57:44Z</time>
      </trkpt>
      <trkpt lat="45.21878" lon="5.99387">
        <ele>1390.4429931641</ele>
        <time>2017-05-13T03:57:49Z</time>
      </trkpt>
      <trkpt lat="45.21875" lon="5.99382">
        <ele>1393.4429931641</ele>
        <time>2017-05-13T03:57:53Z</time>
      </trkpt>
      <trkpt lat="45.2187" lon="5.99378">
        <ele>1393.4429931641</ele>
        <time>2017-05-13T03:57:57Z</time>
      </trkpt>
      <trkpt lat="45.21866" lon="5.99377">
        <ele>1394.4429931641</ele>
        <time>2017-05-13T03:58:00Z</time>
      </trkpt>
      <trkpt lat="45.21863" lon="5.9937">
        <ele>1393.4429931641</ele>
        <time>2017-05-13T03:58:06Z</time>
      </trkpt>
      <trkpt lat="45.21863" lon="5.99362">
        <ele>1393.4429931641</ele>
        <time>2017-05-13T03:58:12Z</time>
      </trkpt>
      <trkpt lat="45.21862" lon="5.99354">
        <ele>1394.4429931641</ele>
        <time>2017-05-13T03:58:16Z</time>
      </trkpt>
      <trkpt lat="45.21863" lon="5.99346">
        <ele>1395.4429931641</ele>
        <time>2017-05-13T03:58:21Z</time>
      </trkpt>
      <trkpt lat="45.21861" lon="5.99339">
        <ele>1396.4429931641</ele>
        <time>2017-05-13T03:58:25Z</time>
      </trkpt>
      <trkpt lat="45.2186" lon="5.99333">
        <ele>1397.4429931641</ele>
        <time>2017-05-13T03:58:28Z</time>
      </trkpt>
      <trkpt lat="45.21859" lon="5.99325">
        <ele>1397.4429931641</ele>
        <time>2017-05-13T03:58:32Z</time>
      </trkpt>
      <trkpt lat="45.21858" lon="5.99318">
        <ele>1400.4429931641</ele>
        <time>2017-05-13T03:58:35Z</time>
      </trkpt>
      <trkpt lat="45.21856" lon="5.99312">
        <ele>1400.4429931641</ele>
        <time>2017-05-13T03:58:38Z</time>
      </trkpt>
      <trkpt lat="45.21853" lon="5.99306">
        <ele>1399.4429931641</ele>
        <time>2017-05-13T03:58:41Z</time>
      </trkpt>
      <trkpt lat="45.2185" lon="5.99299">
        <ele>1402.4429931641</ele>
        <time>2017-05-13T03:58:44Z</time>
      </trkpt>
      <trkpt lat="45.21849" lon="5.99293">
        <ele>1402.4429931641</ele>
        <time>2017-05-13T03:58:47Z</time>
      </trkpt>
      <trkpt lat="45.21848" lon="5.99286">
        <ele>1400.4429931641</ele>
        <time>2017-05-13T03:58:51Z</time>
      </trkpt>
      <trkpt lat="45.21843" lon="5.99282">
        <ele>1401.4429931641</ele>
        <time>2017-05-13T03:58:53Z</time>
      </trkpt>
      <trkpt lat="45.21842" lon="5.99275">
        <ele>1403.4429931641</ele>
        <time>2017-05-13T03:58:55Z</time>
      </trkpt>
      <trkpt lat="45.21839" lon="5.99269">
        <ele>1404.4429931641</ele>
        <time>2017-05-13T03:58:57Z</time>
      </trkpt>
      <trkpt lat="45.21836" lon="5.99263">
        <ele>1404.4429931641</ele>
        <time>2017-05-13T03:59:00Z</time>
      </trkpt>
      <trkpt lat="45.21834" lon="5.99256">
        <ele>1401.4429931641</ele>
        <time>2017-05-13T03:59:04Z</time>
      </trkpt>
      <trkpt lat="45.21832" lon="5.9925">
        <ele>1399.4429931641</ele>
        <time>2017-05-13T03:59:09Z</time>
      </trkpt>
      <trkpt lat="45.2183" lon="5.99244">
        <ele>1401.4429931641</ele>
        <time>2017-05-13T03:59:14Z</time>
      </trkpt>
      <trkpt lat="45.21826" lon="5.99239">
        <ele>1401.4429931641</ele>
        <time>2017-05-13T03:59:19Z</time>
      </trkpt>
      <trkpt lat="45.21823" lon="5.99234">
        <ele>1402.4429931641</ele>
        <time>2017-05-13T03:59:22Z</time>
      </trkpt>
      <trkpt lat="45.2182" lon="5.99229">
        <ele>1403.4429931641</ele>
        <time>2017-05-13T03:59:26Z</time>
      </trkpt>
      <trkpt lat="45.21818" lon="5.99221">
        <ele>1403.4429931641</ele>
        <time>2017-05-13T03:59:30Z</time>
      </trkpt>
      <trkpt lat="45.21817" lon="5.99215">
        <ele>1404.4429931641</ele>
        <time>2017-05-13T03:59:33Z</time>
      </trkpt>
      <trkpt lat="45.21815" lon="5.99209">
        <ele>1404.4429931641</ele>
        <time>2017-05-13T03:59:37Z</time>
      </trkpt>
      <trkpt lat="45.21813" lon="5.99202">
        <ele>1403.4429931641</ele>
        <time>2017-05-13T03:59:41Z</time>
      </trkpt>
      <trkpt lat="45.21811" lon="5.99196">
        <ele>1403.4429931641</ele>
        <time>2017-05-13T03:59:44Z</time>
      </trkpt>
      <trkpt lat="45.21811" lon="5.99188">
        <ele>1405.4420166016</ele>
        <time>2017-05-13T03:59:49Z</time>
      </trkpt>
      <trkpt lat="45.21808" lon="5.99181">
        <ele>1407.4420166016</ele>
        <time>2017-05-13T03:59:52Z</time>
      </trkpt>
      <trkpt lat="45.21804" lon="5.99175">
        <ele>1407.4420166016</ele>
        <time>2017-05-13T03:59:55Z</time>
      </trkpt>
      <trkpt lat="45.21803" lon="5.99168">
        <ele>1409.4420166016</ele>
        <time>2017-05-13T03:59:58Z</time>
      </trkpt>
      <trkpt lat="45.21799" lon="5.99163">
        <ele>1409.4420166016</ele>
        <time>2017-05-13T04:00:02Z</time>
      </trkpt>
      <trkpt lat="45.21795" lon="5.99158">
        <ele>1411.4420166016</ele>
        <time>2017-05-13T04:00:06Z</time>
      </trkpt>
      <trkpt lat="45.21791" lon="5.99153">
        <ele>1413.4420166016</ele>
        <time>2017-05-13T04:00:09Z</time>
      </trkpt>
      <trkpt lat="45.21788" lon="5.99148">
        <ele>1412.4420166016</ele>
        <time>2017-05-13T04:00:14Z</time>
      </trkpt>
      <trkpt lat="45.21784" lon="5.99143">
        <ele>1411.4420166016</ele>
        <time>2017-05-13T04:00:18Z</time>
      </trkpt>
      <trkpt lat="45.21781" lon="5.99138">
        <ele>1411.4420166016</ele>
        <time>2017-05-13T04:00:22Z</time>
      </trkpt>
      <trkpt lat="45.21776" lon="5.99135">
        <ele>1410.4420166016</ele>
        <time>2017-05-13T04:00:26Z</time>
      </trkpt>
      <trkpt lat="45.21771" lon="5.99133">
        <ele>1411.4420166016</ele>
        <time>2017-05-13T04:00:30Z</time>
      </trkpt>
      <trkpt lat="45.21767" lon="5.99128">
        <ele>1414.4420166016</ele>
        <time>2017-05-13T04:00:35Z</time>
      </trkpt>
      <trkpt lat="45.21763" lon="5.99125">
        <ele>1417.4420166016</ele>
        <time>2017-05-13T04:00:40Z</time>
      </trkpt>
      <trkpt lat="45.2176" lon="5.99119">
        <ele>1416.4420166016</ele>
        <time>2017-05-13T04:00:45Z</time>
      </trkpt>
      <trkpt lat="45.21758" lon="5.99113">
        <ele>1415.4420166016</ele>
        <time>2017-05-13T04:00:49Z</time>
      </trkpt>
      <trkpt lat="45.21757" lon="5.99106">
        <ele>1417.4420166016</ele>
        <time>2017-05-13T04:00:53Z</time>
      </trkpt>
      <trkpt lat="45.21753" lon="5.991">
        <ele>1419.4420166016</ele>
        <time>2017-05-13T04:00:58Z</time>
      </trkpt>
      <trkpt lat="45.2175" lon="5.99093">
        <ele>1418.4420166016</ele>
        <time>2017-05-13T04:01:01Z</time>
      </trkpt>
      <trkpt lat="45.21748" lon="5.99086">
        <ele>1416.4420166016</ele>
        <time>2017-05-13T04:01:11Z</time>
      </trkpt>
      <trkpt lat="45.2175" lon="5.99078">
        <ele>1418.4420166016</ele>
        <time>2017-05-13T04:01:16Z</time>
      </trkpt>
      <trkpt lat="45.21754" lon="5.99074">
        <ele>1421.4420166016</ele>
        <time>2017-05-13T04:01:19Z</time>
      </trkpt>
      <trkpt lat="45.21758" lon="5.99069">
        <ele>1421.4420166016</ele>
        <time>2017-05-13T04:01:22Z</time>
      </trkpt>
      <trkpt lat="45.21763" lon="5.99068">
        <ele>1421.4420166016</ele>
        <time>2017-05-13T04:01:27Z</time>
      </trkpt>
      <trkpt lat="45.21765" lon="5.99062">
        <ele>1424.4420166016</ele>
        <time>2017-05-13T04:01:37Z</time>
      </trkpt>
      <trkpt lat="45.21761" lon="5.99065">
        <ele>1423.4420166016</ele>
        <time>2017-05-13T04:01:38Z</time>
      </trkpt>
      <trkpt lat="45.21759" lon="5.99059">
        <ele>1424.4420166016</ele>
        <time>2017-05-13T04:01:41Z</time>
      </trkpt>
      <trkpt lat="45.2176" lon="5.99051">
        <ele>1425.4420166016</ele>
        <time>2017-05-13T04:01:45Z</time>
      </trkpt>
      <trkpt lat="45.21761" lon="5.99044">
        <ele>1424.4420166016</ele>
        <time>2017-05-13T04:01:47Z</time>
      </trkpt>
      <trkpt lat="45.21756" lon="5.99039">
        <ele>1426.4420166016</ele>
        <time>2017-05-13T04:01:51Z</time>
      </trkpt>
      <trkpt lat="45.21752" lon="5.99037">
        <ele>1427.4420166016</ele>
        <time>2017-05-13T04:01:55Z</time>
      </trkpt>
      <trkpt lat="45.21745" lon="5.99031">
        <ele>1428.4420166016</ele>
        <time>2017-05-13T04:02:04Z</time>
      </trkpt>
      <trkpt lat="45.21739" lon="5.99029">
        <ele>1430.4420166016</ele>
        <time>2017-05-13T04:02:09Z</time>
      </trkpt>
      <trkpt lat="45.21737" lon="5.99022">
        <ele>1429.4420166016</ele>
        <time>2017-05-13T04:02:16Z</time>
      </trkpt>
      <trkpt lat="45.21735" lon="5.99016">
        <ele>1430.4420166016</ele>
        <time>2017-05-13T04:02:22Z</time>
      </trkpt>
      <trkpt lat="45.21733" lon="5.99009">
        <ele>1430.4420166016</ele>
        <time>2017-05-13T04:02:26Z</time>
      </trkpt>
      <trkpt lat="45.21726" lon="5.99002">
        <ele>1430.4420166016</ele>
        <time>2017-05-13T04:02:33Z</time>
      </trkpt>
      <trkpt lat="45.21723" lon="5.98995">
        <ele>1430.4420166016</ele>
        <time>2017-05-13T04:02:36Z</time>
      </trkpt>
      <trkpt lat="45.21719" lon="5.98992">
        <ele>1428.4420166016</ele>
        <time>2017-05-13T04:02:40Z</time>
      </trkpt>
      <trkpt lat="45.21718" lon="5.98986">
        <ele>1428.4420166016</ele>
        <time>2017-05-13T04:02:43Z</time>
      </trkpt>
      <trkpt lat="45.21712" lon="5.98984">
        <ele>1428.4420166016</ele>
        <time>2017-05-13T04:02:47Z</time>
      </trkpt>
      <trkpt lat="45.21707" lon="5.98987">
        <ele>1428.4420166016</ele>
        <time>2017-05-13T04:02:49Z</time>
      </trkpt>
      <trkpt lat="45.21702" lon="5.98989">
        <ele>1429.4420166016</ele>
        <time>2017-05-13T04:02:51Z</time>
      </trkpt>
      <trkpt lat="45.21697" lon="5.98991">
        <ele>1429.4420166016</ele>
        <time>2017-05-13T04:02:54Z</time>
      </trkpt>
      <trkpt lat="45.21693" lon="5.98987">
        <ele>1428.4420166016</ele>
        <time>2017-05-13T04:02:58Z</time>
      </trkpt>
      <trkpt lat="45.2169" lon="5.98984">
        <ele>1431.4420166016</ele>
        <time>2017-05-13T04:03:04Z</time>
      </trkpt>
      <trkpt lat="45.21689" lon="5.98974">
        <ele>1433.4420166016</ele>
        <time>2017-05-13T04:03:08Z</time>
      </trkpt>
      <trkpt lat="45.21688" lon="5.98967">
        <ele>1436.4420166016</ele>
        <time>2017-05-13T04:03:12Z</time>
      </trkpt>
      <trkpt lat="45.21687" lon="5.9896">
        <ele>1437.4420166016</ele>
        <time>2017-05-13T04:03:16Z</time>
      </trkpt>
      <trkpt lat="45.21688" lon="5.98953">
        <ele>1439.4420166016</ele>
        <time>2017-05-13T04:03:20Z</time>
      </trkpt>
      <trkpt lat="45.21687" lon="5.98947">
        <ele>1442.4420166016</ele>
        <time>2017-05-13T04:03:25Z</time>
      </trkpt>
      <trkpt lat="45.21689" lon="5.98937">
        <ele>1444.4420166016</ele>
        <time>2017-05-13T04:03:28Z</time>
      </trkpt>
      <trkpt lat="45.21685" lon="5.98941">
        <ele>1445.4420166016</ele>
        <time>2017-05-13T04:03:30Z</time>
      </trkpt>
      <trkpt lat="45.21681" lon="5.98943">
        <ele>1445.4420166016</ele>
        <time>2017-05-13T04:03:33Z</time>
      </trkpt>
      <trkpt lat="45.21677" lon="5.98948">
        <ele>1445.4420166016</ele>
        <time>2017-05-13T04:03:41Z</time>
      </trkpt>
      <trkpt lat="45.21672" lon="5.98951">
        <ele>1445.4420166016</ele>
        <time>2017-05-13T04:03:47Z</time>
      </trkpt>
      <trkpt lat="45.21667" lon="5.98947">
        <ele>1446.4420166016</ele>
        <time>2017-05-13T04:03:59Z</time>
      </trkpt>
      <trkpt lat="45.21663" lon="5.98944">
        <ele>1448.4420166016</ele>
        <time>2017-05-13T04:04:03Z</time>
      </trkpt>
      <trkpt lat="45.21659" lon="5.98941">
        <ele>1444.4420166016</ele>
        <time>2017-05-13T04:04:08Z</time>
      </trkpt>
      <trkpt lat="45.21655" lon="5.98936">
        <ele>1447.4420166016</ele>
        <time>2017-05-13T04:04:14Z</time>
      </trkpt>
      <trkpt lat="45.2165" lon="5.98933">
        <ele>1449.4420166016</ele>
        <time>2017-05-13T04:04:18Z</time>
      </trkpt>
      <trkpt lat="45.21652" lon="5.98926">
        <ele>1449.4420166016</ele>
        <time>2017-05-13T04:04:20Z</time>
      </trkpt>
      <trkpt lat="45.21648" lon="5.98918">
        <ele>1448.4420166016</ele>
        <time>2017-05-13T04:04:25Z</time>
      </trkpt>
      <trkpt lat="45.21643" lon="5.98919">
        <ele>1447.4420166016</ele>
        <time>2017-05-13T04:04:29Z</time>
      </trkpt>
      <trkpt lat="45.21639" lon="5.98916">
        <ele>1451.4420166016</ele>
        <time>2017-05-13T04:04:36Z</time>
      </trkpt>
      <trkpt lat="45.21635" lon="5.98911">
        <ele>1452.4420166016</ele>
        <time>2017-05-13T04:04:40Z</time>
      </trkpt>
      <trkpt lat="45.2163" lon="5.98905">
        <ele>1451.4420166016</ele>
        <time>2017-05-13T04:04:45Z</time>
      </trkpt>
      <trkpt lat="45.2163" lon="5.98898">
        <ele>1450.4420166016</ele>
        <time>2017-05-13T04:04:49Z</time>
      </trkpt>
      <trkpt lat="45.21627" lon="5.98891">
        <ele>1452.4420166016</ele>
        <time>2017-05-13T04:04:55Z</time>
      </trkpt>
      <trkpt lat="45.21625" lon="5.98885">
        <ele>1455.4420166016</ele>
        <time>2017-05-13T04:04:59Z</time>
      </trkpt>
      <trkpt lat="45.21626" lon="5.98878">
        <ele>1456.4420166016</ele>
        <time>2017-05-13T04:05:03Z</time>
      </trkpt>
      <trkpt lat="45.21619" lon="5.9888">
        <ele>1459.4420166016</ele>
        <time>2017-05-13T04:05:08Z</time>
      </trkpt>
      <trkpt lat="45.21615" lon="5.98877">
        <ele>1462.4420166016</ele>
        <time>2017-05-13T04:05:14Z</time>
      </trkpt>
      <trkpt lat="45.21616" lon="5.98869">
        <ele>1462.4420166016</ele>
        <time>2017-05-13T04:05:18Z</time>
      </trkpt>
      <trkpt lat="45.21614" lon="5.98861">
        <ele>1464.4420166016</ele>
        <time>2017-05-13T04:05:22Z</time>
      </trkpt>
      <trkpt lat="45.21614" lon="5.98854">
        <ele>1467.4420166016</ele>
        <time>2017-05-13T04:05:26Z</time>
      </trkpt>
      <trkpt lat="45.21611" lon="5.98848">
        <ele>1467.4420166016</ele>
        <time>2017-05-13T04:05:31Z</time>
      </trkpt>
      <trkpt lat="45.21607" lon="5.98844">
        <ele>1472.4420166016</ele>
        <time>2017-05-13T04:05:37Z</time>
      </trkpt>
      <trkpt lat="45.2161" lon="5.98837">
        <ele>1471.4420166016</ele>
        <time>2017-05-13T04:05:42Z</time>
      </trkpt>
      <trkpt lat="45.21606" lon="5.98832">
        <ele>1468.4420166016</ele>
        <time>2017-05-13T04:05:46Z</time>
      </trkpt>
      <trkpt lat="45.21602" lon="5.98827">
        <ele>1472.4420166016</ele>
        <time>2017-05-13T04:05:53Z</time>
      </trkpt>
      <trkpt lat="45.21602" lon="5.98817">
        <ele>1473.4420166016</ele>
        <time>2017-05-13T04:05:58Z</time>
      </trkpt>
      <trkpt lat="45.21596" lon="5.98818">
        <ele>1473.4420166016</ele>
        <time>2017-05-13T04:06:04Z</time>
      </trkpt>
      <trkpt lat="45.21592" lon="5.98814">
        <ele>1473.4420166016</ele>
        <time>2017-05-13T04:06:10Z</time>
      </trkpt>
      <trkpt lat="45.21593" lon="5.98808">
        <ele>1474.4420166016</ele>
        <time>2017-05-13T04:06:12Z</time>
      </trkpt>
      <trkpt lat="45.21587" lon="5.98808">
        <ele>1477.4420166016</ele>
        <time>2017-05-13T04:06:16Z</time>
      </trkpt>
      <trkpt lat="45.21582" lon="5.98808">
        <ele>1476.4420166016</ele>
        <time>2017-05-13T04:06:21Z</time>
      </trkpt>
      <trkpt lat="45.21585" lon="5.98802">
        <ele>1474.4420166016</ele>
        <time>2017-05-13T04:06:23Z</time>
      </trkpt>
      <trkpt lat="45.2158" lon="5.98799">
        <ele>1476.4410400391</ele>
        <time>2017-05-13T04:06:29Z</time>
      </trkpt>
      <trkpt lat="45.2158" lon="5.9879">
        <ele>1477.4410400391</ele>
        <time>2017-05-13T04:06:33Z</time>
      </trkpt>
      <trkpt lat="45.2158" lon="5.98784">
        <ele>1476.4410400391</ele>
        <time>2017-05-13T04:06:36Z</time>
      </trkpt>
      <trkpt lat="45.21578" lon="5.98776">
        <ele>1479.4410400391</ele>
        <time>2017-05-13T04:06:42Z</time>
      </trkpt>
      <trkpt lat="45.21577" lon="5.9877">
        <ele>1479.4410400391</ele>
        <time>2017-05-13T04:06:50Z</time>
      </trkpt>
      <trkpt lat="45.2157" lon="5.98777">
        <ele>1483.4410400391</ele>
        <time>2017-05-13T04:06:53Z</time>
      </trkpt>
      <trkpt lat="45.21562" lon="5.98775">
        <ele>1480.4410400391</ele>
        <time>2017-05-13T04:07:30Z</time>
      </trkpt>
      <trkpt lat="45.21561" lon="5.98764">
        <ele>1478.4410400391</ele>
        <time>2017-05-13T04:07:33Z</time>
      </trkpt>
      <trkpt lat="45.21556" lon="5.98762">
        <ele>1478.4410400391</ele>
        <time>2017-05-13T04:07:37Z</time>
      </trkpt>
      <trkpt lat="45.21553" lon="5.98754">
        <ele>1483.4410400391</ele>
        <time>2017-05-13T04:07:45Z</time>
      </trkpt>
      <trkpt lat="45.21547" lon="5.98751">
        <ele>1487.4410400391</ele>
        <time>2017-05-13T04:07:49Z</time>
      </trkpt>
      <trkpt lat="45.21547" lon="5.98744">
        <ele>1487.4410400391</ele>
        <time>2017-05-13T04:07:52Z</time>
      </trkpt>
      <trkpt lat="45.21544" lon="5.9874">
        <ele>1490.4410400391</ele>
        <time>2017-05-13T04:07:57Z</time>
      </trkpt>
      <trkpt lat="45.21539" lon="5.98739">
        <ele>1492.4410400391</ele>
        <time>2017-05-13T04:08:01Z</time>
      </trkpt>
      <trkpt lat="45.21537" lon="5.98732">
        <ele>1492.4410400391</ele>
        <time>2017-05-13T04:08:05Z</time>
      </trkpt>
      <trkpt lat="45.2153" lon="5.9874">
        <ele>1496.4410400391</ele>
        <time>2017-05-13T04:08:07Z</time>
      </trkpt>
      <trkpt lat="45.21534" lon="5.98728">
        <ele>1497.4410400391</ele>
        <time>2017-05-13T04:08:09Z</time>
      </trkpt>
      <trkpt lat="45.21538" lon="5.98719">
        <ele>1497.4410400391</ele>
        <time>2017-05-13T04:08:12Z</time>
      </trkpt>
      <trkpt lat="45.21534" lon="5.98724">
        <ele>1499.4410400391</ele>
        <time>2017-05-13T04:08:15Z</time>
      </trkpt>
      <trkpt lat="45.21535" lon="5.98717">
        <ele>1503.4410400391</ele>
        <time>2017-05-13T04:08:23Z</time>
      </trkpt>
      <trkpt lat="45.21539" lon="5.98707">
        <ele>1504.4410400391</ele>
        <time>2017-05-13T04:09:20Z</time>
      </trkpt>
      <trkpt lat="45.21549" lon="5.98694">
        <ele>1506.4410400391</ele>
        <time>2017-05-13T04:09:24Z</time>
      </trkpt>
      <trkpt lat="45.21558" lon="5.98683">
        <ele>1512.4410400391</ele>
        <time>2017-05-13T04:09:29Z</time>
      </trkpt>
      <trkpt lat="45.21563" lon="5.98679">
        <ele>1513.4410400391</ele>
        <time>2017-05-13T04:09:32Z</time>
      </trkpt>
      <trkpt lat="45.21565" lon="5.98683">
        <ele>1512.4410400391</ele>
        <time>2017-05-13T04:09:36Z</time>
      </trkpt>
      <trkpt lat="45.21571" lon="5.98679">
        <ele>1511.4410400391</ele>
        <time>2017-05-13T04:09:40Z</time>
      </trkpt>
      <trkpt lat="45.21573" lon="5.98688">
        <ele>1514.4410400391</ele>
        <time>2017-05-13T04:09:47Z</time>
      </trkpt>
      <trkpt lat="45.2158" lon="5.98684">
        <ele>1517.4410400391</ele>
        <time>2017-05-13T04:09:51Z</time>
      </trkpt>
      <trkpt lat="45.21581" lon="5.9869">
        <ele>1521.4410400391</ele>
        <time>2017-05-13T04:09:57Z</time>
      </trkpt>
      <trkpt lat="45.21579" lon="5.987">
        <ele>1523.4410400391</ele>
        <time>2017-05-13T04:10:01Z</time>
      </trkpt>
      <trkpt lat="45.21584" lon="5.987">
        <ele>1529.4410400391</ele>
        <time>2017-05-13T04:10:05Z</time>
      </trkpt>
      <trkpt lat="45.21591" lon="5.98694">
        <ele>1528.4410400391</ele>
        <time>2017-05-13T04:10:07Z</time>
      </trkpt>
      <trkpt lat="45.21595" lon="5.98691">
        <ele>1525.4410400391</ele>
        <time>2017-05-13T04:10:09Z</time>
      </trkpt>
      <trkpt lat="45.21599" lon="5.98687">
        <ele>1524.4410400391</ele>
        <time>2017-05-13T04:10:10Z</time>
      </trkpt>
      <trkpt lat="45.21603" lon="5.98692">
        <ele>1526.4410400391</ele>
        <time>2017-05-13T04:10:27Z</time>
      </trkpt>
      <trkpt lat="45.21605" lon="5.98699">
        <ele>1529.4410400391</ele>
        <time>2017-05-13T04:10:31Z</time>
      </trkpt>
      <trkpt lat="45.21607" lon="5.98705">
        <ele>1533.4410400391</ele>
        <time>2017-05-13T04:10:38Z</time>
      </trkpt>
      <trkpt lat="45.21611" lon="5.98703">
        <ele>1533.4410400391</ele>
        <time>2017-05-13T04:10:42Z</time>
      </trkpt>
      <trkpt lat="45.21618" lon="5.98693">
        <ele>1534.4410400391</ele>
        <time>2017-05-13T04:10:50Z</time>
      </trkpt>
      <trkpt lat="45.21627" lon="5.98683">
        <ele>1532.4410400391</ele>
        <time>2017-05-13T04:10:53Z</time>
      </trkpt>
      <trkpt lat="45.21632" lon="5.98684">
        <ele>1531.4410400391</ele>
        <time>2017-05-13T04:10:56Z</time>
      </trkpt>
      <trkpt lat="45.21637" lon="5.98687">
        <ele>1527.4410400391</ele>
        <time>2017-05-13T04:11:01Z</time>
      </trkpt>
      <trkpt lat="45.21644" lon="5.98684">
        <ele>1528.4410400391</ele>
        <time>2017-05-13T04:11:06Z</time>
      </trkpt>
      <trkpt lat="45.21643" lon="5.98691">
        <ele>1528.4410400391</ele>
        <time>2017-05-13T04:11:10Z</time>
      </trkpt>
      <trkpt lat="45.21648" lon="5.98686">
        <ele>1528.4410400391</ele>
        <time>2017-05-13T04:11:12Z</time>
      </trkpt>
      <trkpt lat="45.21652" lon="5.9869">
        <ele>1531.4410400391</ele>
        <time>2017-05-13T04:11:15Z</time>
      </trkpt>
      <trkpt lat="45.21654" lon="5.98679">
        <ele>1534.4410400391</ele>
        <time>2017-05-13T04:12:08Z</time>
      </trkpt>
      <trkpt lat="45.21659" lon="5.98664">
        <ele>1534.4410400391</ele>
        <time>2017-05-13T04:12:11Z</time>
      </trkpt>
      <trkpt lat="45.21659" lon="5.98654">
        <ele>1536.4410400391</ele>
        <time>2017-05-13T04:12:15Z</time>
      </trkpt>
      <trkpt lat="45.21656" lon="5.98647">
        <ele>1539.4410400391</ele>
        <time>2017-05-13T04:12:22Z</time>
      </trkpt>
      <trkpt lat="45.21654" lon="5.9864">
        <ele>1539.4410400391</ele>
        <time>2017-05-13T04:12:26Z</time>
      </trkpt>
      <trkpt lat="45.2165" lon="5.98635">
        <ele>1542.4410400391</ele>
        <time>2017-05-13T04:12:32Z</time>
      </trkpt>
      <trkpt lat="45.21647" lon="5.9863">
        <ele>1541.4410400391</ele>
        <time>2017-05-13T04:12:36Z</time>
      </trkpt>
      <trkpt lat="45.21645" lon="5.98622">
        <ele>1541.4410400391</ele>
        <time>2017-05-13T04:12:38Z</time>
      </trkpt>
      <trkpt lat="45.2164" lon="5.98625">
        <ele>1540.4410400391</ele>
        <time>2017-05-13T04:12:43Z</time>
      </trkpt>
      <trkpt lat="45.21637" lon="5.98631">
        <ele>1540.4410400391</ele>
        <time>2017-05-13T04:12:45Z</time>
      </trkpt>
      <trkpt lat="45.21634" lon="5.98636">
        <ele>1542.4410400391</ele>
        <time>2017-05-13T04:12:47Z</time>
      </trkpt>
      <trkpt lat="45.21628" lon="5.98639">
        <ele>1544.4410400391</ele>
        <time>2017-05-13T04:12:50Z</time>
      </trkpt>
      <trkpt lat="45.21624" lon="5.98636">
        <ele>1546.4410400391</ele>
        <time>2017-05-13T04:12:55Z</time>
      </trkpt>
      <trkpt lat="45.21625" lon="5.98628">
        <ele>1550.4410400391</ele>
        <time>2017-05-13T04:13:11Z</time>
      </trkpt>
      <trkpt lat="45.21625" lon="5.98617">
        <ele>1548.4410400391</ele>
        <time>2017-05-13T04:13:34Z</time>
      </trkpt>
      <trkpt lat="45.21626" lon="5.98611">
        <ele>1549.4410400391</ele>
        <time>2017-05-13T04:13:38Z</time>
      </trkpt>
      <trkpt lat="45.2163" lon="5.98604">
        <ele>1547.4410400391</ele>
        <time>2017-05-13T04:13:42Z</time>
      </trkpt>
      <trkpt lat="45.2163" lon="5.98597">
        <ele>1547.4410400391</ele>
        <time>2017-05-13T04:13:44Z</time>
      </trkpt>
      <trkpt lat="45.21626" lon="5.98594">
        <ele>1548.4410400391</ele>
        <time>2017-05-13T04:13:47Z</time>
      </trkpt>
      <trkpt lat="45.21623" lon="5.98589">
        <ele>1547.4410400391</ele>
        <time>2017-05-13T04:13:50Z</time>
      </trkpt>
      <trkpt lat="45.21622" lon="5.98579">
        <ele>1551.4410400391</ele>
        <time>2017-05-13T04:13:55Z</time>
      </trkpt>
      <trkpt lat="45.21617" lon="5.98578">
        <ele>1555.4410400391</ele>
        <time>2017-05-13T04:14:00Z</time>
      </trkpt>
      <trkpt lat="45.21611" lon="5.98581">
        <ele>1553.4410400391</ele>
        <time>2017-05-13T04:14:04Z</time>
      </trkpt>
      <trkpt lat="45.21606" lon="5.98582">
        <ele>1554.4410400391</ele>
        <time>2017-05-13T04:14:07Z</time>
      </trkpt>
      <trkpt lat="45.21607" lon="5.98573">
        <ele>1556.4410400391</ele>
        <time>2017-05-13T04:14:10Z</time>
      </trkpt>
      <trkpt lat="45.21609" lon="5.98567">
        <ele>1557.4410400391</ele>
        <time>2017-05-13T04:14:11Z</time>
      </trkpt>
      <trkpt lat="45.21615" lon="5.98552">
        <ele>1556.4410400391</ele>
        <time>2017-05-13T04:14:13Z</time>
      </trkpt>
      <trkpt lat="45.21608" lon="5.98559">
        <ele>1556.4410400391</ele>
        <time>2017-05-13T04:14:16Z</time>
      </trkpt>
      <trkpt lat="45.21612" lon="5.9855">
        <ele>1555.4410400391</ele>
        <time>2017-05-13T04:14:18Z</time>
      </trkpt>
      <trkpt lat="45.21607" lon="5.98554">
        <ele>1554.4410400391</ele>
        <time>2017-05-13T04:14:21Z</time>
      </trkpt>
      <trkpt lat="45.21609" lon="5.98545">
        <ele>1557.4410400391</ele>
        <time>2017-05-13T04:14:25Z</time>
      </trkpt>
      <trkpt lat="45.21605" lon="5.98541">
        <ele>1563.4410400391</ele>
        <time>2017-05-13T04:15:30Z</time>
      </trkpt>
      <trkpt lat="45.21597" lon="5.98537">
        <ele>1560.4410400391</ele>
        <time>2017-05-13T04:15:32Z</time>
      </trkpt>
      <trkpt lat="45.21588" lon="5.98527">
        <ele>1557.4410400391</ele>
        <time>2017-05-13T04:15:34Z</time>
      </trkpt>
      <trkpt lat="45.21583" lon="5.98519">
        <ele>1553.4410400391</ele>
        <time>2017-05-13T04:15:36Z</time>
      </trkpt>
      <trkpt lat="45.21569" lon="5.98522">
        <ele>1558.4410400391</ele>
        <time>2017-05-13T04:15:39Z</time>
      </trkpt>
      <trkpt lat="45.21562" lon="5.98535">
        <ele>1561.4410400391</ele>
        <time>2017-05-13T04:15:41Z</time>
      </trkpt>
      <trkpt lat="45.21558" lon="5.98531">
        <ele>1564.4410400391</ele>
        <time>2017-05-13T04:15:43Z</time>
      </trkpt>
      <trkpt lat="45.21564" lon="5.98516">
        <ele>1566.4410400391</ele>
        <time>2017-05-13T04:15:45Z</time>
      </trkpt>
      <trkpt lat="45.21561" lon="5.98505">
        <ele>1570.4410400391</ele>
        <time>2017-05-13T04:15:49Z</time>
      </trkpt>
      <trkpt lat="45.21562" lon="5.98497">
        <ele>1574.4410400391</ele>
        <time>2017-05-13T04:15:54Z</time>
      </trkpt>
      <trkpt lat="45.21561" lon="5.9849">
        <ele>1571.4410400391</ele>
        <time>2017-05-13T04:15:58Z</time>
      </trkpt>
      <trkpt lat="45.21561" lon="5.98484">
        <ele>1577.4410400391</ele>
        <time>2017-05-13T04:16:03Z</time>
      </trkpt>
      <trkpt lat="45.21558" lon="5.98479">
        <ele>1578.4410400391</ele>
        <time>2017-05-13T04:16:14Z</time>
      </trkpt>
      <trkpt lat="45.21553" lon="5.98482">
        <ele>1581.4410400391</ele>
        <time>2017-05-13T04:17:00Z</time>
      </trkpt>
      <trkpt lat="45.21559" lon="5.98476">
        <ele>1581.4410400391</ele>
        <time>2017-05-13T04:17:08Z</time>
      </trkpt>
      <trkpt lat="45.21565" lon="5.98472">
        <ele>1584.4410400391</ele>
        <time>2017-05-13T04:17:13Z</time>
      </trkpt>
      <trkpt lat="45.2157" lon="5.98473">
        <ele>1592.4410400391</ele>
        <time>2017-05-13T04:17:23Z</time>
      </trkpt>
      <trkpt lat="45.21572" lon="5.98467">
        <ele>1594.4410400391</ele>
        <time>2017-05-13T04:17:25Z</time>
      </trkpt>
      <trkpt lat="45.21578" lon="5.98464">
        <ele>1596.4410400391</ele>
        <time>2017-05-13T04:17:28Z</time>
      </trkpt>
      <trkpt lat="45.21582" lon="5.98459">
        <ele>1594.4410400391</ele>
        <time>2017-05-13T04:17:31Z</time>
      </trkpt>
      <trkpt lat="45.21586" lon="5.98451">
        <ele>1593.4410400391</ele>
        <time>2017-05-13T04:17:34Z</time>
      </trkpt>
      <trkpt lat="45.2159" lon="5.98446">
        <ele>1595.4410400391</ele>
        <time>2017-05-13T04:17:40Z</time>
      </trkpt>
      <trkpt lat="45.21596" lon="5.98443">
        <ele>1593.4410400391</ele>
        <time>2017-05-13T04:17:47Z</time>
      </trkpt>
      <trkpt lat="45.216" lon="5.98436">
        <ele>1595.4410400391</ele>
        <time>2017-05-13T04:17:53Z</time>
      </trkpt>
      <trkpt lat="45.21604" lon="5.98432">
        <ele>1596.4410400391</ele>
        <time>2017-05-13T04:17:57Z</time>
      </trkpt>
      <trkpt lat="45.21609" lon="5.98431">
        <ele>1598.4410400391</ele>
        <time>2017-05-13T04:18:03Z</time>
      </trkpt>
      <trkpt lat="45.21614" lon="5.9843">
        <ele>1598.4410400391</ele>
        <time>2017-05-13T04:18:07Z</time>
      </trkpt>
      <trkpt lat="45.21619" lon="5.98435">
        <ele>1599.4410400391</ele>
        <time>2017-05-13T04:18:13Z</time>
      </trkpt>
      <trkpt lat="45.2162" lon="5.98428">
        <ele>1606.4410400391</ele>
        <time>2017-05-13T04:18:29Z</time>
      </trkpt>
      <trkpt lat="45.21615" lon="5.9843">
        <ele>1607.4410400391</ele>
        <time>2017-05-13T04:18:32Z</time>
      </trkpt>
      <trkpt lat="45.21607" lon="5.98429">
        <ele>1608.4410400391</ele>
        <time>2017-05-13T04:18:35Z</time>
      </trkpt>
      <trkpt lat="45.2161" lon="5.98423">
        <ele>1607.4410400391</ele>
        <time>2017-05-13T04:18:39Z</time>
      </trkpt>
      <trkpt lat="45.21614" lon="5.98417">
        <ele>1606.4410400391</ele>
        <time>2017-05-13T04:18:42Z</time>
      </trkpt>
      <trkpt lat="45.21611" lon="5.98424">
        <ele>1607.4410400391</ele>
        <time>2017-05-13T04:18:45Z</time>
      </trkpt>
      <trkpt lat="45.21608" lon="5.98429">
        <ele>1610.4410400391</ele>
        <time>2017-05-13T04:18:53Z</time>
      </trkpt>
      <trkpt lat="45.21601" lon="5.98427">
        <ele>1611.4410400391</ele>
        <time>2017-05-13T04:19:20Z</time>
      </trkpt>
      <trkpt lat="45.21601" lon="5.98414">
        <ele>1611.4410400391</ele>
        <time>2017-05-13T04:19:23Z</time>
      </trkpt>
      <trkpt lat="45.21596" lon="5.98412">
        <ele>1611.4410400391</ele>
        <time>2017-05-13T04:19:25Z</time>
      </trkpt>
      <trkpt lat="45.21588" lon="5.98415">
        <ele>1613.4410400391</ele>
        <time>2017-05-13T04:19:27Z</time>
      </trkpt>
      <trkpt lat="45.21582" lon="5.98411">
        <ele>1613.4410400391</ele>
        <time>2017-05-13T04:19:29Z</time>
      </trkpt>
      <trkpt lat="45.21571" lon="5.98404">
        <ele>1615.4410400391</ele>
        <time>2017-05-13T04:19:32Z</time>
      </trkpt>
      <trkpt lat="45.21574" lon="5.98384">
        <ele>1614.4410400391</ele>
        <time>2017-05-13T04:19:34Z</time>
      </trkpt>
      <trkpt lat="45.21564" lon="5.98402">
        <ele>1610.4410400391</ele>
        <time>2017-05-13T04:19:38Z</time>
      </trkpt>
      <trkpt lat="45.21566" lon="5.98396">
        <ele>1614.4410400391</ele>
        <time>2017-05-13T04:19:44Z</time>
      </trkpt>
      <trkpt lat="45.21568" lon="5.9839">
        <ele>1613.4410400391</ele>
        <time>2017-05-13T04:19:46Z</time>
      </trkpt>
      <trkpt lat="45.21569" lon="5.98379">
        <ele>1616.4410400391</ele>
        <time>2017-05-13T04:19:53Z</time>
      </trkpt>
      <trkpt lat="45.21565" lon="5.98373">
        <ele>1618.4410400391</ele>
        <time>2017-05-13T04:19:58Z</time>
      </trkpt>
      <trkpt lat="45.21559" lon="5.98375">
        <ele>1617.4410400391</ele>
        <time>2017-05-13T04:20:00Z</time>
      </trkpt>
      <trkpt lat="45.21558" lon="5.98381">
        <ele>1618.4410400391</ele>
        <time>2017-05-13T04:20:02Z</time>
      </trkpt>
      <trkpt lat="45.21552" lon="5.98392">
        <ele>1620.4410400391</ele>
        <time>2017-05-13T04:20:03Z</time>
      </trkpt>
      <trkpt lat="45.21545" lon="5.98399">
        <ele>1626.4410400391</ele>
        <time>2017-05-13T04:20:06Z</time>
      </trkpt>
      <trkpt lat="45.21556" lon="5.98381">
        <ele>1621.4410400391</ele>
        <time>2017-05-13T04:20:08Z</time>
      </trkpt>
      <trkpt lat="45.2155" lon="5.9838">
        <ele>1621.4410400391</ele>
        <time>2017-05-13T04:20:16Z</time>
      </trkpt>
      <trkpt lat="45.21545" lon="5.98379">
        <ele>1625.4410400391</ele>
        <time>2017-05-13T04:20:21Z</time>
      </trkpt>
      <trkpt lat="45.21538" lon="5.98385">
        <ele>1627.4410400391</ele>
        <time>2017-05-13T04:20:23Z</time>
      </trkpt>
      <trkpt lat="45.2154" lon="5.98377">
        <ele>1625.4410400391</ele>
        <time>2017-05-13T04:20:26Z</time>
      </trkpt>
      <trkpt lat="45.21539" lon="5.98376">
        <ele>1628.4410400391</ele>
        <time>2017-05-13T04:20:33Z</time>
      </trkpt>
      <trkpt lat="45.21542" lon="5.98369">
        <ele>1627.4410400391</ele>
        <time>2017-05-13T04:20:42Z</time>
      </trkpt>
      <trkpt lat="45.21546" lon="5.98364">
        <ele>1628.4410400391</ele>
        <time>2017-05-13T04:20:44Z</time>
      </trkpt>
      <trkpt lat="45.2155" lon="5.98368">
        <ele>1632.4410400391</ele>
        <time>2017-05-13T04:20:54Z</time>
      </trkpt>
      <trkpt lat="45.21554" lon="5.98363">
        <ele>1634.4410400391</ele>
        <time>2017-05-13T04:20:58Z</time>
      </trkpt>
      <trkpt lat="45.21559" lon="5.98367">
        <ele>1638.4410400391</ele>
        <time>2017-05-13T04:21:23Z</time>
      </trkpt>
      <trkpt lat="45.21565" lon="5.98366">
        <ele>1640.4410400391</ele>
        <time>2017-05-13T04:21:25Z</time>
      </trkpt>
      <trkpt lat="45.2157" lon="5.98365">
        <ele>1643.4410400391</ele>
        <time>2017-05-13T04:21:28Z</time>
      </trkpt>
      <trkpt lat="45.21574" lon="5.98365">
        <ele>1643.4410400391</ele>
        <time>2017-05-13T04:21:32Z</time>
      </trkpt>
      <trkpt lat="45.21579" lon="5.98361">
        <ele>1643.4410400391</ele>
        <time>2017-05-13T04:21:35Z</time>
      </trkpt>
      <trkpt lat="45.21583" lon="5.98365">
        <ele>1644.4410400391</ele>
        <time>2017-05-13T04:21:40Z</time>
      </trkpt>
      <trkpt lat="45.21588" lon="5.98367">
        <ele>1647.4410400391</ele>
        <time>2017-05-13T04:21:44Z</time>
      </trkpt>
      <trkpt lat="45.21592" lon="5.98364">
        <ele>1649.4410400391</ele>
        <time>2017-05-13T04:21:47Z</time>
      </trkpt>
      <trkpt lat="45.21597" lon="5.98362">
        <ele>1652.4410400391</ele>
        <time>2017-05-13T04:21:55Z</time>
      </trkpt>
      <trkpt lat="45.21594" lon="5.98356">
        <ele>1651.4410400391</ele>
        <time>2017-05-13T04:22:02Z</time>
      </trkpt>
      <trkpt lat="45.21592" lon="5.98351">
        <ele>1651.4410400391</ele>
        <time>2017-05-13T04:22:11Z</time>
      </trkpt>
      <trkpt lat="45.21588" lon="5.98348">
        <ele>1650.4410400391</ele>
        <time>2017-05-13T04:22:14Z</time>
      </trkpt>
      <trkpt lat="45.21583" lon="5.98346">
        <ele>1650.4410400391</ele>
        <time>2017-05-13T04:22:19Z</time>
      </trkpt>
      <trkpt lat="45.21579" lon="5.98343">
        <ele>1650.4410400391</ele>
        <time>2017-05-13T04:22:25Z</time>
      </trkpt>
      <trkpt lat="45.21576" lon="5.98336">
        <ele>1648.4410400391</ele>
        <time>2017-05-13T04:22:29Z</time>
      </trkpt>
      <trkpt lat="45.21572" lon="5.98335">
        <ele>1647.4410400391</ele>
        <time>2017-05-13T04:22:32Z</time>
      </trkpt>
      <trkpt lat="45.21567" lon="5.98336">
        <ele>1650.4410400391</ele>
        <time>2017-05-13T04:22:39Z</time>
      </trkpt>
      <trkpt lat="45.21569" lon="5.98328">
        <ele>1653.4410400391</ele>
        <time>2017-05-13T04:22:41Z</time>
      </trkpt>
      <trkpt lat="45.21567" lon="5.98321">
        <ele>1659.4410400391</ele>
        <time>2017-05-13T04:22:47Z</time>
      </trkpt>
      <trkpt lat="45.21562" lon="5.98316">
        <ele>1657.4410400391</ele>
        <time>2017-05-13T04:22:52Z</time>
      </trkpt>
      <trkpt lat="45.21555" lon="5.98316">
        <ele>1657.4410400391</ele>
        <time>2017-05-13T04:22:57Z</time>
      </trkpt>
      <trkpt lat="45.21553" lon="5.9831">
        <ele>1658.4410400391</ele>
        <time>2017-05-13T04:23:05Z</time>
      </trkpt>
      <trkpt lat="45.2155" lon="5.98305">
        <ele>1654.4410400391</ele>
        <time>2017-05-13T04:23:11Z</time>
      </trkpt>
      <trkpt lat="45.21548" lon="5.98296">
        <ele>1653.4410400391</ele>
        <time>2017-05-13T04:23:15Z</time>
      </trkpt>
      <trkpt lat="45.21545" lon="5.9829">
        <ele>1654.4410400391</ele>
        <time>2017-05-13T04:23:18Z</time>
      </trkpt>
      <trkpt lat="45.21538" lon="5.98287">
        <ele>1655.4410400391</ele>
        <time>2017-05-13T04:23:21Z</time>
      </trkpt>
      <trkpt lat="45.21533" lon="5.98283">
        <ele>1660.4410400391</ele>
        <time>2017-05-13T04:23:25Z</time>
      </trkpt>
      <trkpt lat="45.2153" lon="5.98276">
        <ele>1662.4410400391</ele>
        <time>2017-05-13T04:23:33Z</time>
      </trkpt>
      <trkpt lat="45.21526" lon="5.98279">
        <ele>1665.4410400391</ele>
        <time>2017-05-13T04:23:42Z</time>
      </trkpt>
      <trkpt lat="45.21516" lon="5.98281">
        <ele>1665.4410400391</ele>
        <time>2017-05-13T04:23:58Z</time>
      </trkpt>
      <trkpt lat="45.21512" lon="5.98279">
        <ele>1666.4410400391</ele>
        <time>2017-05-13T04:24:00Z</time>
      </trkpt>
      <trkpt lat="45.21505" lon="5.98279">
        <ele>1666.4410400391</ele>
        <time>2017-05-13T04:24:02Z</time>
      </trkpt>
      <trkpt lat="45.21504" lon="5.98269">
        <ele>1666.4410400391</ele>
        <time>2017-05-13T04:24:05Z</time>
      </trkpt>
      <trkpt lat="45.215" lon="5.98264">
        <ele>1669.4410400391</ele>
        <time>2017-05-13T04:24:11Z</time>
      </trkpt>
      <trkpt lat="45.21495" lon="5.98265">
        <ele>1672.4410400391</ele>
        <time>2017-05-13T04:24:14Z</time>
      </trkpt>
      <trkpt lat="45.21488" lon="5.98267">
        <ele>1676.4410400391</ele>
        <time>2017-05-13T04:24:19Z</time>
      </trkpt>
      <trkpt lat="45.21486" lon="5.98261">
        <ele>1677.4410400391</ele>
        <time>2017-05-13T04:24:24Z</time>
      </trkpt>
      <trkpt lat="45.21481" lon="5.9826">
        <ele>1678.4410400391</ele>
        <time>2017-05-13T04:24:27Z</time>
      </trkpt>
      <trkpt lat="45.21476" lon="5.98259">
        <ele>1676.4410400391</ele>
        <time>2017-05-13T04:25:12Z</time>
      </trkpt>
      <trkpt lat="45.21473" lon="5.98254">
        <ele>1681.4410400391</ele>
        <time>2017-05-13T04:25:18Z</time>
      </trkpt>
      <trkpt lat="45.21468" lon="5.98251">
        <ele>1681.4410400391</ele>
        <time>2017-05-13T04:25:22Z</time>
      </trkpt>
      <trkpt lat="45.21466" lon="5.98245">
        <ele>1680.4399414062</ele>
        <time>2017-05-13T04:25:26Z</time>
      </trkpt>
      <trkpt lat="45.21464" lon="5.98239">
        <ele>1681.4399414062</ele>
        <time>2017-05-13T04:25:30Z</time>
      </trkpt>
      <trkpt lat="45.2146" lon="5.98235">
        <ele>1680.4399414062</ele>
        <time>2017-05-13T04:25:33Z</time>
      </trkpt>
      <trkpt lat="45.21457" lon="5.98228">
        <ele>1681.4399414062</ele>
        <time>2017-05-13T04:25:37Z</time>
      </trkpt>
      <trkpt lat="45.21456" lon="5.9822">
        <ele>1677.4399414062</ele>
        <time>2017-05-13T04:25:42Z</time>
      </trkpt>
      <trkpt lat="45.21453" lon="5.98215">
        <ele>1676.4399414062</ele>
        <time>2017-05-13T04:25:45Z</time>
      </trkpt>
      <trkpt lat="45.21452" lon="5.98207">
        <ele>1683.4399414062</ele>
        <time>2017-05-13T04:25:49Z</time>
      </trkpt>
      <trkpt lat="45.2145" lon="5.98199">
        <ele>1685.4399414062</ele>
        <time>2017-05-13T04:25:55Z</time>
      </trkpt>
      <trkpt lat="45.21446" lon="5.98194">
        <ele>1686.4399414062</ele>
        <time>2017-05-13T04:25:59Z</time>
      </trkpt>
      <trkpt lat="45.21442" lon="5.98191">
        <ele>1685.4399414062</ele>
        <time>2017-05-13T04:26:03Z</time>
      </trkpt>
      <trkpt lat="45.21438" lon="5.98188">
        <ele>1684.4399414062</ele>
        <time>2017-05-13T04:26:09Z</time>
      </trkpt>
      <trkpt lat="45.21435" lon="5.98183">
        <ele>1686.4399414062</ele>
        <time>2017-05-13T04:26:16Z</time>
      </trkpt>
      <trkpt lat="45.21432" lon="5.98177">
        <ele>1689.4399414062</ele>
        <time>2017-05-13T04:26:26Z</time>
      </trkpt>
      <trkpt lat="45.21428" lon="5.98174">
        <ele>1690.4399414062</ele>
        <time>2017-05-13T04:26:32Z</time>
      </trkpt>
      <trkpt lat="45.21423" lon="5.9817">
        <ele>1694.4399414062</ele>
        <time>2017-05-13T04:26:38Z</time>
      </trkpt>
      <trkpt lat="45.21418" lon="5.98168">
        <ele>1694.4399414062</ele>
        <time>2017-05-13T04:26:47Z</time>
      </trkpt>
      <trkpt lat="45.21416" lon="5.98161">
        <ele>1696.4399414062</ele>
        <time>2017-05-13T04:27:40Z</time>
      </trkpt>
      <trkpt lat="45.21414" lon="5.98155">
        <ele>1698.4399414062</ele>
        <time>2017-05-13T04:27:44Z</time>
      </trkpt>
      <trkpt lat="45.2141" lon="5.98149">
        <ele>1700.4399414062</ele>
        <time>2017-05-13T04:27:49Z</time>
      </trkpt>
      <trkpt lat="45.21406" lon="5.98145">
        <ele>1701.4399414062</ele>
        <time>2017-05-13T04:27:54Z</time>
      </trkpt>
      <trkpt lat="45.214" lon="5.98143">
        <ele>1702.4399414062</ele>
        <time>2017-05-13T04:27:59Z</time>
      </trkpt>
      <trkpt lat="45.21396" lon="5.98139">
        <ele>1704.4399414062</ele>
        <time>2017-05-13T04:28:06Z</time>
      </trkpt>
      <trkpt lat="45.21395" lon="5.98132">
        <ele>1703.4399414062</ele>
        <time>2017-05-13T04:28:14Z</time>
      </trkpt>
      <trkpt lat="45.21392" lon="5.98127">
        <ele>1702.4399414062</ele>
        <time>2017-05-13T04:28:19Z</time>
      </trkpt>
      <trkpt lat="45.21388" lon="5.98124">
        <ele>1704.4399414062</ele>
        <time>2017-05-13T04:28:37Z</time>
      </trkpt>
      <trkpt lat="45.21387" lon="5.98117">
        <ele>1710.4399414062</ele>
        <time>2017-05-13T04:28:45Z</time>
      </trkpt>
      <trkpt lat="45.21384" lon="5.98112">
        <ele>1709.4399414062</ele>
        <time>2017-05-13T04:28:51Z</time>
      </trkpt>
      <trkpt lat="45.21379" lon="5.98113">
        <ele>1712.4399414062</ele>
        <time>2017-05-13T04:29:08Z</time>
      </trkpt>
      <trkpt lat="45.21375" lon="5.9811">
        <ele>1716.4399414062</ele>
        <time>2017-05-13T04:29:21Z</time>
      </trkpt>
      <trkpt lat="45.2137" lon="5.98113">
        <ele>1716.4399414062</ele>
        <time>2017-05-13T04:29:33Z</time>
      </trkpt>
      <trkpt lat="45.21365" lon="5.98118">
        <ele>1716.4399414062</ele>
        <time>2017-05-13T04:29:38Z</time>
      </trkpt>
      <trkpt lat="45.21362" lon="5.98123">
        <ele>1715.4399414062</ele>
        <time>2017-05-13T04:29:45Z</time>
      </trkpt>
      <trkpt lat="45.2136" lon="5.98129">
        <ele>1718.4399414062</ele>
        <time>2017-05-13T04:29:50Z</time>
      </trkpt>
      <trkpt lat="45.21358" lon="5.98135">
        <ele>1719.4399414062</ele>
        <time>2017-05-13T04:29:54Z</time>
      </trkpt>
      <trkpt lat="45.21356" lon="5.9814">
        <ele>1721.4399414062</ele>
        <time>2017-05-13T04:29:59Z</time>
      </trkpt>
      <trkpt lat="45.21354" lon="5.98147">
        <ele>1722.4399414062</ele>
        <time>2017-05-13T04:30:04Z</time>
      </trkpt>
      <trkpt lat="45.21353" lon="5.98154">
        <ele>1721.4399414062</ele>
        <time>2017-05-13T04:30:08Z</time>
      </trkpt>
      <trkpt lat="45.2135" lon="5.98158">
        <ele>1722.4399414062</ele>
        <time>2017-05-13T04:30:13Z</time>
      </trkpt>
      <trkpt lat="45.21346" lon="5.98163">
        <ele>1721.4399414062</ele>
        <time>2017-05-13T04:30:17Z</time>
      </trkpt>
      <trkpt lat="45.21344" lon="5.98171">
        <ele>1722.4399414062</ele>
        <time>2017-05-13T04:30:21Z</time>
      </trkpt>
      <trkpt lat="45.21342" lon="5.98177">
        <ele>1723.4399414062</ele>
        <time>2017-05-13T04:30:25Z</time>
      </trkpt>
      <trkpt lat="45.2134" lon="5.98183">
        <ele>1725.4399414062</ele>
        <time>2017-05-13T04:30:32Z</time>
      </trkpt>
      <trkpt lat="45.21336" lon="5.98188">
        <ele>1726.4399414062</ele>
        <time>2017-05-13T04:30:38Z</time>
      </trkpt>
      <trkpt lat="45.21332" lon="5.98193">
        <ele>1726.4399414062</ele>
        <time>2017-05-13T04:30:44Z</time>
      </trkpt>
      <trkpt lat="45.21329" lon="5.98198">
        <ele>1727.4399414062</ele>
        <time>2017-05-13T04:30:48Z</time>
      </trkpt>
      <trkpt lat="45.21326" lon="5.98204">
        <ele>1729.4399414062</ele>
        <time>2017-05-13T04:30:53Z</time>
      </trkpt>
      <trkpt lat="45.21321" lon="5.9821">
        <ele>1730.4399414062</ele>
        <time>2017-05-13T04:31:03Z</time>
      </trkpt>
      <trkpt lat="45.21317" lon="5.98215">
        <ele>1729.4399414062</ele>
        <time>2017-05-13T04:31:08Z</time>
      </trkpt>
      <trkpt lat="45.21314" lon="5.9822">
        <ele>1729.4399414062</ele>
        <time>2017-05-13T04:31:12Z</time>
      </trkpt>
      <trkpt lat="45.2131" lon="5.98226">
        <ele>1730.4399414062</ele>
        <time>2017-05-13T04:31:17Z</time>
      </trkpt>
      <trkpt lat="45.21307" lon="5.98231">
        <ele>1730.4399414062</ele>
        <time>2017-05-13T04:31:22Z</time>
      </trkpt>
      <trkpt lat="45.21304" lon="5.98237">
        <ele>1731.4399414062</ele>
        <time>2017-05-13T04:31:28Z</time>
      </trkpt>
      <trkpt lat="45.21301" lon="5.98241">
        <ele>1730.4399414062</ele>
        <time>2017-05-13T04:31:34Z</time>
      </trkpt>
      <trkpt lat="45.21296" lon="5.98246">
        <ele>1730.4399414062</ele>
        <time>2017-05-13T04:31:39Z</time>
      </trkpt>
      <trkpt lat="45.21292" lon="5.9825">
        <ele>1730.4399414062</ele>
        <time>2017-05-13T04:31:44Z</time>
      </trkpt>
      <trkpt lat="45.21289" lon="5.98257">
        <ele>1732.4399414062</ele>
        <time>2017-05-13T04:31:50Z</time>
      </trkpt>
      <trkpt lat="45.21286" lon="5.98262">
        <ele>1732.4399414062</ele>
        <time>2017-05-13T04:31:55Z</time>
      </trkpt>
      <trkpt lat="45.21282" lon="5.98267">
        <ele>1731.4399414062</ele>
        <time>2017-05-13T04:31:59Z</time>
      </trkpt>
      <trkpt lat="45.21279" lon="5.98272">
        <ele>1733.4399414062</ele>
        <time>2017-05-13T04:32:04Z</time>
      </trkpt>
      <trkpt lat="45.21276" lon="5.98278">
        <ele>1735.4399414062</ele>
        <time>2017-05-13T04:32:08Z</time>
      </trkpt>
      <trkpt lat="45.21271" lon="5.98284">
        <ele>1737.4399414062</ele>
        <time>2017-05-13T04:32:20Z</time>
      </trkpt>
      <trkpt lat="45.21269" lon="5.9829">
        <ele>1737.4399414062</ele>
        <time>2017-05-13T04:32:25Z</time>
      </trkpt>
      <trkpt lat="45.21267" lon="5.98296">
        <ele>1739.4399414062</ele>
        <time>2017-05-13T04:32:29Z</time>
      </trkpt>
      <trkpt lat="45.21263" lon="5.98301">
        <ele>1738.4399414062</ele>
        <time>2017-05-13T04:32:34Z</time>
      </trkpt>
      <trkpt lat="45.21261" lon="5.98307">
        <ele>1739.4399414062</ele>
        <time>2017-05-13T04:32:38Z</time>
      </trkpt>
      <trkpt lat="45.2126" lon="5.98313">
        <ele>1740.4399414062</ele>
        <time>2017-05-13T04:32:43Z</time>
      </trkpt>
      <trkpt lat="45.21258" lon="5.9832">
        <ele>1741.4399414062</ele>
        <time>2017-05-13T04:32:48Z</time>
      </trkpt>
      <trkpt lat="45.21254" lon="5.98325">
        <ele>1741.4399414062</ele>
        <time>2017-05-13T04:32:54Z</time>
      </trkpt>
      <trkpt lat="45.21251" lon="5.98331">
        <ele>1743.4399414062</ele>
        <time>2017-05-13T04:32:58Z</time>
      </trkpt>
      <trkpt lat="45.21247" lon="5.98335">
        <ele>1742.4399414062</ele>
        <time>2017-05-13T04:33:03Z</time>
      </trkpt>
      <trkpt lat="45.21245" lon="5.98342">
        <ele>1742.4399414062</ele>
        <time>2017-05-13T04:33:10Z</time>
      </trkpt>
      <trkpt lat="45.21242" lon="5.98347">
        <ele>1742.4399414062</ele>
        <time>2017-05-13T04:33:15Z</time>
      </trkpt>
      <trkpt lat="45.2124" lon="5.98353">
        <ele>1743.4399414062</ele>
        <time>2017-05-13T04:33:21Z</time>
      </trkpt>
      <trkpt lat="45.21239" lon="5.9836">
        <ele>1743.4399414062</ele>
        <time>2017-05-13T04:33:25Z</time>
      </trkpt>
      <trkpt lat="45.21235" lon="5.98367">
        <ele>1745.4399414062</ele>
        <time>2017-05-13T04:33:29Z</time>
      </trkpt>
      <trkpt lat="45.21231" lon="5.98374">
        <ele>1743.4399414062</ele>
        <time>2017-05-13T04:33:33Z</time>
      </trkpt>
      <trkpt lat="45.21229" lon="5.9838">
        <ele>1744.4399414062</ele>
        <time>2017-05-13T04:33:36Z</time>
      </trkpt>
      <trkpt lat="45.21227" lon="5.98388">
        <ele>1744.4399414062</ele>
        <time>2017-05-13T04:33:40Z</time>
      </trkpt>
      <trkpt lat="45.21227" lon="5.98395">
        <ele>1746.4399414062</ele>
        <time>2017-05-13T04:33:44Z</time>
      </trkpt>
      <trkpt lat="45.21227" lon="5.98402">
        <ele>1746.4399414062</ele>
        <time>2017-05-13T04:33:48Z</time>
      </trkpt>
      <trkpt lat="45.21228" lon="5.98408">
        <ele>1748.4399414062</ele>
        <time>2017-05-13T04:33:51Z</time>
      </trkpt>
      <trkpt lat="45.21228" lon="5.98415">
        <ele>1749.4399414062</ele>
        <time>2017-05-13T04:33:56Z</time>
      </trkpt>
      <trkpt lat="45.21228" lon="5.98422">
        <ele>1750.4399414062</ele>
        <time>2017-05-13T04:34:00Z</time>
      </trkpt>
      <trkpt lat="45.21225" lon="5.98428">
        <ele>1751.4399414062</ele>
        <time>2017-05-13T04:34:05Z</time>
      </trkpt>
      <trkpt lat="45.21221" lon="5.98434">
        <ele>1750.4399414062</ele>
        <time>2017-05-13T04:34:10Z</time>
      </trkpt>
      <trkpt lat="45.21218" lon="5.98439">
        <ele>1752.4399414062</ele>
        <time>2017-05-13T04:34:15Z</time>
      </trkpt>
      <trkpt lat="45.21215" lon="5.98446">
        <ele>1753.4399414062</ele>
        <time>2017-05-13T04:34:20Z</time>
      </trkpt>
      <trkpt lat="45.21212" lon="5.98451">
        <ele>1752.4399414062</ele>
        <time>2017-05-13T04:34:28Z</time>
      </trkpt>
      <trkpt lat="45.2121" lon="5.98456">
        <ele>1750.4399414062</ele>
        <time>2017-05-13T04:34:36Z</time>
      </trkpt>
      <trkpt lat="45.21211" lon="5.98463">
        <ele>1750.4399414062</ele>
        <time>2017-05-13T04:34:45Z</time>
      </trkpt>
      <trkpt lat="45.21213" lon="5.98469">
        <ele>1751.4399414062</ele>
        <time>2017-05-13T04:34:52Z</time>
      </trkpt>
      <trkpt lat="45.21216" lon="5.98475">
        <ele>1752.4399414062</ele>
        <time>2017-05-13T04:34:57Z</time>
      </trkpt>
      <trkpt lat="45.21218" lon="5.98481">
        <ele>1753.4399414062</ele>
        <time>2017-05-13T04:35:08Z</time>
      </trkpt>
      <trkpt lat="45.2122" lon="5.98489">
        <ele>1756.4399414062</ele>
        <time>2017-05-13T04:35:17Z</time>
      </trkpt>
      <trkpt lat="45.21219" lon="5.98495">
        <ele>1756.4399414062</ele>
        <time>2017-05-13T04:35:27Z</time>
      </trkpt>
      <trkpt lat="45.21219" lon="5.98501">
        <ele>1757.4399414062</ele>
        <time>2017-05-13T04:35:33Z</time>
      </trkpt>
      <trkpt lat="45.2122" lon="5.98508">
        <ele>1756.4399414062</ele>
        <time>2017-05-13T04:35:40Z</time>
      </trkpt>
      <trkpt lat="45.21223" lon="5.98514">
        <ele>1758.4399414062</ele>
        <time>2017-05-13T04:35:48Z</time>
      </trkpt>
      <trkpt lat="45.21228" lon="5.98519">
        <ele>1764.4399414062</ele>
        <time>2017-05-13T04:35:53Z</time>
      </trkpt>
      <trkpt lat="45.2123" lon="5.98525">
        <ele>1764.4399414062</ele>
        <time>2017-05-13T04:36:00Z</time>
      </trkpt>
      <trkpt lat="45.21228" lon="5.98532">
        <ele>1763.4399414062</ele>
        <time>2017-05-13T04:36:07Z</time>
      </trkpt>
      <trkpt lat="45.21227" lon="5.98539">
        <ele>1765.4399414062</ele>
        <time>2017-05-13T04:36:13Z</time>
      </trkpt>
      <trkpt lat="45.21226" lon="5.98547">
        <ele>1766.4399414062</ele>
        <time>2017-05-13T04:36:18Z</time>
      </trkpt>
      <trkpt lat="45.21226" lon="5.98553">
        <ele>1768.4399414062</ele>
        <time>2017-05-13T04:36:23Z</time>
      </trkpt>
      <trkpt lat="45.21228" lon="5.9856">
        <ele>1770.4399414062</ele>
        <time>2017-05-13T04:36:29Z</time>
      </trkpt>
      <trkpt lat="45.21227" lon="5.98566">
        <ele>1771.4399414062</ele>
        <time>2017-05-13T04:36:35Z</time>
      </trkpt>
      <trkpt lat="45.21224" lon="5.98572">
        <ele>1769.4399414062</ele>
        <time>2017-05-13T04:36:41Z</time>
      </trkpt>
      <trkpt lat="45.21225" lon="5.98579">
        <ele>1773.4399414062</ele>
        <time>2017-05-13T04:36:46Z</time>
      </trkpt>
      <trkpt lat="45.21223" lon="5.98585">
        <ele>1776.4399414062</ele>
        <time>2017-05-13T04:36:54Z</time>
      </trkpt>
      <trkpt lat="45.2122" lon="5.9859">
        <ele>1774.4399414062</ele>
        <time>2017-05-13T04:36:58Z</time>
      </trkpt>
      <trkpt lat="45.21214" lon="5.98594">
        <ele>1773.4399414062</ele>
        <time>2017-05-13T04:37:04Z</time>
      </trkpt>
      <trkpt lat="45.21211" lon="5.986">
        <ele>1775.4399414062</ele>
        <time>2017-05-13T04:37:14Z</time>
      </trkpt>
      <trkpt lat="45.21207" lon="5.98603">
        <ele>1775.4399414062</ele>
        <time>2017-05-13T04:37:24Z</time>
      </trkpt>
      <trkpt lat="45.21201" lon="5.98603">
        <ele>1774.4399414062</ele>
        <time>2017-05-13T04:37:39Z</time>
      </trkpt>
      <trkpt lat="45.21196" lon="5.98603">
        <ele>1773.4399414062</ele>
        <time>2017-05-13T04:37:42Z</time>
      </trkpt>
      <trkpt lat="45.21191" lon="5.98604">
        <ele>1772.4399414062</ele>
        <time>2017-05-13T04:37:46Z</time>
      </trkpt>
      <trkpt lat="45.21185" lon="5.98608">
        <ele>1775.4399414062</ele>
        <time>2017-05-13T04:38:02Z</time>
      </trkpt>
      <trkpt lat="45.21182" lon="5.98612">
        <ele>1773.4399414062</ele>
        <time>2017-05-13T04:38:05Z</time>
      </trkpt>
      <trkpt lat="45.21177" lon="5.98617">
        <ele>1775.4399414062</ele>
        <time>2017-05-13T04:38:10Z</time>
      </trkpt>
      <trkpt lat="45.21173" lon="5.98615">
        <ele>1776.4399414062</ele>
        <time>2017-05-13T04:38:17Z</time>
      </trkpt>
      <trkpt lat="45.21169" lon="5.98619">
        <ele>1779.4399414062</ele>
        <time>2017-05-13T04:38:22Z</time>
      </trkpt>
      <trkpt lat="45.21167" lon="5.98613">
        <ele>1778.4399414062</ele>
        <time>2017-05-13T04:38:40Z</time>
      </trkpt>
      <trkpt lat="45.21164" lon="5.98617">
        <ele>1784.4399414062</ele>
        <time>2017-05-13T04:38:58Z</time>
      </trkpt>
      <trkpt lat="45.21159" lon="5.98619">
        <ele>1785.4399414062</ele>
        <time>2017-05-13T04:39:15Z</time>
      </trkpt>
      <trkpt lat="45.21157" lon="5.98625">
        <ele>1788.4399414062</ele>
        <time>2017-05-13T04:39:25Z</time>
      </trkpt>
      <trkpt lat="45.21154" lon="5.98631">
        <ele>1791.4399414062</ele>
        <time>2017-05-13T04:39:38Z</time>
      </trkpt>
      <trkpt lat="45.21151" lon="5.98637">
        <ele>1792.4399414062</ele>
        <time>2017-05-13T04:39:46Z</time>
      </trkpt>
      <trkpt lat="45.21148" lon="5.98632">
        <ele>1796.4399414062</ele>
        <time>2017-05-13T04:40:01Z</time>
      </trkpt>
      <trkpt lat="45.21146" lon="5.98626">
        <ele>1800.4399414062</ele>
        <time>2017-05-13T04:40:17Z</time>
      </trkpt>
      <trkpt lat="45.21143" lon="5.98631">
        <ele>1805.4399414062</ele>
        <time>2017-05-13T04:40:36Z</time>
      </trkpt>
      <trkpt lat="45.21139" lon="5.98626">
        <ele>1807.4399414062</ele>
        <time>2017-05-13T04:41:12Z</time>
      </trkpt>
      <trkpt lat="45.21137" lon="5.98621">
        <ele>1809.4399414062</ele>
        <time>2017-05-13T04:41:22Z</time>
      </trkpt>
      <trkpt lat="45.21131" lon="5.98619">
        <ele>1808.4399414062</ele>
        <time>2017-05-13T04:41:45Z</time>
      </trkpt>
      <trkpt lat="45.21132" lon="5.98626">
        <ele>1814.4399414062</ele>
        <time>2017-05-13T04:42:00Z</time>
      </trkpt>
      <trkpt lat="45.2113" lon="5.9862">
        <ele>1816.4399414062</ele>
        <time>2017-05-13T04:42:35Z</time>
      </trkpt>
      <trkpt lat="45.21128" lon="5.98614">
        <ele>1820.4399414062</ele>
        <time>2017-05-13T04:42:43Z</time>
      </trkpt>
      <trkpt lat="45.21124" lon="5.98611">
        <ele>1823.4399414062</ele>
        <time>2017-05-13T04:43:07Z</time>
      </trkpt>
      <trkpt lat="45.21121" lon="5.98604">
        <ele>1824.4399414062</ele>
        <time>2017-05-13T04:43:15Z</time>
      </trkpt>
      <trkpt lat="45.21116" lon="5.98607">
        <ele>1825.4399414062</ele>
        <time>2017-05-13T04:43:29Z</time>
      </trkpt>
      <trkpt lat="45.21114" lon="5.98601">
        <ele>1819.4399414062</ele>
        <time>2017-05-13T04:43:47Z</time>
      </trkpt>
      <trkpt lat="45.2111" lon="5.98597">
        <ele>1825.4399414062</ele>
        <time>2017-05-13T04:44:25Z</time>
      </trkpt>
      <trkpt lat="45.21107" lon="5.98592">
        <ele>1839.4399414062</ele>
        <time>2017-05-13T04:45:59Z</time>
      </trkpt>
      <trkpt lat="45.21106" lon="5.98586">
        <ele>1838.4399414062</ele>
        <time>2017-05-13T04:46:44Z</time>
      </trkpt>
      <trkpt lat="45.21103" lon="5.9858">
        <ele>1834.4399414062</ele>
        <time>2017-05-13T04:47:55Z</time>
      </trkpt>
      <trkpt lat="45.21102" lon="5.98573">
        <ele>1834.4399414062</ele>
        <time>2017-05-13T04:48:39Z</time>
      </trkpt>
      <trkpt lat="45.211" lon="5.98568">
        <ele>1833.4399414062</ele>
        <time>2017-05-13T04:49:10Z</time>
      </trkpt>
      <trkpt lat="45.21095" lon="5.9857">
        <ele>1835.4399414062</ele>
        <time>2017-05-13T04:49:34Z</time>
      </trkpt>
      <trkpt lat="45.21094" lon="5.98562">
        <ele>1839.4399414062</ele>
        <time>2017-05-13T04:50:26Z</time>
      </trkpt>
      <trkpt lat="45.21089" lon="5.98564">
        <ele>1849.4399414062</ele>
        <time>2017-05-13T04:50:34Z</time>
      </trkpt>
      <trkpt lat="45.21085" lon="5.98565">
        <ele>1852.4399414062</ele>
        <time>2017-05-13T04:50:47Z</time>
      </trkpt>
      <trkpt lat="45.2108" lon="5.98568">
        <ele>1853.4399414062</ele>
        <time>2017-05-13T04:50:59Z</time>
      </trkpt>
      <trkpt lat="45.21076" lon="5.98566">
        <ele>1853.4399414062</ele>
        <time>2017-05-13T04:51:24Z</time>
      </trkpt>
      <trkpt lat="45.21071" lon="5.98567">
        <ele>1861.4399414062</ele>
        <time>2017-05-13T04:51:50Z</time>
      </trkpt>
      <trkpt lat="45.21068" lon="5.98572">
        <ele>1864.4399414062</ele>
        <time>2017-05-13T04:52:02Z</time>
      </trkpt>
      <trkpt lat="45.21065" lon="5.98578">
        <ele>1869.4399414062</ele>
        <time>2017-05-13T04:52:12Z</time>
      </trkpt>
      <trkpt lat="45.21064" lon="5.98584">
        <ele>1872.4399414062</ele>
        <time>2017-05-13T04:52:21Z</time>
      </trkpt>
      <trkpt lat="45.21061" lon="5.98589">
        <ele>1874.4399414062</ele>
        <time>2017-05-13T04:52:29Z</time>
      </trkpt>
      <trkpt lat="45.21059" lon="5.98596">
        <ele>1877.4399414062</ele>
        <time>2017-05-13T04:52:41Z</time>
      </trkpt>
      <trkpt lat="45.21057" lon="5.98602">
        <ele>1879.4399414062</ele>
        <time>2017-05-13T04:52:57Z</time>
      </trkpt>
      <trkpt lat="45.21056" lon="5.98608">
        <ele>1882.4399414062</ele>
        <time>2017-05-13T04:53:07Z</time>
      </trkpt>
      <trkpt lat="45.21053" lon="5.98615">
        <ele>1886.4399414062</ele>
        <time>2017-05-13T04:53:20Z</time>
      </trkpt>
      <trkpt lat="45.21053" lon="5.98608">
        <ele>1884.4399414062</ele>
        <time>2017-05-13T04:53:32Z</time>
      </trkpt>
      <trkpt lat="45.21051" lon="5.98602">
        <ele>1882.4399414062</ele>
        <time>2017-05-13T04:53:38Z</time>
      </trkpt>
      <trkpt lat="45.21046" lon="5.98599">
        <ele>1887.4399414062</ele>
        <time>2017-05-13T04:53:49Z</time>
      </trkpt>
      <trkpt lat="45.21042" lon="5.98595">
        <ele>1885.4399414062</ele>
        <time>2017-05-13T04:54:02Z</time>
      </trkpt>
      <trkpt lat="45.21042" lon="5.98601">
        <ele>1893.4399414062</ele>
        <time>2017-05-13T04:54:17Z</time>
      </trkpt>
      <trkpt lat="45.21039" lon="5.98607">
        <ele>1892.4399414062</ele>
        <time>2017-05-13T04:54:24Z</time>
      </trkpt>
      <trkpt lat="45.21041" lon="5.98614">
        <ele>1895.4399414062</ele>
        <time>2017-05-13T04:54:35Z</time>
      </trkpt>
      <trkpt lat="45.21043" lon="5.98621">
        <ele>1899.4399414062</ele>
        <time>2017-05-13T04:54:44Z</time>
      </trkpt>
      <trkpt lat="45.21042" lon="5.98628">
        <ele>1897.4399414062</ele>
        <time>2017-05-13T04:54:53Z</time>
      </trkpt>
      <trkpt lat="45.2104" lon="5.98635">
        <ele>1899.4399414062</ele>
        <time>2017-05-13T04:55:02Z</time>
      </trkpt>
      <trkpt lat="45.21035" lon="5.98636">
        <ele>1900.4399414062</ele>
        <time>2017-05-13T04:55:10Z</time>
      </trkpt>
      <trkpt lat="45.2103" lon="5.98637">
        <ele>1900.4399414062</ele>
        <time>2017-05-13T04:55:17Z</time>
      </trkpt>
      <trkpt lat="45.21025" lon="5.98637">
        <ele>1899.4399414062</ele>
        <time>2017-05-13T04:55:25Z</time>
      </trkpt>
      <trkpt lat="45.21022" lon="5.98642">
        <ele>1904.4399414062</ele>
        <time>2017-05-13T04:55:44Z</time>
      </trkpt>
      <trkpt lat="45.21017" lon="5.98643">
        <ele>1904.4399414062</ele>
        <time>2017-05-13T04:55:48Z</time>
      </trkpt>
      <trkpt lat="45.21012" lon="5.98647">
        <ele>1905.4399414062</ele>
        <time>2017-05-13T04:55:53Z</time>
      </trkpt>
      <trkpt lat="45.21008" lon="5.98652">
        <ele>1908.4399414062</ele>
        <time>2017-05-13T04:55:58Z</time>
      </trkpt>
      <trkpt lat="45.21006" lon="5.98658">
        <ele>1908.4399414062</ele>
        <time>2017-05-13T04:56:07Z</time>
      </trkpt>
      <trkpt lat="45.21003" lon="5.98663">
        <ele>1911.4399414062</ele>
        <time>2017-05-13T04:56:22Z</time>
      </trkpt>
      <trkpt lat="45.20999" lon="5.98668">
        <ele>1910.4399414062</ele>
        <time>2017-05-13T04:56:28Z</time>
      </trkpt>
      <trkpt lat="45.20998" lon="5.98675">
        <ele>1912.4399414062</ele>
        <time>2017-05-13T04:56:33Z</time>
      </trkpt>
      <trkpt lat="45.20998" lon="5.98682">
        <ele>1915.4399414062</ele>
        <time>2017-05-13T04:56:40Z</time>
      </trkpt>
      <trkpt lat="45.20993" lon="5.98681">
        <ele>1912.4399414062</ele>
        <time>2017-05-13T04:56:46Z</time>
      </trkpt>
      <trkpt lat="45.20989" lon="5.98687">
        <ele>1917.4399414062</ele>
        <time>2017-05-13T04:57:27Z</time>
      </trkpt>
      <trkpt lat="45.2099" lon="5.98695">
        <ele>1919.4399414062</ele>
        <time>2017-05-13T04:57:35Z</time>
      </trkpt>
      <trkpt lat="45.20987" lon="5.987">
        <ele>1921.4399414062</ele>
        <time>2017-05-13T04:57:42Z</time>
      </trkpt>
      <trkpt lat="45.20986" lon="5.98707">
        <ele>1922.4399414062</ele>
        <time>2017-05-13T04:57:50Z</time>
      </trkpt>
      <trkpt lat="45.20989" lon="5.98714">
        <ele>1924.4399414062</ele>
        <time>2017-05-13T04:58:00Z</time>
      </trkpt>
      <trkpt lat="45.20988" lon="5.98721">
        <ele>1927.4399414062</ele>
        <time>2017-05-13T04:58:09Z</time>
      </trkpt>
      <trkpt lat="45.20984" lon="5.98724">
        <ele>1929.4399414062</ele>
        <time>2017-05-13T04:58:22Z</time>
      </trkpt>
      <trkpt lat="45.20979" lon="5.98725">
        <ele>1934.4399414062</ele>
        <time>2017-05-13T04:58:37Z</time>
      </trkpt>
      <trkpt lat="45.20977" lon="5.9873">
        <ele>1937.4399414062</ele>
        <time>2017-05-13T04:58:42Z</time>
      </trkpt>
      <trkpt lat="45.20973" lon="5.98734">
        <ele>1935.4399414062</ele>
        <time>2017-05-13T04:58:54Z</time>
      </trkpt>
      <trkpt lat="45.20976" lon="5.98738">
        <ele>1935.4399414062</ele>
        <time>2017-05-13T04:58:59Z</time>
      </trkpt>
      <trkpt lat="45.20974" lon="5.98745">
        <ele>1933.4399414062</ele>
        <time>2017-05-13T04:59:11Z</time>
      </trkpt>
      <trkpt lat="45.20969" lon="5.98748">
        <ele>1929.4399414062</ele>
        <time>2017-05-13T04:59:17Z</time>
      </trkpt>
      <trkpt lat="45.20967" lon="5.98754">
        <ele>1929.4399414062</ele>
        <time>2017-05-13T05:00:03Z</time>
      </trkpt>
      <trkpt lat="45.20966" lon="5.98762">
        <ele>1931.4399414062</ele>
        <time>2017-05-13T05:00:26Z</time>
      </trkpt>
      <trkpt lat="45.20967" lon="5.98769">
        <ele>1931.4399414062</ele>
        <time>2017-05-13T05:00:38Z</time>
      </trkpt>
      <trkpt lat="45.20964" lon="5.98774">
        <ele>1931.4399414062</ele>
        <time>2017-05-13T05:00:52Z</time>
      </trkpt>
      <trkpt lat="45.20959" lon="5.98776">
        <ele>1932.4399414062</ele>
        <time>2017-05-13T05:00:57Z</time>
      </trkpt>
      <trkpt lat="45.20954" lon="5.98779">
        <ele>1932.4399414062</ele>
        <time>2017-05-13T05:01:11Z</time>
      </trkpt>
      <trkpt lat="45.20949" lon="5.98781">
        <ele>1934.4399414062</ele>
        <time>2017-05-13T05:01:18Z</time>
      </trkpt>
      <trkpt lat="45.20946" lon="5.98785">
        <ele>1932.4399414062</ele>
        <time>2017-05-13T05:01:29Z</time>
      </trkpt>
      <trkpt lat="45.20948" lon="5.98791">
        <ele>1933.4399414062</ele>
        <time>2017-05-13T05:01:39Z</time>
      </trkpt>
      <trkpt lat="45.20949" lon="5.98798">
        <ele>1936.4399414062</ele>
        <time>2017-05-13T05:01:47Z</time>
      </trkpt>
      <trkpt lat="45.20953" lon="5.98803">
        <ele>1939.4399414062</ele>
        <time>2017-05-13T05:01:53Z</time>
      </trkpt>
      <trkpt lat="45.20957" lon="5.98808">
        <ele>1940.4399414062</ele>
        <time>2017-05-13T05:02:00Z</time>
      </trkpt>
      <trkpt lat="45.20958" lon="5.98814">
        <ele>1941.4399414062</ele>
        <time>2017-05-13T05:02:07Z</time>
      </trkpt>
      <trkpt lat="45.20955" lon="5.9882">
        <ele>1941.4399414062</ele>
        <time>2017-05-13T05:02:15Z</time>
      </trkpt>
      <trkpt lat="45.20957" lon="5.98826">
        <ele>1941.4399414062</ele>
        <time>2017-05-13T05:02:24Z</time>
      </trkpt>
      <trkpt lat="45.2096" lon="5.98832">
        <ele>1942.4399414062</ele>
        <time>2017-05-13T05:02:42Z</time>
      </trkpt>
      <trkpt lat="45.20963" lon="5.98839">
        <ele>1940.4399414062</ele>
        <time>2017-05-13T05:02:49Z</time>
      </trkpt>
      <trkpt lat="45.20966" lon="5.98843">
        <ele>1942.4399414062</ele>
        <time>2017-05-13T05:02:56Z</time>
      </trkpt>
      <trkpt lat="45.20963" lon="5.98847">
        <ele>1936.4399414062</ele>
        <time>2017-05-13T05:03:29Z</time>
      </trkpt>
      <trkpt lat="45.20965" lon="5.98854">
        <ele>1935.4399414062</ele>
        <time>2017-05-13T05:03:35Z</time>
      </trkpt>
      <trkpt lat="45.20969" lon="5.98862">
        <ele>1933.4399414062</ele>
        <time>2017-05-13T05:03:37Z</time>
      </trkpt>
      <trkpt lat="45.20972" lon="5.98871">
        <ele>1933.4399414062</ele>
        <time>2017-05-13T05:03:39Z</time>
      </trkpt>
      <trkpt lat="45.20973" lon="5.98879">
        <ele>1932.4399414062</ele>
        <time>2017-05-13T05:03:41Z</time>
      </trkpt>
      <trkpt lat="45.20974" lon="5.98887">
        <ele>1933.4399414062</ele>
        <time>2017-05-13T05:03:54Z</time>
      </trkpt>
      <trkpt lat="45.2097" lon="5.98891">
        <ele>1935.4399414062</ele>
        <time>2017-05-13T05:03:57Z</time>
      </trkpt>
      <trkpt lat="45.2097" lon="5.98899">
        <ele>1929.4399414062</ele>
        <time>2017-05-13T05:04:03Z</time>
      </trkpt>
      <trkpt lat="45.2097" lon="5.98906">
        <ele>1932.4399414062</ele>
        <time>2017-05-13T05:04:08Z</time>
      </trkpt>
      <trkpt lat="45.20965" lon="5.98906">
        <ele>1929.4399414062</ele>
        <time>2017-05-13T05:04:29Z</time>
      </trkpt>
      <trkpt lat="45.20961" lon="5.98907">
        <ele>1929.4399414062</ele>
        <time>2017-05-13T05:05:00Z</time>
      </trkpt>
      <trkpt lat="45.20956" lon="5.98904">
        <ele>1920.4399414062</ele>
        <time>2017-05-13T05:05:12Z</time>
      </trkpt>
      <trkpt lat="45.20951" lon="5.98905">
        <ele>1921.4399414062</ele>
        <time>2017-05-13T05:05:15Z</time>
      </trkpt>
      <trkpt lat="45.20946" lon="5.98905">
        <ele>1919.4399414062</ele>
        <time>2017-05-13T05:05:18Z</time>
      </trkpt>
      <trkpt lat="45.20939" lon="5.98906">
        <ele>1918.4399414062</ele>
        <time>2017-05-13T05:05:23Z</time>
      </trkpt>
      <trkpt lat="45.20935" lon="5.98906">
        <ele>1920.4399414062</ele>
        <time>2017-05-13T05:05:27Z</time>
      </trkpt>
      <trkpt lat="45.2093" lon="5.98905">
        <ele>1918.4399414062</ele>
        <time>2017-05-13T05:05:30Z</time>
      </trkpt>
      <trkpt lat="45.20925" lon="5.98907">
        <ele>1919.4399414062</ele>
        <time>2017-05-13T05:05:34Z</time>
      </trkpt>
      <trkpt lat="45.2092" lon="5.98905">
        <ele>1917.4399414062</ele>
        <time>2017-05-13T05:05:38Z</time>
      </trkpt>
      <trkpt lat="45.20916" lon="5.98908">
        <ele>1918.4399414062</ele>
        <time>2017-05-13T05:05:42Z</time>
      </trkpt>
      <trkpt lat="45.20912" lon="5.9891">
        <ele>1917.4399414062</ele>
        <time>2017-05-13T05:05:45Z</time>
      </trkpt>
      <trkpt lat="45.20907" lon="5.98913">
        <ele>1919.4399414062</ele>
        <time>2017-05-13T05:05:56Z</time>
      </trkpt>
      <trkpt lat="45.20901" lon="5.98912">
        <ele>1922.4399414062</ele>
        <time>2017-05-13T05:06:13Z</time>
      </trkpt>
      <trkpt lat="45.20894" lon="5.98912">
        <ele>1920.4399414062</ele>
        <time>2017-05-13T05:06:21Z</time>
      </trkpt>
      <trkpt lat="45.20888" lon="5.98914">
        <ele>1920.4399414062</ele>
        <time>2017-05-13T05:06:28Z</time>
      </trkpt>
      <trkpt lat="45.20884" lon="5.98915">
        <ele>1920.4399414062</ele>
        <time>2017-05-13T05:06:30Z</time>
      </trkpt>
      <trkpt lat="45.20878" lon="5.98916">
        <ele>1920.4399414062</ele>
        <time>2017-05-13T05:06:36Z</time>
      </trkpt>
      <trkpt lat="45.20873" lon="5.98914">
        <ele>1918.4399414062</ele>
        <time>2017-05-13T05:06:41Z</time>
      </trkpt>
      <trkpt lat="45.20868" lon="5.98915">
        <ele>1919.4399414062</ele>
        <time>2017-05-13T05:06:45Z</time>
      </trkpt>
      <trkpt lat="45.20863" lon="5.98916">
        <ele>1919.4399414062</ele>
        <time>2017-05-13T05:06:50Z</time>
      </trkpt>
      <trkpt lat="45.20858" lon="5.98915">
        <ele>1920.4399414062</ele>
        <time>2017-05-13T05:06:55Z</time>
      </trkpt>
      <trkpt lat="45.20853" lon="5.98912">
        <ele>1919.4399414062</ele>
        <time>2017-05-13T05:07:01Z</time>
      </trkpt>
      <trkpt lat="45.20848" lon="5.98911">
        <ele>1920.4399414062</ele>
        <time>2017-05-13T05:07:07Z</time>
      </trkpt>
      <trkpt lat="45.20845" lon="5.98917">
        <ele>1923.4399414062</ele>
        <time>2017-05-13T05:07:10Z</time>
      </trkpt>
      <trkpt lat="45.2084" lon="5.98917">
        <ele>1925.4399414062</ele>
        <time>2017-05-13T05:07:13Z</time>
      </trkpt>
      <trkpt lat="45.20836" lon="5.98915">
        <ele>1922.4399414062</ele>
        <time>2017-05-13T05:07:18Z</time>
      </trkpt>
      <trkpt lat="45.2083" lon="5.98914">
        <ele>1920.4399414062</ele>
        <time>2017-05-13T05:07:25Z</time>
      </trkpt>
      <trkpt lat="45.20825" lon="5.9891">
        <ele>1917.4399414062</ele>
        <time>2017-05-13T05:07:31Z</time>
      </trkpt>
      <trkpt lat="45.2082" lon="5.9891">
        <ele>1919.4399414062</ele>
        <time>2017-05-13T05:07:36Z</time>
      </trkpt>
      <trkpt lat="45.20816" lon="5.98909">
        <ele>1918.4399414062</ele>
        <time>2017-05-13T05:07:41Z</time>
      </trkpt>
      <trkpt lat="45.2081" lon="5.98909">
        <ele>1919.4399414062</ele>
        <time>2017-05-13T05:07:43Z</time>
      </trkpt>
      <trkpt lat="45.20805" lon="5.98907">
        <ele>1919.4399414062</ele>
        <time>2017-05-13T05:07:46Z</time>
      </trkpt>
      <trkpt lat="45.208" lon="5.98904">
        <ele>1920.4399414062</ele>
        <time>2017-05-13T05:07:57Z</time>
      </trkpt>
      <trkpt lat="45.20796" lon="5.98908">
        <ele>1922.4399414062</ele>
        <time>2017-05-13T05:08:03Z</time>
      </trkpt>
      <trkpt lat="45.20792" lon="5.9891">
        <ele>1920.4399414062</ele>
        <time>2017-05-13T05:08:05Z</time>
      </trkpt>
      <trkpt lat="45.20787" lon="5.98912">
        <ele>1922.4399414062</ele>
        <time>2017-05-13T05:08:16Z</time>
      </trkpt>
      <trkpt lat="45.20782" lon="5.98914">
        <ele>1921.4399414062</ele>
        <time>2017-05-13T05:08:20Z</time>
      </trkpt>
      <trkpt lat="45.20778" lon="5.98914">
        <ele>1920.4399414062</ele>
        <time>2017-05-13T05:08:26Z</time>
      </trkpt>
      <trkpt lat="45.20774" lon="5.98912">
        <ele>1916.4399414062</ele>
        <time>2017-05-13T05:08:30Z</time>
      </trkpt>
      <trkpt lat="45.20768" lon="5.98916">
        <ele>1914.4399414062</ele>
        <time>2017-05-13T05:08:37Z</time>
      </trkpt>
      <trkpt lat="45.20764" lon="5.98915">
        <ele>1914.4399414062</ele>
        <time>2017-05-13T05:08:43Z</time>
      </trkpt>
      <trkpt lat="45.20758" lon="5.98916">
        <ele>1916.4399414062</ele>
        <time>2017-05-13T05:08:48Z</time>
      </trkpt>
      <trkpt lat="45.20756" lon="5.9891">
        <ele>1921.4399414062</ele>
        <time>2017-05-13T05:08:58Z</time>
      </trkpt>
      <trkpt lat="45.20751" lon="5.98911">
        <ele>1921.4399414062</ele>
        <time>2017-05-13T05:09:23Z</time>
      </trkpt>
      <trkpt lat="45.20746" lon="5.98912">
        <ele>1922.4399414062</ele>
        <time>2017-05-13T05:09:27Z</time>
      </trkpt>
      <trkpt lat="45.2074" lon="5.98912">
        <ele>1921.4399414062</ele>
        <time>2017-05-13T05:09:32Z</time>
      </trkpt>
      <trkpt lat="45.20735" lon="5.98913">
        <ele>1922.4399414062</ele>
        <time>2017-05-13T05:09:36Z</time>
      </trkpt>
      <trkpt lat="45.20729" lon="5.98914">
        <ele>1918.4399414062</ele>
        <time>2017-05-13T05:09:42Z</time>
      </trkpt>
      <trkpt lat="45.20724" lon="5.98915">
        <ele>1918.4399414062</ele>
        <time>2017-05-13T05:09:55Z</time>
      </trkpt>
      <trkpt lat="45.20719" lon="5.98915">
        <ele>1916.4399414062</ele>
        <time>2017-05-13T05:10:00Z</time>
      </trkpt>
      <trkpt lat="45.20714" lon="5.98918">
        <ele>1915.4399414062</ele>
        <time>2017-05-13T05:10:05Z</time>
      </trkpt>
      <trkpt lat="45.20708" lon="5.98918">
        <ele>1917.4399414062</ele>
        <time>2017-05-13T05:10:10Z</time>
      </trkpt>
      <trkpt lat="45.20704" lon="5.98919">
        <ele>1917.4399414062</ele>
        <time>2017-05-13T05:10:15Z</time>
      </trkpt>
      <trkpt lat="45.20699" lon="5.98919">
        <ele>1917.4399414062</ele>
        <time>2017-05-13T05:10:20Z</time>
      </trkpt>
      <trkpt lat="45.20695" lon="5.98922">
        <ele>1918.4399414062</ele>
        <time>2017-05-13T05:10:45Z</time>
      </trkpt>
      <trkpt lat="45.20688" lon="5.9892">
        <ele>1914.4399414062</ele>
        <time>2017-05-13T05:10:52Z</time>
      </trkpt>
      <trkpt lat="45.20683" lon="5.98923">
        <ele>1916.4399414062</ele>
        <time>2017-05-13T05:10:57Z</time>
      </trkpt>
      <trkpt lat="45.20679" lon="5.98925">
        <ele>1917.4399414062</ele>
        <time>2017-05-13T05:10:59Z</time>
      </trkpt>
      <trkpt lat="45.20673" lon="5.98926">
        <ele>1918.4399414062</ele>
        <time>2017-05-13T05:11:06Z</time>
      </trkpt>
      <trkpt lat="45.20675" lon="5.9892">
        <ele>1920.4399414062</ele>
        <time>2017-05-13T05:11:23Z</time>
      </trkpt>
      <trkpt lat="45.20671" lon="5.98916">
        <ele>1918.4399414062</ele>
        <time>2017-05-13T05:11:31Z</time>
      </trkpt>
      <trkpt lat="45.20664" lon="5.98913">
        <ele>1910.4399414062</ele>
        <time>2017-05-13T05:11:37Z</time>
      </trkpt>
      <trkpt lat="45.20659" lon="5.98911">
        <ele>1908.4399414062</ele>
        <time>2017-05-13T05:11:40Z</time>
      </trkpt>
      <trkpt lat="45.20655" lon="5.98908">
        <ele>1909.4399414062</ele>
        <time>2017-05-13T05:11:44Z</time>
      </trkpt>
      <trkpt lat="45.2065" lon="5.98908">
        <ele>1909.4399414062</ele>
        <time>2017-05-13T05:11:49Z</time>
      </trkpt>
      <trkpt lat="45.20646" lon="5.98904">
        <ele>1906.4399414062</ele>
        <time>2017-05-13T05:11:53Z</time>
      </trkpt>
      <trkpt lat="45.20641" lon="5.98901">
        <ele>1911.4399414062</ele>
        <time>2017-05-13T05:11:57Z</time>
      </trkpt>
      <trkpt lat="45.20637" lon="5.98897">
        <ele>1914.4399414062</ele>
        <time>2017-05-13T05:12:02Z</time>
      </trkpt>
      <trkpt lat="45.20633" lon="5.98893">
        <ele>1917.4399414062</ele>
        <time>2017-05-13T05:12:12Z</time>
      </trkpt>
      <trkpt lat="45.20626" lon="5.98891">
        <ele>1915.4399414062</ele>
        <time>2017-05-13T05:12:17Z</time>
      </trkpt>
      <trkpt lat="45.20622" lon="5.98884">
        <ele>1916.4399414062</ele>
        <time>2017-05-13T05:12:24Z</time>
      </trkpt>
      <trkpt lat="45.20618" lon="5.9888">
        <ele>1921.4399414062</ele>
        <time>2017-05-13T05:12:32Z</time>
      </trkpt>
      <trkpt lat="45.20615" lon="5.98874">
        <ele>1923.4399414062</ele>
        <time>2017-05-13T05:12:36Z</time>
      </trkpt>
      <trkpt lat="45.20611" lon="5.98869">
        <ele>1922.4399414062</ele>
        <time>2017-05-13T05:12:40Z</time>
      </trkpt>
      <trkpt lat="45.20606" lon="5.98867">
        <ele>1921.4399414062</ele>
        <time>2017-05-13T05:12:44Z</time>
      </trkpt>
      <trkpt lat="45.20604" lon="5.98862">
        <ele>1920.4399414062</ele>
        <time>2017-05-13T05:12:48Z</time>
      </trkpt>
      <trkpt lat="45.206" lon="5.98858">
        <ele>1920.4399414062</ele>
        <time>2017-05-13T05:12:52Z</time>
      </trkpt>
      <trkpt lat="45.20597" lon="5.98854">
        <ele>1921.4399414062</ele>
        <time>2017-05-13T05:12:56Z</time>
      </trkpt>
      <trkpt lat="45.20592" lon="5.98853">
        <ele>1922.4399414062</ele>
        <time>2017-05-13T05:13:00Z</time>
      </trkpt>
      <trkpt lat="45.20587" lon="5.98851">
        <ele>1926.4399414062</ele>
        <time>2017-05-13T05:13:05Z</time>
      </trkpt>
      <trkpt lat="45.20582" lon="5.9885">
        <ele>1925.4399414062</ele>
        <time>2017-05-13T05:13:09Z</time>
      </trkpt>
      <trkpt lat="45.20576" lon="5.98849">
        <ele>1927.4399414062</ele>
        <time>2017-05-13T05:13:17Z</time>
      </trkpt>
      <trkpt lat="45.2057" lon="5.98847">
        <ele>1927.4399414062</ele>
        <time>2017-05-13T05:13:24Z</time>
      </trkpt>
      <trkpt lat="45.20566" lon="5.98844">
        <ele>1922.4399414062</ele>
        <time>2017-05-13T05:13:27Z</time>
      </trkpt>
      <trkpt lat="45.20561" lon="5.98845">
        <ele>1926.4399414062</ele>
        <time>2017-05-13T05:13:37Z</time>
      </trkpt>
      <trkpt lat="45.20556" lon="5.98844">
        <ele>1929.4389648438</ele>
        <time>2017-05-13T05:13:44Z</time>
      </trkpt>
      <trkpt lat="45.20551" lon="5.98843">
        <ele>1931.4389648438</ele>
        <time>2017-05-13T05:13:50Z</time>
      </trkpt>
      <trkpt lat="45.20546" lon="5.98844">
        <ele>1932.4389648438</ele>
        <time>2017-05-13T05:13:54Z</time>
      </trkpt>
      <trkpt lat="45.20542" lon="5.98848">
        <ele>1936.4389648438</ele>
        <time>2017-05-13T05:13:59Z</time>
      </trkpt>
      <trkpt lat="45.20536" lon="5.98852">
        <ele>1943.4389648438</ele>
        <time>2017-05-13T05:14:06Z</time>
      </trkpt>
      <trkpt lat="45.20532" lon="5.98848">
        <ele>1950.4389648438</ele>
        <time>2017-05-13T05:14:17Z</time>
      </trkpt>
      <trkpt lat="45.20527" lon="5.98849">
        <ele>1961.4389648438</ele>
        <time>2017-05-13T05:14:28Z</time>
      </trkpt>
      <trkpt lat="45.20524" lon="5.98844">
        <ele>1965.4389648438</ele>
        <time>2017-05-13T05:14:34Z</time>
      </trkpt>
      <trkpt lat="45.2052" lon="5.98847">
        <ele>1967.4389648438</ele>
        <time>2017-05-13T05:14:50Z</time>
      </trkpt>
      <trkpt lat="45.20516" lon="5.98847">
        <ele>1968.4389648438</ele>
        <time>2017-05-13T05:14:58Z</time>
      </trkpt>
      <trkpt lat="45.20511" lon="5.98848">
        <ele>1968.4389648438</ele>
        <time>2017-05-13T05:15:05Z</time>
      </trkpt>
      <trkpt lat="45.20506" lon="5.9885">
        <ele>1969.4389648438</ele>
        <time>2017-05-13T05:15:11Z</time>
      </trkpt>
      <trkpt lat="45.20504" lon="5.98844">
        <ele>1973.4389648438</ele>
        <time>2017-05-13T05:15:17Z</time>
      </trkpt>
      <trkpt lat="45.20502" lon="5.98838">
        <ele>1969.4389648438</ele>
        <time>2017-05-13T05:15:22Z</time>
      </trkpt>
      <trkpt lat="45.20498" lon="5.98835">
        <ele>1967.4389648438</ele>
        <time>2017-05-13T05:15:26Z</time>
      </trkpt>
      <trkpt lat="45.20494" lon="5.98832">
        <ele>1966.4389648438</ele>
        <time>2017-05-13T05:15:29Z</time>
      </trkpt>
      <trkpt lat="45.20493" lon="5.98824">
        <ele>1968.4389648438</ele>
        <time>2017-05-13T05:15:35Z</time>
      </trkpt>
      <trkpt lat="45.20494" lon="5.98817">
        <ele>1970.4389648438</ele>
        <time>2017-05-13T05:15:40Z</time>
      </trkpt>
      <trkpt lat="45.20492" lon="5.9881">
        <ele>1969.4389648438</ele>
        <time>2017-05-13T05:15:45Z</time>
      </trkpt>
      <trkpt lat="45.20488" lon="5.98805">
        <ele>1967.4389648438</ele>
        <time>2017-05-13T05:15:48Z</time>
      </trkpt>
      <trkpt lat="45.20485" lon="5.98797">
        <ele>1967.4389648438</ele>
        <time>2017-05-13T05:15:56Z</time>
      </trkpt>
      <trkpt lat="45.20482" lon="5.98793">
        <ele>1968.4389648438</ele>
        <time>2017-05-13T05:16:03Z</time>
      </trkpt>
      <trkpt lat="45.20478" lon="5.98795">
        <ele>1968.4389648438</ele>
        <time>2017-05-13T05:16:09Z</time>
      </trkpt>
      <trkpt lat="45.20475" lon="5.98802">
        <ele>1972.4389648438</ele>
        <time>2017-05-13T05:16:18Z</time>
      </trkpt>
      <trkpt lat="45.2047" lon="5.98807">
        <ele>1973.4389648438</ele>
        <time>2017-05-13T05:16:22Z</time>
      </trkpt>
      <trkpt lat="45.20467" lon="5.98802">
        <ele>1973.4389648438</ele>
        <time>2017-05-13T05:16:30Z</time>
      </trkpt>
      <trkpt lat="45.20471" lon="5.98797">
        <ele>1983.4389648438</ele>
        <time>2017-05-13T05:16:51Z</time>
      </trkpt>
      <trkpt lat="45.2047" lon="5.9879">
        <ele>1984.4389648438</ele>
        <time>2017-05-13T05:17:06Z</time>
      </trkpt>
      <trkpt lat="45.20464" lon="5.98791">
        <ele>1986.4389648438</ele>
        <time>2017-05-13T05:17:27Z</time>
      </trkpt>
      <trkpt lat="45.20462" lon="5.98785">
        <ele>1987.4389648438</ele>
        <time>2017-05-13T05:17:31Z</time>
      </trkpt>
      <trkpt lat="45.20458" lon="5.98783">
        <ele>1990.4389648438</ele>
        <time>2017-05-13T05:17:37Z</time>
      </trkpt>
      <trkpt lat="45.20453" lon="5.9879">
        <ele>1998.4389648438</ele>
        <time>2017-05-13T05:17:51Z</time>
      </trkpt>
      <trkpt lat="45.20447" lon="5.98793">
        <ele>1996.4389648438</ele>
        <time>2017-05-13T05:17:59Z</time>
      </trkpt>
      <trkpt lat="45.20449" lon="5.98788">
        <ele>2005.4389648438</ele>
        <time>2017-05-13T05:18:16Z</time>
      </trkpt>
      <trkpt lat="45.20453" lon="5.98783">
        <ele>2002.4389648438</ele>
        <time>2017-05-13T05:18:27Z</time>
      </trkpt>
      <trkpt lat="45.20449" lon="5.98777">
        <ele>2000.4389648438</ele>
        <time>2017-05-13T05:18:41Z</time>
      </trkpt>
      <trkpt lat="45.20449" lon="5.98769">
        <ele>2001.4389648438</ele>
        <time>2017-05-13T05:18:45Z</time>
      </trkpt>
      <trkpt lat="45.20453" lon="5.98766">
        <ele>1999.4389648438</ele>
        <time>2017-05-13T05:18:53Z</time>
      </trkpt>
      <trkpt lat="45.20449" lon="5.98761">
        <ele>1997.4389648438</ele>
        <time>2017-05-13T05:18:59Z</time>
      </trkpt>
      <trkpt lat="45.20451" lon="5.98755">
        <ele>2001.4389648438</ele>
        <time>2017-05-13T05:19:05Z</time>
      </trkpt>
      <trkpt lat="45.2045" lon="5.98749">
        <ele>2005.4389648438</ele>
        <time>2017-05-13T05:19:12Z</time>
      </trkpt>
      <trkpt lat="45.20445" lon="5.98752">
        <ele>2004.4389648438</ele>
        <time>2017-05-13T05:19:20Z</time>
      </trkpt>
      <trkpt lat="45.20442" lon="5.98756">
        <ele>2007.4389648438</ele>
        <time>2017-05-13T05:19:29Z</time>
      </trkpt>
      <trkpt lat="45.20441" lon="5.98763">
        <ele>2009.4389648438</ele>
        <time>2017-05-13T05:19:44Z</time>
      </trkpt>
      <trkpt lat="45.20436" lon="5.98762">
        <ele>2005.4389648438</ele>
        <time>2017-05-13T05:20:01Z</time>
      </trkpt>
      <trkpt lat="45.20432" lon="5.98763">
        <ele>2007.4389648438</ele>
        <time>2017-05-13T05:20:06Z</time>
      </trkpt>
      <trkpt lat="45.20431" lon="5.98755">
        <ele>2008.4389648438</ele>
        <time>2017-05-13T05:20:44Z</time>
      </trkpt>
      <trkpt lat="45.20433" lon="5.98749">
        <ele>2008.4389648438</ele>
        <time>2017-05-13T05:20:51Z</time>
      </trkpt>
      <trkpt lat="45.20437" lon="5.98746">
        <ele>2011.4389648438</ele>
        <time>2017-05-13T05:20:56Z</time>
      </trkpt>
      <trkpt lat="45.20432" lon="5.98745">
        <ele>2008.4389648438</ele>
        <time>2017-05-13T05:21:01Z</time>
      </trkpt>
      <trkpt lat="45.20428" lon="5.98742">
        <ele>2005.4389648438</ele>
        <time>2017-05-13T05:21:04Z</time>
      </trkpt>
      <trkpt lat="45.20423" lon="5.98743">
        <ele>2008.4389648438</ele>
        <time>2017-05-13T05:21:09Z</time>
      </trkpt>
      <trkpt lat="45.20418" lon="5.98743">
        <ele>2010.4389648438</ele>
        <time>2017-05-13T05:21:15Z</time>
      </trkpt>
      <trkpt lat="45.20418" lon="5.98736">
        <ele>2009.4389648438</ele>
        <time>2017-05-13T05:21:26Z</time>
      </trkpt>
      <trkpt lat="45.2042" lon="5.98731">
        <ele>2011.4389648438</ele>
        <time>2017-05-13T05:21:41Z</time>
      </trkpt>
      <trkpt lat="45.20424" lon="5.98736">
        <ele>2015.4389648438</ele>
        <time>2017-05-13T05:22:06Z</time>
      </trkpt>
      <trkpt lat="45.2042" lon="5.98739">
        <ele>2018.4389648438</ele>
        <time>2017-05-13T05:22:13Z</time>
      </trkpt>
      <trkpt lat="45.20414" lon="5.9874">
        <ele>2024.4389648438</ele>
        <time>2017-05-13T05:22:26Z</time>
      </trkpt>
      <trkpt lat="45.2041" lon="5.98744">
        <ele>2026.4389648438</ele>
        <time>2017-05-13T05:22:33Z</time>
      </trkpt>
      <trkpt lat="45.20404" lon="5.98743">
        <ele>2026.4389648438</ele>
        <time>2017-05-13T05:22:43Z</time>
      </trkpt>
      <trkpt lat="45.204" lon="5.98745">
        <ele>2023.4389648438</ele>
        <time>2017-05-13T05:22:48Z</time>
      </trkpt>
      <trkpt lat="45.20396" lon="5.9875">
        <ele>2025.4389648438</ele>
        <time>2017-05-13T05:22:56Z</time>
      </trkpt>
      <trkpt lat="45.20391" lon="5.98751">
        <ele>2020.4389648438</ele>
        <time>2017-05-13T05:23:12Z</time>
      </trkpt>
      <trkpt lat="45.20387" lon="5.98754">
        <ele>2022.4389648438</ele>
        <time>2017-05-13T05:23:20Z</time>
      </trkpt>
      <trkpt lat="45.20382" lon="5.98755">
        <ele>2026.4389648438</ele>
        <time>2017-05-13T05:23:41Z</time>
      </trkpt>
      <trkpt lat="45.20378" lon="5.98759">
        <ele>2030.4389648438</ele>
        <time>2017-05-13T05:23:49Z</time>
      </trkpt>
      <trkpt lat="45.20373" lon="5.98763">
        <ele>2033.4389648438</ele>
        <time>2017-05-13T05:23:56Z</time>
      </trkpt>
      <trkpt lat="45.20368" lon="5.98765">
        <ele>2035.4389648438</ele>
        <time>2017-05-13T05:24:02Z</time>
      </trkpt>
      <trkpt lat="45.20364" lon="5.98768">
        <ele>2036.4389648438</ele>
        <time>2017-05-13T05:24:07Z</time>
      </trkpt>
      <trkpt lat="45.2036" lon="5.98764">
        <ele>2039.4389648438</ele>
        <time>2017-05-13T05:24:18Z</time>
      </trkpt>
      <trkpt lat="45.20355" lon="5.98762">
        <ele>2043.4389648438</ele>
        <time>2017-05-13T05:24:31Z</time>
      </trkpt>
      <trkpt lat="45.20351" lon="5.98768">
        <ele>2046.4389648438</ele>
        <time>2017-05-13T05:24:39Z</time>
      </trkpt>
      <trkpt lat="45.20348" lon="5.98764">
        <ele>2048.4389648438</ele>
        <time>2017-05-13T05:24:48Z</time>
      </trkpt>
      <trkpt lat="45.20342" lon="5.98766">
        <ele>2047.4389648438</ele>
        <time>2017-05-13T05:24:51Z</time>
      </trkpt>
      <trkpt lat="45.20337" lon="5.98768">
        <ele>2046.4389648438</ele>
        <time>2017-05-13T05:24:55Z</time>
      </trkpt>
      <trkpt lat="45.20332" lon="5.98767">
        <ele>2043.4389648438</ele>
        <time>2017-05-13T05:25:03Z</time>
      </trkpt>
      <trkpt lat="45.20332" lon="5.9876">
        <ele>2047.4389648438</ele>
        <time>2017-05-13T05:25:09Z</time>
      </trkpt>
      <trkpt lat="45.20326" lon="5.98763">
        <ele>2047.4389648438</ele>
        <time>2017-05-13T05:25:12Z</time>
      </trkpt>
      <trkpt lat="45.20324" lon="5.98769">
        <ele>2051.4389648438</ele>
        <time>2017-05-13T05:25:41Z</time>
      </trkpt>
      <trkpt lat="45.20318" lon="5.98769">
        <ele>2058.4389648438</ele>
        <time>2017-05-13T05:25:52Z</time>
      </trkpt>
      <trkpt lat="45.20313" lon="5.9877">
        <ele>2059.4389648438</ele>
        <time>2017-05-13T05:26:04Z</time>
      </trkpt>
      <trkpt lat="45.20308" lon="5.98765">
        <ele>2059.4389648438</ele>
        <time>2017-05-13T05:26:14Z</time>
      </trkpt>
      <trkpt lat="45.20304" lon="5.98767">
        <ele>2065.4389648438</ele>
        <time>2017-05-13T05:26:20Z</time>
      </trkpt>
      <trkpt lat="45.20294" lon="5.98775">
        <ele>2064.4389648438</ele>
        <time>2017-05-13T05:26:29Z</time>
      </trkpt>
      <trkpt lat="45.20291" lon="5.9878">
        <ele>2065.4389648438</ele>
        <time>2017-05-13T05:26:32Z</time>
      </trkpt>
      <trkpt lat="45.20286" lon="5.98781">
        <ele>2064.4389648438</ele>
        <time>2017-05-13T05:26:34Z</time>
      </trkpt>
      <trkpt lat="45.20284" lon="5.98775">
        <ele>2064.4389648438</ele>
        <time>2017-05-13T05:26:46Z</time>
      </trkpt>
      <trkpt lat="45.2028" lon="5.98776">
        <ele>2068.4389648438</ele>
        <time>2017-05-13T05:26:51Z</time>
      </trkpt>
      <trkpt lat="45.20274" lon="5.98775">
        <ele>2066.4389648438</ele>
        <time>2017-05-13T05:27:04Z</time>
      </trkpt>
      <trkpt lat="45.20269" lon="5.98775">
        <ele>2067.4389648438</ele>
        <time>2017-05-13T05:27:08Z</time>
      </trkpt>
      <trkpt lat="45.20263" lon="5.98779">
        <ele>2066.4389648438</ele>
        <time>2017-05-13T05:27:16Z</time>
      </trkpt>
      <trkpt lat="45.20258" lon="5.98779">
        <ele>2066.4389648438</ele>
        <time>2017-05-13T05:27:21Z</time>
      </trkpt>
      <trkpt lat="45.20252" lon="5.9878">
        <ele>2066.4389648438</ele>
        <time>2017-05-13T05:27:32Z</time>
      </trkpt>
      <trkpt lat="45.20247" lon="5.9878">
        <ele>2064.4389648438</ele>
        <time>2017-05-13T05:27:36Z</time>
      </trkpt>
      <trkpt lat="45.20243" lon="5.98779">
        <ele>2065.4389648438</ele>
        <time>2017-05-13T05:27:45Z</time>
      </trkpt>
      <trkpt lat="45.20238" lon="5.98782">
        <ele>2070.4389648438</ele>
        <time>2017-05-13T05:27:58Z</time>
      </trkpt>
      <trkpt lat="45.20232" lon="5.98787">
        <ele>2070.4389648438</ele>
        <time>2017-05-13T05:28:05Z</time>
      </trkpt>
      <trkpt lat="45.20227" lon="5.98788">
        <ele>2074.4389648438</ele>
        <time>2017-05-13T05:28:13Z</time>
      </trkpt>
      <trkpt lat="45.20222" lon="5.98792">
        <ele>2076.4389648438</ele>
        <time>2017-05-13T05:28:20Z</time>
      </trkpt>
      <trkpt lat="45.20218" lon="5.98793">
        <ele>2081.4389648438</ele>
        <time>2017-05-13T05:28:25Z</time>
      </trkpt>
      <trkpt lat="45.20213" lon="5.98792">
        <ele>2078.4389648438</ele>
        <time>2017-05-13T05:28:31Z</time>
      </trkpt>
      <trkpt lat="45.20208" lon="5.9879">
        <ele>2079.4389648438</ele>
        <time>2017-05-13T05:28:39Z</time>
      </trkpt>
      <trkpt lat="45.20203" lon="5.98784">
        <ele>2071.4389648438</ele>
        <time>2017-05-13T05:28:44Z</time>
      </trkpt>
      <trkpt lat="45.20199" lon="5.98788">
        <ele>2078.4389648438</ele>
        <time>2017-05-13T05:28:50Z</time>
      </trkpt>
      <trkpt lat="45.20192" lon="5.98789">
        <ele>2082.4389648438</ele>
        <time>2017-05-13T05:28:56Z</time>
      </trkpt>
      <trkpt lat="45.20187" lon="5.98788">
        <ele>2078.4389648438</ele>
        <time>2017-05-13T05:29:19Z</time>
      </trkpt>
      <trkpt lat="45.20183" lon="5.98786">
        <ele>2075.4389648438</ele>
        <time>2017-05-13T05:29:25Z</time>
      </trkpt>
      <trkpt lat="45.20178" lon="5.98785">
        <ele>2072.4389648438</ele>
        <time>2017-05-13T05:29:37Z</time>
      </trkpt>
      <trkpt lat="45.20173" lon="5.98788">
        <ele>2068.4389648438</ele>
        <time>2017-05-13T05:29:48Z</time>
      </trkpt>
      <trkpt lat="45.20171" lon="5.98794">
        <ele>2072.4389648438</ele>
        <time>2017-05-13T05:29:53Z</time>
      </trkpt>
      <trkpt lat="45.20168" lon="5.98799">
        <ele>2073.4389648438</ele>
        <time>2017-05-13T05:29:58Z</time>
      </trkpt>
      <trkpt lat="45.20164" lon="5.98804">
        <ele>2075.4389648438</ele>
        <time>2017-05-13T05:30:03Z</time>
      </trkpt>
      <trkpt lat="45.20162" lon="5.9881">
        <ele>2082.4389648438</ele>
        <time>2017-05-13T05:30:13Z</time>
      </trkpt>
      <trkpt lat="45.20156" lon="5.98809">
        <ele>2087.4389648438</ele>
        <time>2017-05-13T05:30:25Z</time>
      </trkpt>
      <trkpt lat="45.20152" lon="5.98813">
        <ele>2087.4389648438</ele>
        <time>2017-05-13T05:30:36Z</time>
      </trkpt>
      <trkpt lat="45.20149" lon="5.98819">
        <ele>2098.4389648438</ele>
        <time>2017-05-13T05:30:56Z</time>
      </trkpt>
      <trkpt lat="45.20147" lon="5.98812">
        <ele>2092.4389648438</ele>
        <time>2017-05-13T05:31:04Z</time>
      </trkpt>
      <trkpt lat="45.20142" lon="5.98816">
        <ele>2092.4389648438</ele>
        <time>2017-05-13T05:31:08Z</time>
      </trkpt>
      <trkpt lat="45.20137" lon="5.98817">
        <ele>2095.4389648438</ele>
        <time>2017-05-13T05:31:16Z</time>
      </trkpt>
      <trkpt lat="45.20134" lon="5.98822">
        <ele>2098.4389648438</ele>
        <time>2017-05-13T05:31:24Z</time>
      </trkpt>
      <trkpt lat="45.20129" lon="5.98824">
        <ele>2100.4389648438</ele>
        <time>2017-05-13T05:32:14Z</time>
      </trkpt>
      <trkpt lat="45.20125" lon="5.98819">
        <ele>2101.4389648438</ele>
        <time>2017-05-13T05:32:24Z</time>
      </trkpt>
      <trkpt lat="45.2012" lon="5.98822">
        <ele>2102.4389648438</ele>
        <time>2017-05-13T05:33:33Z</time>
      </trkpt>
      <trkpt lat="45.20114" lon="5.98825">
        <ele>2110.4389648438</ele>
        <time>2017-05-13T05:33:54Z</time>
      </trkpt>
      <trkpt lat="45.20112" lon="5.98832">
        <ele>2114.4389648438</ele>
        <time>2017-05-13T05:33:57Z</time>
      </trkpt>
      <trkpt lat="45.20109" lon="5.98827">
        <ele>2110.4389648438</ele>
        <time>2017-05-13T05:34:00Z</time>
      </trkpt>
      <trkpt lat="45.20097" lon="5.98829">
        <ele>2105.4389648438</ele>
        <time>2017-05-13T05:34:24Z</time>
      </trkpt>
      <trkpt lat="45.20097" lon="5.98822">
        <ele>2108.4389648438</ele>
        <time>2017-05-13T05:34:28Z</time>
      </trkpt>
      <trkpt lat="45.20099" lon="5.98816">
        <ele>2114.4389648438</ele>
        <time>2017-05-13T05:35:07Z</time>
      </trkpt>
      <trkpt lat="45.201" lon="5.98808">
        <ele>2117.4389648438</ele>
        <time>2017-05-13T05:35:16Z</time>
      </trkpt>
      <trkpt lat="45.20097" lon="5.98803">
        <ele>2128.4389648438</ele>
        <time>2017-05-13T05:36:04Z</time>
      </trkpt>
      <trkpt lat="45.20093" lon="5.98804">
        <ele>2132.4389648438</ele>
        <time>2017-05-13T05:36:19Z</time>
      </trkpt>
      <trkpt lat="45.20092" lon="5.98797">
        <ele>2132.4389648438</ele>
        <time>2017-05-13T05:36:30Z</time>
      </trkpt>
      <trkpt lat="45.20086" lon="5.98796">
        <ele>2146.4379882812</ele>
        <time>2017-05-13T05:38:23Z</time>
      </trkpt>
      <trkpt lat="45.20083" lon="5.9879">
        <ele>2147.4379882812</ele>
        <time>2017-05-13T05:38:47Z</time>
      </trkpt>
      <trkpt lat="45.20081" lon="5.98783">
        <ele>2144.4379882812</ele>
        <time>2017-05-13T05:38:50Z</time>
      </trkpt>
      <trkpt lat="45.20076" lon="5.98784">
        <ele>2143.4379882812</ele>
        <time>2017-05-13T05:38:53Z</time>
      </trkpt>
      <trkpt lat="45.2007" lon="5.98784">
        <ele>2142.4379882812</ele>
        <time>2017-05-13T05:38:56Z</time>
      </trkpt>
      <trkpt lat="45.20065" lon="5.98785">
        <ele>2144.4379882812</ele>
        <time>2017-05-13T05:39:00Z</time>
      </trkpt>
      <trkpt lat="45.2006" lon="5.98787">
        <ele>2144.4379882812</ele>
        <time>2017-05-13T05:39:10Z</time>
      </trkpt>
      <trkpt lat="45.20061" lon="5.9878">
        <ele>2143.4379882812</ele>
        <time>2017-05-13T05:39:22Z</time>
      </trkpt>
      <trkpt lat="45.2006" lon="5.98774">
        <ele>2143.4379882812</ele>
        <time>2017-05-13T05:39:27Z</time>
      </trkpt>
      <trkpt lat="45.20065" lon="5.98772">
        <ele>2150.4379882812</ele>
        <time>2017-05-13T05:39:29Z</time>
      </trkpt>
      <trkpt lat="45.20059" lon="5.98772">
        <ele>2150.4379882812</ele>
        <time>2017-05-13T05:40:06Z</time>
      </trkpt>
      <trkpt lat="45.20055" lon="5.9877">
        <ele>2151.4379882812</ele>
        <time>2017-05-13T05:40:28Z</time>
      </trkpt>
      <trkpt lat="45.20054" lon="5.98763">
        <ele>2147.4379882812</ele>
        <time>2017-05-13T05:40:33Z</time>
      </trkpt>
      <trkpt lat="45.20058" lon="5.9876">
        <ele>2156.4379882812</ele>
        <time>2017-05-13T05:40:37Z</time>
      </trkpt>
      <trkpt lat="45.20054" lon="5.98757">
        <ele>2168.4379882812</ele>
        <time>2017-05-13T05:41:11Z</time>
      </trkpt>
      <trkpt lat="45.20049" lon="5.98754">
        <ele>2167.4379882812</ele>
        <time>2017-05-13T05:41:19Z</time>
      </trkpt>
      <trkpt lat="45.20045" lon="5.98756">
        <ele>2164.4379882812</ele>
        <time>2017-05-13T05:41:48Z</time>
      </trkpt>
      <trkpt lat="45.20039" lon="5.98755">
        <ele>2163.4379882812</ele>
        <time>2017-05-13T05:41:51Z</time>
      </trkpt>
      <trkpt lat="45.20036" lon="5.98748">
        <ele>2165.4379882812</ele>
        <time>2017-05-13T05:42:00Z</time>
      </trkpt>
      <trkpt lat="45.20034" lon="5.98742">
        <ele>2170.4379882812</ele>
        <time>2017-05-13T05:42:09Z</time>
      </trkpt>
      <trkpt lat="45.20031" lon="5.98747">
        <ele>2175.4379882812</ele>
        <time>2017-05-13T05:42:25Z</time>
      </trkpt>
      <trkpt lat="45.20033" lon="5.98753">
        <ele>2182.4379882812</ele>
        <time>2017-05-13T05:42:31Z</time>
      </trkpt>
      <trkpt lat="45.20029" lon="5.98756">
        <ele>2185.4379882812</ele>
        <time>2017-05-13T05:42:38Z</time>
      </trkpt>
      <trkpt lat="45.20024" lon="5.9876">
        <ele>2185.4379882812</ele>
        <time>2017-05-13T05:42:41Z</time>
      </trkpt>
      <trkpt lat="45.20028" lon="5.98756">
        <ele>2189.4379882812</ele>
        <time>2017-05-13T05:42:53Z</time>
      </trkpt>
      <trkpt lat="45.20027" lon="5.98749">
        <ele>2191.4379882812</ele>
        <time>2017-05-13T05:43:05Z</time>
      </trkpt>
      <trkpt lat="45.20028" lon="5.98743">
        <ele>2190.4379882812</ele>
        <time>2017-05-13T05:43:12Z</time>
      </trkpt>
      <trkpt lat="45.2003" lon="5.98736">
        <ele>2196.4379882812</ele>
        <time>2017-05-13T05:43:18Z</time>
      </trkpt>
      <trkpt lat="45.20033" lon="5.9873">
        <ele>2201.4379882812</ele>
        <time>2017-05-13T05:43:22Z</time>
      </trkpt>
      <trkpt lat="45.20036" lon="5.98724">
        <ele>2203.4379882812</ele>
        <time>2017-05-13T05:43:45Z</time>
      </trkpt>
      <trkpt lat="45.20038" lon="5.98719">
        <ele>2204.4379882812</ele>
        <time>2017-05-13T05:43:52Z</time>
      </trkpt>
      <trkpt lat="45.20041" lon="5.98713">
        <ele>2206.4379882812</ele>
        <time>2017-05-13T05:43:56Z</time>
      </trkpt>
      <trkpt lat="45.20043" lon="5.98707">
        <ele>2207.4379882812</ele>
        <time>2017-05-13T05:44:01Z</time>
      </trkpt>
      <trkpt lat="45.20044" lon="5.98701">
        <ele>2209.4379882812</ele>
        <time>2017-05-13T05:44:08Z</time>
      </trkpt>
      <trkpt lat="45.20048" lon="5.98697">
        <ele>2209.4379882812</ele>
        <time>2017-05-13T05:44:17Z</time>
      </trkpt>
      <trkpt lat="45.20049" lon="5.9869">
        <ele>2210.4379882812</ele>
        <time>2017-05-13T05:44:41Z</time>
      </trkpt>
      <trkpt lat="45.20048" lon="5.98684">
        <ele>2214.4379882812</ele>
        <time>2017-05-13T05:44:45Z</time>
      </trkpt>
      <trkpt lat="45.20047" lon="5.98677">
        <ele>2213.4379882812</ele>
        <time>2017-05-13T05:44:51Z</time>
      </trkpt>
      <trkpt lat="45.20047" lon="5.9867">
        <ele>2212.4379882812</ele>
        <time>2017-05-13T05:44:58Z</time>
      </trkpt>
      <trkpt lat="45.20047" lon="5.98663">
        <ele>2213.4379882812</ele>
        <time>2017-05-13T05:45:08Z</time>
      </trkpt>
      <trkpt lat="45.20049" lon="5.98658">
        <ele>2212.4379882812</ele>
        <time>2017-05-13T05:45:23Z</time>
      </trkpt>
      <trkpt lat="45.20049" lon="5.98651">
        <ele>2210.4379882812</ele>
        <time>2017-05-13T05:45:29Z</time>
      </trkpt>
      <trkpt lat="45.20053" lon="5.98643">
        <ele>2214.4379882812</ele>
        <time>2017-05-13T05:45:52Z</time>
      </trkpt>
      <trkpt lat="45.20054" lon="5.98636">
        <ele>2213.4379882812</ele>
        <time>2017-05-13T05:45:57Z</time>
      </trkpt>
      <trkpt lat="45.20052" lon="5.9863">
        <ele>2212.4379882812</ele>
        <time>2017-05-13T05:46:15Z</time>
      </trkpt>
      <trkpt lat="45.20052" lon="5.98637">
        <ele>2211.4379882812</ele>
        <time>2017-05-13T05:46:18Z</time>
      </trkpt>
      <trkpt lat="45.2005" lon="5.9863">
        <ele>2212.4379882812</ele>
        <time>2017-05-13T05:46:21Z</time>
      </trkpt>
      <trkpt lat="45.20045" lon="5.98634">
        <ele>2212.4379882812</ele>
        <time>2017-05-13T05:46:27Z</time>
      </trkpt>
      <trkpt lat="45.20044" lon="5.98626">
        <ele>2206.4379882812</ele>
        <time>2017-05-13T05:46:32Z</time>
      </trkpt>
      <trkpt lat="45.2004" lon="5.9863">
        <ele>2206.4379882812</ele>
        <time>2017-05-13T05:47:02Z</time>
      </trkpt>
      <trkpt lat="45.20036" lon="5.98628">
        <ele>2207.4379882812</ele>
        <time>2017-05-13T05:47:09Z</time>
      </trkpt>
      <trkpt lat="45.20034" lon="5.98621">
        <ele>2211.4379882812</ele>
        <time>2017-05-13T05:47:17Z</time>
      </trkpt>
      <trkpt lat="45.20031" lon="5.98616">
        <ele>2216.4379882812</ele>
        <time>2017-05-13T05:47:32Z</time>
      </trkpt>
      <trkpt lat="45.20027" lon="5.98613">
        <ele>2217.4379882812</ele>
        <time>2017-05-13T05:47:36Z</time>
      </trkpt>
      <trkpt lat="45.20023" lon="5.98608">
        <ele>2220.4379882812</ele>
        <time>2017-05-13T05:47:40Z</time>
      </trkpt>
      <trkpt lat="45.20022" lon="5.98602">
        <ele>2230.4379882812</ele>
        <time>2017-05-13T05:47:57Z</time>
      </trkpt>
      <trkpt lat="45.20021" lon="5.98595">
        <ele>2237.4379882812</ele>
        <time>2017-05-13T05:48:04Z</time>
      </trkpt>
      <trkpt lat="45.20023" lon="5.98589">
        <ele>2240.4379882812</ele>
        <time>2017-05-13T05:48:13Z</time>
      </trkpt>
      <trkpt lat="45.20023" lon="5.98582">
        <ele>2240.4379882812</ele>
        <time>2017-05-13T05:48:19Z</time>
      </trkpt>
      <trkpt lat="45.20025" lon="5.98576">
        <ele>2244.4379882812</ele>
        <time>2017-05-13T05:48:31Z</time>
      </trkpt>
      <trkpt lat="45.20023" lon="5.9857">
        <ele>2245.4379882812</ele>
        <time>2017-05-13T05:48:39Z</time>
      </trkpt>
      <trkpt lat="45.20023" lon="5.98562">
        <ele>2247.4379882812</ele>
        <time>2017-05-13T05:48:46Z</time>
      </trkpt>
      <trkpt lat="45.20019" lon="5.98563">
        <ele>2253.4379882812</ele>
        <time>2017-05-13T05:53:05Z</time>
      </trkpt>
      <trkpt lat="45.20014" lon="5.98565">
        <ele>2255.4379882812</ele>
        <time>2017-05-13T05:53:09Z</time>
      </trkpt>
      <trkpt lat="45.20009" lon="5.98566">
        <ele>2259.4379882812</ele>
        <time>2017-05-13T05:53:14Z</time>
      </trkpt>
      <trkpt lat="45.20004" lon="5.98567">
        <ele>2260.4379882812</ele>
        <time>2017-05-13T05:53:18Z</time>
      </trkpt>
      <trkpt lat="45.2" lon="5.98569">
        <ele>2259.4379882812</ele>
        <time>2017-05-13T05:53:23Z</time>
      </trkpt>
      <trkpt lat="45.19996" lon="5.98572">
        <ele>2262.4379882812</ele>
        <time>2017-05-13T05:53:30Z</time>
      </trkpt>
      <trkpt lat="45.19992" lon="5.98577">
        <ele>2264.4379882812</ele>
        <time>2017-05-13T05:53:37Z</time>
      </trkpt>
      <trkpt lat="45.19989" lon="5.98581">
        <ele>2268.4379882812</ele>
        <time>2017-05-13T05:53:41Z</time>
      </trkpt>
      <trkpt lat="45.19987" lon="5.98575">
        <ele>2267.4379882812</ele>
        <time>2017-05-13T05:53:56Z</time>
      </trkpt>
      <trkpt lat="45.19986" lon="5.98568">
        <ele>2270.4379882812</ele>
        <time>2017-05-13T05:54:02Z</time>
      </trkpt>
      <trkpt lat="45.19984" lon="5.98561">
        <ele>2272.4379882812</ele>
        <time>2017-05-13T05:54:08Z</time>
      </trkpt>
      <trkpt lat="45.19981" lon="5.98554">
        <ele>2273.4379882812</ele>
        <time>2017-05-13T05:54:14Z</time>
      </trkpt>
      <trkpt lat="45.19979" lon="5.98548">
        <ele>2274.4379882812</ele>
        <time>2017-05-13T05:54:22Z</time>
      </trkpt>
      <trkpt lat="45.19979" lon="5.98541">
        <ele>2276.4379882812</ele>
        <time>2017-05-13T05:54:29Z</time>
      </trkpt>
      <trkpt lat="45.1998" lon="5.98535">
        <ele>2279.4379882812</ele>
        <time>2017-05-13T05:54:35Z</time>
      </trkpt>
      <trkpt lat="45.19978" lon="5.98528">
        <ele>2280.4379882812</ele>
        <time>2017-05-13T05:54:41Z</time>
      </trkpt>
      <trkpt lat="45.19979" lon="5.98522">
        <ele>2287.4379882812</ele>
        <time>2017-05-13T05:54:49Z</time>
      </trkpt>
      <trkpt lat="45.19978" lon="5.98515">
        <ele>2285.4379882812</ele>
        <time>2017-05-13T05:55:04Z</time>
      </trkpt>
      <trkpt lat="45.19974" lon="5.98509">
        <ele>2285.4379882812</ele>
        <time>2017-05-13T05:55:28Z</time>
      </trkpt>
      <trkpt lat="45.1997" lon="5.98506">
        <ele>2286.4379882812</ele>
        <time>2017-05-13T05:55:40Z</time>
      </trkpt>
      <trkpt lat="45.1997" lon="5.98513">
        <ele>2293.4379882812</ele>
        <time>2017-05-13T05:55:49Z</time>
      </trkpt>
      <trkpt lat="45.19971" lon="5.98506">
        <ele>2294.4379882812</ele>
        <time>2017-05-13T05:56:19Z</time>
      </trkpt>
      <trkpt lat="45.1997" lon="5.98499">
        <ele>2297.4379882812</ele>
        <time>2017-05-13T05:56:23Z</time>
      </trkpt>
      <trkpt lat="45.19971" lon="5.98491">
        <ele>2300.4379882812</ele>
        <time>2017-05-13T05:56:28Z</time>
      </trkpt>
      <trkpt lat="45.19967" lon="5.98488">
        <ele>2296.4379882812</ele>
        <time>2017-05-13T05:56:32Z</time>
      </trkpt>
      <trkpt lat="45.19969" lon="5.98481">
        <ele>2300.4379882812</ele>
        <time>2017-05-13T05:56:44Z</time>
      </trkpt>
      <trkpt lat="45.19964" lon="5.98484">
        <ele>2304.4379882812</ele>
        <time>2017-05-13T05:57:56Z</time>
      </trkpt>
      <trkpt lat="45.1996" lon="5.98487">
        <ele>2310.4379882812</ele>
        <time>2017-05-13T05:58:02Z</time>
      </trkpt>
      <trkpt lat="45.19957" lon="5.9848">
        <ele>2310.4379882812</ele>
        <time>2017-05-13T05:58:15Z</time>
      </trkpt>
      <trkpt lat="45.19957" lon="5.98472">
        <ele>2315.4379882812</ele>
        <time>2017-05-13T05:58:22Z</time>
      </trkpt>
      <trkpt lat="45.19959" lon="5.98466">
        <ele>2320.4379882812</ele>
        <time>2017-05-13T05:58:28Z</time>
      </trkpt>
      <trkpt lat="45.1996" lon="5.9846">
        <ele>2321.4379882812</ele>
        <time>2017-05-13T05:58:36Z</time>
      </trkpt>
      <trkpt lat="45.19965" lon="5.98455">
        <ele>2323.4379882812</ele>
        <time>2017-05-13T05:58:45Z</time>
      </trkpt>
      <trkpt lat="45.19961" lon="5.98453">
        <ele>2323.4379882812</ele>
        <time>2017-05-13T05:58:53Z</time>
      </trkpt>
      <trkpt lat="45.19964" lon="5.98447">
        <ele>2324.4379882812</ele>
        <time>2017-05-13T05:58:58Z</time>
      </trkpt>
      <trkpt lat="45.1996" lon="5.98443">
        <ele>2327.4379882812</ele>
        <time>2017-05-13T05:59:08Z</time>
      </trkpt>
      <trkpt lat="45.19957" lon="5.9845">
        <ele>2342.4379882812</ele>
        <time>2017-05-13T05:59:44Z</time>
      </trkpt>
      <trkpt lat="45.19952" lon="5.98452">
        <ele>2344.4379882812</ele>
        <time>2017-05-13T05:59:49Z</time>
      </trkpt>
      <trkpt lat="45.19953" lon="5.98446">
        <ele>2343.4379882812</ele>
        <time>2017-05-13T06:00:10Z</time>
      </trkpt>
      <trkpt lat="45.19953" lon="5.98439">
        <ele>2343.4379882812</ele>
        <time>2017-05-13T06:00:17Z</time>
      </trkpt>
      <trkpt lat="45.19956" lon="5.98433">
        <ele>2354.4379882812</ele>
        <time>2017-05-13T06:00:46Z</time>
      </trkpt>
      <trkpt lat="45.19954" lon="5.98427">
        <ele>2351.4379882812</ele>
        <time>2017-05-13T06:00:58Z</time>
      </trkpt>
      <trkpt lat="45.19948" lon="5.98427">
        <ele>2350.4379882812</ele>
        <time>2017-05-13T06:01:15Z</time>
      </trkpt>
      <trkpt lat="45.19944" lon="5.98425">
        <ele>2350.4379882812</ele>
        <time>2017-05-13T06:01:22Z</time>
      </trkpt>
      <trkpt lat="45.19945" lon="5.98418">
        <ele>2353.4379882812</ele>
        <time>2017-05-13T06:01:43Z</time>
      </trkpt>
      <trkpt lat="45.19949" lon="5.98413">
        <ele>2358.4379882812</ele>
        <time>2017-05-13T06:01:51Z</time>
      </trkpt>
      <trkpt lat="45.19949" lon="5.98406">
        <ele>2362.4379882812</ele>
        <time>2017-05-13T06:02:01Z</time>
      </trkpt>
      <trkpt lat="45.19944" lon="5.98403">
        <ele>2363.4379882812</ele>
        <time>2017-05-13T06:02:45Z</time>
      </trkpt>
      <trkpt lat="45.1994" lon="5.984">
        <ele>2367.4379882812</ele>
        <time>2017-05-13T06:02:47Z</time>
      </trkpt>
      <trkpt lat="45.19946" lon="5.98395">
        <ele>2375.4379882812</ele>
        <time>2017-05-13T06:03:13Z</time>
      </trkpt>
      <trkpt lat="45.19944" lon="5.98388">
        <ele>2378.4379882812</ele>
        <time>2017-05-13T06:03:34Z</time>
      </trkpt>
      <trkpt lat="45.19946" lon="5.98382">
        <ele>2379.4379882812</ele>
        <time>2017-05-13T06:03:39Z</time>
      </trkpt>
      <trkpt lat="45.1995" lon="5.98376">
        <ele>2378.4379882812</ele>
        <time>2017-05-13T06:03:52Z</time>
      </trkpt>
      <trkpt lat="45.19955" lon="5.98373">
        <ele>2380.4379882812</ele>
        <time>2017-05-13T06:03:57Z</time>
      </trkpt>
      <trkpt lat="45.19956" lon="5.98367">
        <ele>2385.4379882812</ele>
        <time>2017-05-13T06:04:07Z</time>
      </trkpt>
      <trkpt lat="45.19952" lon="5.98364">
        <ele>2386.4379882812</ele>
        <time>2017-05-13T06:04:14Z</time>
      </trkpt>
      <trkpt lat="45.19945" lon="5.98362">
        <ele>2387.4379882812</ele>
        <time>2017-05-13T06:04:19Z</time>
      </trkpt>
      <trkpt lat="45.1994" lon="5.9836">
        <ele>2387.4379882812</ele>
        <time>2017-05-13T06:04:22Z</time>
      </trkpt>
      <trkpt lat="45.19946" lon="5.98363">
        <ele>2388.4379882812</ele>
        <time>2017-05-13T06:04:24Z</time>
      </trkpt>
      <trkpt lat="45.19952" lon="5.98362">
        <ele>2388.4379882812</ele>
        <time>2017-05-13T06:04:27Z</time>
      </trkpt>
      <trkpt lat="45.19957" lon="5.98362">
        <ele>2389.4379882812</ele>
        <time>2017-05-13T06:04:30Z</time>
      </trkpt>
      <trkpt lat="45.1996" lon="5.98355">
        <ele>2395.4379882812</ele>
        <time>2017-05-13T06:04:51Z</time>
      </trkpt>
      <trkpt lat="45.19957" lon="5.9835">
        <ele>2396.4379882812</ele>
        <time>2017-05-13T06:05:08Z</time>
      </trkpt>
      <trkpt lat="45.19951" lon="5.98347">
        <ele>2395.4379882812</ele>
        <time>2017-05-13T06:05:14Z</time>
      </trkpt>
      <trkpt lat="45.19951" lon="5.98339">
        <ele>2396.4379882812</ele>
        <time>2017-05-13T06:05:29Z</time>
      </trkpt>
      <trkpt lat="45.19956" lon="5.98338">
        <ele>2401.4379882812</ele>
        <time>2017-05-13T06:05:33Z</time>
      </trkpt>
      <trkpt lat="45.19958" lon="5.98333">
        <ele>2406.4379882812</ele>
        <time>2017-05-13T06:05:48Z</time>
      </trkpt>
      <trkpt lat="45.19963" lon="5.98332">
        <ele>2407.4379882812</ele>
        <time>2017-05-13T06:05:51Z</time>
      </trkpt>
      <trkpt lat="45.19968" lon="5.98328">
        <ele>2408.4379882812</ele>
        <time>2017-05-13T06:05:55Z</time>
      </trkpt>
      <trkpt lat="45.19964" lon="5.98328">
        <ele>2408.4379882812</ele>
        <time>2017-05-13T06:06:05Z</time>
      </trkpt>
      <trkpt lat="45.19962" lon="5.98322">
        <ele>2411.4379882812</ele>
        <time>2017-05-13T06:06:51Z</time>
      </trkpt>
      <trkpt lat="45.19965" lon="5.98316">
        <ele>2414.4379882812</ele>
        <time>2017-05-13T06:07:01Z</time>
      </trkpt>
      <trkpt lat="45.19966" lon="5.9831">
        <ele>2422.4379882812</ele>
        <time>2017-05-13T06:07:18Z</time>
      </trkpt>
      <trkpt lat="45.19964" lon="5.98303">
        <ele>2422.4379882812</ele>
        <time>2017-05-13T06:07:27Z</time>
      </trkpt>
      <trkpt lat="45.19961" lon="5.98299">
        <ele>2422.4379882812</ele>
        <time>2017-05-13T06:07:33Z</time>
      </trkpt>
      <trkpt lat="45.19955" lon="5.98297">
        <ele>2424.4379882812</ele>
        <time>2017-05-13T06:07:48Z</time>
      </trkpt>
      <trkpt lat="45.19953" lon="5.98289">
        <ele>2424.4379882812</ele>
        <time>2017-05-13T06:07:55Z</time>
      </trkpt>
      <trkpt lat="45.19958" lon="5.98291">
        <ele>2427.4379882812</ele>
        <time>2017-05-13T06:08:06Z</time>
      </trkpt>
      <trkpt lat="45.19962" lon="5.98288">
        <ele>2434.4379882812</ele>
        <time>2017-05-13T06:08:29Z</time>
      </trkpt>
      <trkpt lat="45.19957" lon="5.98284">
        <ele>2440.4379882812</ele>
        <time>2017-05-13T06:08:55Z</time>
      </trkpt>
      <trkpt lat="45.19955" lon="5.98278">
        <ele>2438.4379882812</ele>
        <time>2017-05-13T06:09:06Z</time>
      </trkpt>
      <trkpt lat="45.1995" lon="5.98276">
        <ele>2440.4370117188</ele>
        <time>2017-05-13T06:09:21Z</time>
      </trkpt>
      <trkpt lat="45.19951" lon="5.98269">
        <ele>2435.4370117188</ele>
        <time>2017-05-13T06:09:34Z</time>
      </trkpt>
      <trkpt lat="45.19955" lon="5.98265">
        <ele>2439.4370117188</ele>
        <time>2017-05-13T06:09:48Z</time>
      </trkpt>
      <trkpt lat="45.19959" lon="5.98261">
        <ele>2443.4370117188</ele>
        <time>2017-05-13T06:10:09Z</time>
      </trkpt>
      <trkpt lat="45.19963" lon="5.98257">
        <ele>2445.4370117188</ele>
        <time>2017-05-13T06:10:21Z</time>
      </trkpt>
      <trkpt lat="45.19959" lon="5.98252">
        <ele>2449.4370117188</ele>
        <time>2017-05-13T06:10:34Z</time>
      </trkpt>
      <trkpt lat="45.19956" lon="5.98248">
        <ele>2453.4370117188</ele>
        <time>2017-05-13T06:10:41Z</time>
      </trkpt>
      <trkpt lat="45.1996" lon="5.98244">
        <ele>2462.4370117188</ele>
        <time>2017-05-13T06:11:16Z</time>
      </trkpt>
      <trkpt lat="45.19961" lon="5.98237">
        <ele>2461.4370117188</ele>
        <time>2017-05-13T06:11:35Z</time>
      </trkpt>
      <trkpt lat="45.19966" lon="5.98235">
        <ele>2461.4370117188</ele>
        <time>2017-05-13T06:11:41Z</time>
      </trkpt>
      <trkpt lat="45.1997" lon="5.98231">
        <ele>2467.4370117188</ele>
        <time>2017-05-13T06:12:35Z</time>
      </trkpt>
      <trkpt lat="45.19968" lon="5.98224">
        <ele>2469.4370117188</ele>
        <time>2017-05-13T06:12:49Z</time>
      </trkpt>
      <trkpt lat="45.19968" lon="5.98217">
        <ele>2471.4370117188</ele>
        <time>2017-05-13T06:13:07Z</time>
      </trkpt>
      <trkpt lat="45.19969" lon="5.98209">
        <ele>2472.4370117188</ele>
        <time>2017-05-13T06:13:25Z</time>
      </trkpt>
      <trkpt lat="45.19976" lon="5.9821">
        <ele>2481.4370117188</ele>
        <time>2017-05-13T06:14:08Z</time>
      </trkpt>
      <trkpt lat="45.1998" lon="5.9821">
        <ele>2482.4370117188</ele>
        <time>2017-05-13T06:14:18Z</time>
      </trkpt>
      <trkpt lat="45.19986" lon="5.98207">
        <ele>2487.4370117188</ele>
        <time>2017-05-13T06:14:47Z</time>
      </trkpt>
      <trkpt lat="45.19985" lon="5.98201">
        <ele>2486.4370117188</ele>
        <time>2017-05-13T06:14:55Z</time>
      </trkpt>
      <trkpt lat="45.19987" lon="5.98194">
        <ele>2489.4370117188</ele>
        <time>2017-05-13T06:14:59Z</time>
      </trkpt>
      <trkpt lat="45.1999" lon="5.98188">
        <ele>2491.4370117188</ele>
        <time>2017-05-13T06:15:05Z</time>
      </trkpt>
      <trkpt lat="45.19994" lon="5.98183">
        <ele>2494.4370117188</ele>
        <time>2017-05-13T06:15:12Z</time>
      </trkpt>
      <trkpt lat="45.19995" lon="5.98177">
        <ele>2495.4370117188</ele>
        <time>2017-05-13T06:15:25Z</time>
      </trkpt>
      <trkpt lat="45.19999" lon="5.9817">
        <ele>2494.4370117188</ele>
        <time>2017-05-13T06:15:31Z</time>
      </trkpt>
      <trkpt lat="45.20002" lon="5.98164">
        <ele>2496.4370117188</ele>
        <time>2017-05-13T06:15:41Z</time>
      </trkpt>
      <trkpt lat="45.20005" lon="5.98159">
        <ele>2499.4370117188</ele>
        <time>2017-05-13T06:15:46Z</time>
      </trkpt>
      <trkpt lat="45.20009" lon="5.98153">
        <ele>2500.4370117188</ele>
        <time>2017-05-13T06:15:53Z</time>
      </trkpt>
      <trkpt lat="45.20011" lon="5.98148">
        <ele>2498.4370117188</ele>
        <time>2017-05-13T06:15:57Z</time>
      </trkpt>
      <trkpt lat="45.20015" lon="5.98141">
        <ele>2498.4370117188</ele>
        <time>2017-05-13T06:16:00Z</time>
      </trkpt>
      <trkpt lat="45.20021" lon="5.98134">
        <ele>2496.4370117188</ele>
        <time>2017-05-13T06:16:02Z</time>
      </trkpt>
      <trkpt lat="45.20025" lon="5.98129">
        <ele>2494.4370117188</ele>
        <time>2017-05-13T06:16:03Z</time>
      </trkpt>
      <trkpt lat="45.20037" lon="5.98119">
        <ele>2492.4370117188</ele>
        <time>2017-05-13T06:16:05Z</time>
      </trkpt>
      <trkpt lat="45.20047" lon="5.98111">
        <ele>2491.4370117188</ele>
        <time>2017-05-13T06:16:07Z</time>
      </trkpt>
      <trkpt lat="45.20058" lon="5.98104">
        <ele>2491.4370117188</ele>
        <time>2017-05-13T06:16:13Z</time>
      </trkpt>
      <trkpt lat="45.20064" lon="5.98103">
        <ele>2492.4370117188</ele>
        <time>2017-05-13T06:16:16Z</time>
      </trkpt>
      <trkpt lat="45.20068" lon="5.98102">
        <ele>2496.4370117188</ele>
        <time>2017-05-13T06:16:21Z</time>
      </trkpt>
      <trkpt lat="45.20073" lon="5.98102">
        <ele>2499.4370117188</ele>
        <time>2017-05-13T06:16:29Z</time>
      </trkpt>
      <trkpt lat="45.20078" lon="5.98105">
        <ele>2500.4379882812</ele>
        <time>2017-05-13T06:16:41Z</time>
      </trkpt>
      <trkpt lat="45.20082" lon="5.98106">
        <ele>2500.4379882812</ele>
        <time>2017-05-13T06:17:00Z</time>
      </trkpt>
      <trkpt lat="45.20087" lon="5.98107">
        <ele>2499.4379882812</ele>
        <time>2017-05-13T06:17:05Z</time>
      </trkpt>
      <trkpt lat="45.20092" lon="5.98111">
        <ele>2498.4379882812</ele>
        <time>2017-05-13T06:17:08Z</time>
      </trkpt>
      <trkpt lat="45.20096" lon="5.98114">
        <ele>2497.4379882812</ele>
        <time>2017-05-13T06:17:10Z</time>
      </trkpt>
      <trkpt lat="45.20101" lon="5.98118">
        <ele>2496.4379882812</ele>
        <time>2017-05-13T06:17:12Z</time>
      </trkpt>
      <trkpt lat="45.20105" lon="5.98121">
        <ele>2496.4379882812</ele>
        <time>2017-05-13T06:17:14Z</time>
      </trkpt>
      <trkpt lat="45.2011" lon="5.98126">
        <ele>2496.4379882812</ele>
        <time>2017-05-13T06:17:18Z</time>
      </trkpt>
      <trkpt lat="45.20113" lon="5.98132">
        <ele>2498.4379882812</ele>
        <time>2017-05-13T06:17:22Z</time>
      </trkpt>
      <trkpt lat="45.20119" lon="5.98133">
        <ele>2498.4379882812</ele>
        <time>2017-05-13T06:17:25Z</time>
      </trkpt>
      <trkpt lat="45.20123" lon="5.98134">
        <ele>2499.4379882812</ele>
        <time>2017-05-13T06:17:28Z</time>
      </trkpt>
      <trkpt lat="45.20129" lon="5.98137">
        <ele>2501.4379882812</ele>
        <time>2017-05-13T06:17:35Z</time>
      </trkpt>
      <trkpt lat="45.20133" lon="5.9814">
        <ele>2498.4379882812</ele>
        <time>2017-05-13T06:17:40Z</time>
      </trkpt>
      <trkpt lat="45.20139" lon="5.98139">
        <ele>2500.4379882812</ele>
        <time>2017-05-13T06:17:52Z</time>
      </trkpt>
      <trkpt lat="45.20144" lon="5.98138">
        <ele>2501.4379882812</ele>
        <time>2017-05-13T06:17:55Z</time>
      </trkpt>
      <trkpt lat="45.20151" lon="5.98138">
        <ele>2502.4379882812</ele>
        <time>2017-05-13T06:17:59Z</time>
      </trkpt>
      <trkpt lat="45.20157" lon="5.98139">
        <ele>2503.4379882812</ele>
        <time>2017-05-13T06:18:04Z</time>
      </trkpt>
      <trkpt lat="45.20162" lon="5.98141">
        <ele>2501.4379882812</ele>
        <time>2017-05-13T06:18:08Z</time>
      </trkpt>
      <trkpt lat="45.20167" lon="5.98143">
        <ele>2500.4379882812</ele>
        <time>2017-05-13T06:18:18Z</time>
      </trkpt>
      <trkpt lat="45.20174" lon="5.9814">
        <ele>2502.4379882812</ele>
        <time>2017-05-13T06:18:27Z</time>
      </trkpt>
      <trkpt lat="45.20178" lon="5.98138">
        <ele>2503.4379882812</ele>
        <time>2017-05-13T06:18:33Z</time>
      </trkpt>
      <trkpt lat="45.20183" lon="5.98138">
        <ele>2504.4379882812</ele>
        <time>2017-05-13T06:18:38Z</time>
      </trkpt>
      <trkpt lat="45.20189" lon="5.98138">
        <ele>2506.4379882812</ele>
        <time>2017-05-13T06:18:41Z</time>
      </trkpt>
      <trkpt lat="45.20193" lon="5.98135">
        <ele>2511.4379882812</ele>
        <time>2017-05-13T06:18:45Z</time>
      </trkpt>
      <trkpt lat="45.20198" lon="5.98133">
        <ele>2512.4379882812</ele>
        <time>2017-05-13T06:19:15Z</time>
      </trkpt>
      <trkpt lat="45.20201" lon="5.98127">
        <ele>2511.4379882812</ele>
        <time>2017-05-13T06:19:19Z</time>
      </trkpt>
      <trkpt lat="45.20205" lon="5.98123">
        <ele>2512.4379882812</ele>
        <time>2017-05-13T06:19:27Z</time>
      </trkpt>
      <trkpt lat="45.20209" lon="5.98116">
        <ele>2507.4379882812</ele>
        <time>2017-05-13T06:24:16Z</time>
      </trkpt>
      <trkpt lat="45.20213" lon="5.98107">
        <ele>2505.4379882812</ele>
        <time>2017-05-13T06:24:19Z</time>
      </trkpt>
      <trkpt lat="45.20217" lon="5.98101">
        <ele>2503.4379882812</ele>
        <time>2017-05-13T06:24:22Z</time>
      </trkpt>
      <trkpt lat="45.20221" lon="5.98096">
        <ele>2501.4379882812</ele>
        <time>2017-05-13T06:24:32Z</time>
      </trkpt>
      <trkpt lat="45.20225" lon="5.981">
        <ele>2499.4379882812</ele>
        <time>2017-05-13T06:25:05Z</time>
      </trkpt>
      <trkpt lat="45.20229" lon="5.98106">
        <ele>2499.4379882812</ele>
        <time>2017-05-13T06:25:08Z</time>
      </trkpt>
      <trkpt lat="45.20231" lon="5.98112">
        <ele>2497.4379882812</ele>
        <time>2017-05-13T06:25:11Z</time>
      </trkpt>
      <trkpt lat="45.20236" lon="5.9811">
        <ele>2493.4379882812</ele>
        <time>2017-05-13T06:25:25Z</time>
      </trkpt>
      <trkpt lat="45.20239" lon="5.98114">
        <ele>2489.4379882812</ele>
        <time>2017-05-13T06:25:32Z</time>
      </trkpt>
      <trkpt lat="45.20238" lon="5.98121">
        <ele>2489.4379882812</ele>
        <time>2017-05-13T06:26:10Z</time>
      </trkpt>
      <trkpt lat="45.20242" lon="5.98115">
        <ele>2485.4379882812</ele>
        <time>2017-05-13T06:26:31Z</time>
      </trkpt>
      <trkpt lat="45.20245" lon="5.9811">
        <ele>2481.4379882812</ele>
        <time>2017-05-13T06:26:38Z</time>
      </trkpt>
      <trkpt lat="45.20249" lon="5.98105">
        <ele>2476.4379882812</ele>
        <time>2017-05-13T06:26:59Z</time>
      </trkpt>
      <trkpt lat="45.20255" lon="5.98106">
        <ele>2473.4379882812</ele>
        <time>2017-05-13T06:27:31Z</time>
      </trkpt>
      <trkpt lat="45.20258" lon="5.9811">
        <ele>2475.4379882812</ele>
        <time>2017-05-13T06:28:12Z</time>
      </trkpt>
      <trkpt lat="45.20261" lon="5.98116">
        <ele>2472.4379882812</ele>
        <time>2017-05-13T06:28:28Z</time>
      </trkpt>
      <trkpt lat="45.20265" lon="5.98123">
        <ele>2467.4379882812</ele>
        <time>2017-05-13T06:28:41Z</time>
      </trkpt>
      <trkpt lat="45.20268" lon="5.98131">
        <ele>2463.4379882812</ele>
        <time>2017-05-13T06:28:45Z</time>
      </trkpt>
      <trkpt lat="45.20272" lon="5.98136">
        <ele>2461.4379882812</ele>
        <time>2017-05-13T06:28:47Z</time>
      </trkpt>
      <trkpt lat="45.20278" lon="5.98133">
        <ele>2456.4379882812</ele>
        <time>2017-05-13T06:28:52Z</time>
      </trkpt>
      <trkpt lat="45.20278" lon="5.98126">
        <ele>2452.4379882812</ele>
        <time>2017-05-13T06:29:08Z</time>
      </trkpt>
      <trkpt lat="45.2028" lon="5.98118">
        <ele>2445.4379882812</ele>
        <time>2017-05-13T06:29:19Z</time>
      </trkpt>
      <trkpt lat="45.20286" lon="5.98123">
        <ele>2438.4379882812</ele>
        <time>2017-05-13T06:29:22Z</time>
      </trkpt>
      <trkpt lat="45.20291" lon="5.98122">
        <ele>2435.4379882812</ele>
        <time>2017-05-13T06:29:24Z</time>
      </trkpt>
      <trkpt lat="45.20295" lon="5.98117">
        <ele>2432.4379882812</ele>
        <time>2017-05-13T06:29:45Z</time>
      </trkpt>
      <trkpt lat="45.20295" lon="5.9811">
        <ele>2428.4379882812</ele>
        <time>2017-05-13T06:30:07Z</time>
      </trkpt>
      <trkpt lat="45.20303" lon="5.98115">
        <ele>2427.4379882812</ele>
        <time>2017-05-13T06:30:10Z</time>
      </trkpt>
      <trkpt lat="45.20304" lon="5.98108">
        <ele>2425.4379882812</ele>
        <time>2017-05-13T06:30:22Z</time>
      </trkpt>
      <trkpt lat="45.20306" lon="5.98098">
        <ele>2422.4379882812</ele>
        <time>2017-05-13T06:30:25Z</time>
      </trkpt>
      <trkpt lat="45.20311" lon="5.98094">
        <ele>2419.4379882812</ele>
        <time>2017-05-13T06:30:31Z</time>
      </trkpt>
      <trkpt lat="45.2031" lon="5.98085">
        <ele>2414.4379882812</ele>
        <time>2017-05-13T06:30:34Z</time>
      </trkpt>
      <trkpt lat="45.20309" lon="5.98077">
        <ele>2412.4379882812</ele>
        <time>2017-05-13T06:30:37Z</time>
      </trkpt>
      <trkpt lat="45.20309" lon="5.98069">
        <ele>2409.4379882812</ele>
        <time>2017-05-13T06:30:39Z</time>
      </trkpt>
      <trkpt lat="45.20313" lon="5.98062">
        <ele>2406.4379882812</ele>
        <time>2017-05-13T06:30:41Z</time>
      </trkpt>
      <trkpt lat="45.20319" lon="5.98049">
        <ele>2402.4379882812</ele>
        <time>2017-05-13T06:30:45Z</time>
      </trkpt>
      <trkpt lat="45.20321" lon="5.98063">
        <ele>2399.4379882812</ele>
        <time>2017-05-13T06:30:47Z</time>
      </trkpt>
      <trkpt lat="45.20321" lon="5.98054">
        <ele>2393.4379882812</ele>
        <time>2017-05-13T06:30:51Z</time>
      </trkpt>
      <trkpt lat="45.2032" lon="5.98047">
        <ele>2391.4379882812</ele>
        <time>2017-05-13T06:30:54Z</time>
      </trkpt>
      <trkpt lat="45.20324" lon="5.9805">
        <ele>2384.4379882812</ele>
        <time>2017-05-13T06:30:58Z</time>
      </trkpt>
      <trkpt lat="45.20322" lon="5.9804">
        <ele>2379.4379882812</ele>
        <time>2017-05-13T06:31:01Z</time>
      </trkpt>
      <trkpt lat="45.20322" lon="5.98033">
        <ele>2375.4379882812</ele>
        <time>2017-05-13T06:31:03Z</time>
      </trkpt>
      <trkpt lat="45.20328" lon="5.98035">
        <ele>2373.4379882812</ele>
        <time>2017-05-13T06:31:06Z</time>
      </trkpt>
      <trkpt lat="45.20332" lon="5.9803">
        <ele>2369.4379882812</ele>
        <time>2017-05-13T06:31:10Z</time>
      </trkpt>
      <trkpt lat="45.20338" lon="5.98027">
        <ele>2370.4379882812</ele>
        <time>2017-05-13T06:31:12Z</time>
      </trkpt>
      <trkpt lat="45.20343" lon="5.98024">
        <ele>2367.4379882812</ele>
        <time>2017-05-13T06:31:14Z</time>
      </trkpt>
      <trkpt lat="45.20344" lon="5.98018">
        <ele>2364.4379882812</ele>
        <time>2017-05-13T06:31:16Z</time>
      </trkpt>
      <trkpt lat="45.20348" lon="5.98015">
        <ele>2361.4379882812</ele>
        <time>2017-05-13T06:31:21Z</time>
      </trkpt>
      <trkpt lat="45.20353" lon="5.98019">
        <ele>2361.4379882812</ele>
        <time>2017-05-13T06:31:23Z</time>
      </trkpt>
      <trkpt lat="45.20359" lon="5.9802">
        <ele>2360.4379882812</ele>
        <time>2017-05-13T06:31:25Z</time>
      </trkpt>
      <trkpt lat="45.20354" lon="5.98012">
        <ele>2359.4379882812</ele>
        <time>2017-05-13T06:31:26Z</time>
      </trkpt>
      <trkpt lat="45.20351" lon="5.98006">
        <ele>2355.4379882812</ele>
        <time>2017-05-13T06:31:31Z</time>
      </trkpt>
      <trkpt lat="45.20356" lon="5.98005">
        <ele>2353.4379882812</ele>
        <time>2017-05-13T06:31:34Z</time>
      </trkpt>
      <trkpt lat="45.20361" lon="5.9801">
        <ele>2348.4379882812</ele>
        <time>2017-05-13T06:31:37Z</time>
      </trkpt>
      <trkpt lat="45.20361" lon="5.98">
        <ele>2344.4379882812</ele>
        <time>2017-05-13T06:31:42Z</time>
      </trkpt>
      <trkpt lat="45.20363" lon="5.97992">
        <ele>2342.4379882812</ele>
        <time>2017-05-13T06:31:45Z</time>
      </trkpt>
      <trkpt lat="45.20367" lon="5.97995">
        <ele>2339.4379882812</ele>
        <time>2017-05-13T06:31:49Z</time>
      </trkpt>
      <trkpt lat="45.20366" lon="5.97987">
        <ele>2332.4379882812</ele>
        <time>2017-05-13T06:31:52Z</time>
      </trkpt>
      <trkpt lat="45.20372" lon="5.97989">
        <ele>2322.4379882812</ele>
        <time>2017-05-13T06:31:58Z</time>
      </trkpt>
      <trkpt lat="45.2037" lon="5.97981">
        <ele>2320.4379882812</ele>
        <time>2017-05-13T06:32:01Z</time>
      </trkpt>
      <trkpt lat="45.20368" lon="5.97972">
        <ele>2315.4379882812</ele>
        <time>2017-05-13T06:32:05Z</time>
      </trkpt>
      <trkpt lat="45.20372" lon="5.97967">
        <ele>2315.4379882812</ele>
        <time>2017-05-13T06:32:17Z</time>
      </trkpt>
      <trkpt lat="45.20377" lon="5.97967">
        <ele>2313.4379882812</ele>
        <time>2017-05-13T06:32:19Z</time>
      </trkpt>
      <trkpt lat="45.20376" lon="5.97959">
        <ele>2310.4379882812</ele>
        <time>2017-05-13T06:32:21Z</time>
      </trkpt>
      <trkpt lat="45.20381" lon="5.97961">
        <ele>2303.4379882812</ele>
        <time>2017-05-13T06:32:33Z</time>
      </trkpt>
      <trkpt lat="45.20383" lon="5.97968">
        <ele>2301.4379882812</ele>
        <time>2017-05-13T06:32:35Z</time>
      </trkpt>
      <trkpt lat="45.20388" lon="5.9797">
        <ele>2300.4379882812</ele>
        <time>2017-05-13T06:32:37Z</time>
      </trkpt>
      <trkpt lat="45.20388" lon="5.97964">
        <ele>2295.4379882812</ele>
        <time>2017-05-13T06:32:44Z</time>
      </trkpt>
      <trkpt lat="45.20392" lon="5.97959">
        <ele>2292.4379882812</ele>
        <time>2017-05-13T06:32:46Z</time>
      </trkpt>
      <trkpt lat="45.20402" lon="5.97965">
        <ele>2287.4379882812</ele>
        <time>2017-05-13T06:32:50Z</time>
      </trkpt>
      <trkpt lat="45.20402" lon="5.97958">
        <ele>2284.4379882812</ele>
        <time>2017-05-13T06:32:57Z</time>
      </trkpt>
      <trkpt lat="45.20412" lon="5.97962">
        <ele>2271.4379882812</ele>
        <time>2017-05-13T06:33:04Z</time>
      </trkpt>
      <trkpt lat="45.20417" lon="5.97965">
        <ele>2271.4379882812</ele>
        <time>2017-05-13T06:33:08Z</time>
      </trkpt>
      <trkpt lat="45.20419" lon="5.97958">
        <ele>2261.4379882812</ele>
        <time>2017-05-13T06:33:18Z</time>
      </trkpt>
      <trkpt lat="45.20419" lon="5.97966">
        <ele>2258.4379882812</ele>
        <time>2017-05-13T06:33:23Z</time>
      </trkpt>
      <trkpt lat="45.20423" lon="5.97974">
        <ele>2258.4379882812</ele>
        <time>2017-05-13T06:33:25Z</time>
      </trkpt>
      <trkpt lat="45.20428" lon="5.9797">
        <ele>2255.4379882812</ele>
        <time>2017-05-13T06:33:30Z</time>
      </trkpt>
      <trkpt lat="45.20431" lon="5.97965">
        <ele>2256.4379882812</ele>
        <time>2017-05-13T06:33:33Z</time>
      </trkpt>
      <trkpt lat="45.20435" lon="5.97961">
        <ele>2254.4379882812</ele>
        <time>2017-05-13T06:33:36Z</time>
      </trkpt>
      <trkpt lat="45.20439" lon="5.97967">
        <ele>2253.4379882812</ele>
        <time>2017-05-13T06:33:38Z</time>
      </trkpt>
      <trkpt lat="45.20442" lon="5.97974">
        <ele>2251.4379882812</ele>
        <time>2017-05-13T06:33:40Z</time>
      </trkpt>
      <trkpt lat="45.20446" lon="5.97979">
        <ele>2251.4379882812</ele>
        <time>2017-05-13T06:33:42Z</time>
      </trkpt>
      <trkpt lat="45.20466" lon="5.97987">
        <ele>2248.4379882812</ele>
        <time>2017-05-13T06:33:44Z</time>
      </trkpt>
      <trkpt lat="45.20477" lon="5.97992">
        <ele>2247.4379882812</ele>
        <time>2017-05-13T06:33:46Z</time>
      </trkpt>
      <trkpt lat="45.20488" lon="5.97993">
        <ele>2247.4379882812</ele>
        <time>2017-05-13T06:33:49Z</time>
      </trkpt>
      <trkpt lat="45.20493" lon="5.97992">
        <ele>2247.4379882812</ele>
        <time>2017-05-13T06:33:52Z</time>
      </trkpt>
      <trkpt lat="45.20498" lon="5.9799">
        <ele>2246.4379882812</ele>
        <time>2017-05-13T06:33:55Z</time>
      </trkpt>
      <trkpt lat="45.20502" lon="5.9799">
        <ele>2246.4379882812</ele>
        <time>2017-05-13T06:34:33Z</time>
      </trkpt>
      <trkpt lat="45.20505" lon="5.97996">
        <ele>2243.4379882812</ele>
        <time>2017-05-13T06:35:00Z</time>
      </trkpt>
      <trkpt lat="45.20508" lon="5.98">
        <ele>2245.4379882812</ele>
        <time>2017-05-13T06:35:53Z</time>
      </trkpt>
      <trkpt lat="45.20514" lon="5.98002">
        <ele>2247.4379882812</ele>
        <time>2017-05-13T06:36:01Z</time>
      </trkpt>
      <trkpt lat="45.20517" lon="5.98006">
        <ele>2247.4379882812</ele>
        <time>2017-05-13T06:36:20Z</time>
      </trkpt>
      <trkpt lat="45.20522" lon="5.98009">
        <ele>2254.4379882812</ele>
        <time>2017-05-13T06:36:35Z</time>
      </trkpt>
      <trkpt lat="45.20528" lon="5.98012">
        <ele>2258.4379882812</ele>
        <time>2017-05-13T06:37:03Z</time>
      </trkpt>
      <trkpt lat="45.20531" lon="5.98017">
        <ele>2263.4379882812</ele>
        <time>2017-05-13T06:37:42Z</time>
      </trkpt>
      <trkpt lat="45.20534" lon="5.98022">
        <ele>2268.4379882812</ele>
        <time>2017-05-13T06:38:27Z</time>
      </trkpt>
      <trkpt lat="45.20537" lon="5.98027">
        <ele>2270.4379882812</ele>
        <time>2017-05-13T06:38:50Z</time>
      </trkpt>
      <trkpt lat="45.20544" lon="5.98028">
        <ele>2276.4379882812</ele>
        <time>2017-05-13T06:39:08Z</time>
      </trkpt>
      <trkpt lat="45.20539" lon="5.98031">
        <ele>2277.4379882812</ele>
        <time>2017-05-13T06:39:27Z</time>
      </trkpt>
      <trkpt lat="45.20541" lon="5.98037">
        <ele>2278.4379882812</ele>
        <time>2017-05-13T06:40:24Z</time>
      </trkpt>
      <trkpt lat="45.20546" lon="5.98038">
        <ele>2279.4379882812</ele>
        <time>2017-05-13T06:41:10Z</time>
      </trkpt>
      <trkpt lat="45.20549" lon="5.98043">
        <ele>2279.4379882812</ele>
        <time>2017-05-13T06:41:23Z</time>
      </trkpt>
      <trkpt lat="45.20554" lon="5.98043">
        <ele>2282.4379882812</ele>
        <time>2017-05-13T06:42:19Z</time>
      </trkpt>
      <trkpt lat="45.20555" lon="5.98035">
        <ele>2283.4379882812</ele>
        <time>2017-05-13T06:42:33Z</time>
      </trkpt>
      <trkpt lat="45.20557" lon="5.98029">
        <ele>2286.4379882812</ele>
        <time>2017-05-13T06:42:45Z</time>
      </trkpt>
      <trkpt lat="45.2056" lon="5.98023">
        <ele>2284.4379882812</ele>
        <time>2017-05-13T06:42:52Z</time>
      </trkpt>
      <trkpt lat="45.20563" lon="5.98016">
        <ele>2284.4379882812</ele>
        <time>2017-05-13T06:43:07Z</time>
      </trkpt>
      <trkpt lat="45.20567" lon="5.98014">
        <ele>2290.4379882812</ele>
        <time>2017-05-13T06:43:21Z</time>
      </trkpt>
      <trkpt lat="45.20569" lon="5.98021">
        <ele>2294.4379882812</ele>
        <time>2017-05-13T06:44:35Z</time>
      </trkpt>
      <trkpt lat="45.20573" lon="5.98026">
        <ele>2294.4379882812</ele>
        <time>2017-05-13T06:44:39Z</time>
      </trkpt>
      <trkpt lat="45.20574" lon="5.98033">
        <ele>2292.4379882812</ele>
        <time>2017-05-13T06:44:42Z</time>
      </trkpt>
      <trkpt lat="45.2058" lon="5.98036">
        <ele>2292.4379882812</ele>
        <time>2017-05-13T06:44:50Z</time>
      </trkpt>
      <trkpt lat="45.20584" lon="5.9804">
        <ele>2292.4379882812</ele>
        <time>2017-05-13T06:44:54Z</time>
      </trkpt>
      <trkpt lat="45.2059" lon="5.9804">
        <ele>2288.4379882812</ele>
        <time>2017-05-13T06:44:59Z</time>
      </trkpt>
      <trkpt lat="45.20589" lon="5.98047">
        <ele>2286.4379882812</ele>
        <time>2017-05-13T06:45:02Z</time>
      </trkpt>
      <trkpt lat="45.20593" lon="5.98051">
        <ele>2276.4379882812</ele>
        <time>2017-05-13T06:45:36Z</time>
      </trkpt>
      <trkpt lat="45.20597" lon="5.98056">
        <ele>2272.4379882812</ele>
        <time>2017-05-13T06:45:45Z</time>
      </trkpt>
      <trkpt lat="45.20599" lon="5.98062">
        <ele>2267.4379882812</ele>
        <time>2017-05-13T06:45:52Z</time>
      </trkpt>
      <trkpt lat="45.20604" lon="5.98071">
        <ele>2265.4389648438</ele>
        <time>2017-05-13T06:46:00Z</time>
      </trkpt>
      <trkpt lat="45.20611" lon="5.9808">
        <ele>2266.4389648438</ele>
        <time>2017-05-13T06:46:02Z</time>
      </trkpt>
      <trkpt lat="45.20616" lon="5.98093">
        <ele>2264.4389648438</ele>
        <time>2017-05-13T06:46:04Z</time>
      </trkpt>
      <trkpt lat="45.20621" lon="5.981">
        <ele>2263.4389648438</ele>
        <time>2017-05-13T06:46:06Z</time>
      </trkpt>
      <trkpt lat="45.20626" lon="5.98103">
        <ele>2257.4389648438</ele>
        <time>2017-05-13T06:46:10Z</time>
      </trkpt>
      <trkpt lat="45.20633" lon="5.98108">
        <ele>2253.4389648438</ele>
        <time>2017-05-13T06:46:26Z</time>
      </trkpt>
      <trkpt lat="45.20632" lon="5.98117">
        <ele>2251.4389648438</ele>
        <time>2017-05-13T06:46:28Z</time>
      </trkpt>
      <trkpt lat="45.20636" lon="5.98124">
        <ele>2250.4389648438</ele>
        <time>2017-05-13T06:46:30Z</time>
      </trkpt>
      <trkpt lat="45.20643" lon="5.9813">
        <ele>2245.4389648438</ele>
        <time>2017-05-13T06:46:33Z</time>
      </trkpt>
      <trkpt lat="45.20649" lon="5.9814">
        <ele>2243.4389648438</ele>
        <time>2017-05-13T06:46:35Z</time>
      </trkpt>
      <trkpt lat="45.20654" lon="5.98151">
        <ele>2242.4389648438</ele>
        <time>2017-05-13T06:46:37Z</time>
      </trkpt>
      <trkpt lat="45.2066" lon="5.98162">
        <ele>2236.4389648438</ele>
        <time>2017-05-13T06:46:40Z</time>
      </trkpt>
      <trkpt lat="45.20669" lon="5.98169">
        <ele>2232.4389648438</ele>
        <time>2017-05-13T06:46:43Z</time>
      </trkpt>
      <trkpt lat="45.20676" lon="5.98182">
        <ele>2229.4389648438</ele>
        <time>2017-05-13T06:46:45Z</time>
      </trkpt>
      <trkpt lat="45.20686" lon="5.98194">
        <ele>2228.4389648438</ele>
        <time>2017-05-13T06:46:47Z</time>
      </trkpt>
      <trkpt lat="45.2069" lon="5.98211">
        <ele>2226.4389648438</ele>
        <time>2017-05-13T06:46:49Z</time>
      </trkpt>
      <trkpt lat="45.20686" lon="5.98218">
        <ele>2227.4389648438</ele>
        <time>2017-05-13T06:46:50Z</time>
      </trkpt>
      <trkpt lat="45.20682" lon="5.98225">
        <ele>2225.4389648438</ele>
        <time>2017-05-13T06:46:51Z</time>
      </trkpt>
      <trkpt lat="45.20676" lon="5.98227">
        <ele>2215.4389648438</ele>
        <time>2017-05-13T06:46:57Z</time>
      </trkpt>
      <trkpt lat="45.20681" lon="5.98234">
        <ele>2211.4389648438</ele>
        <time>2017-05-13T06:47:01Z</time>
      </trkpt>
      <trkpt lat="45.20684" lon="5.98245">
        <ele>2208.4389648438</ele>
        <time>2017-05-13T06:47:03Z</time>
      </trkpt>
      <trkpt lat="45.20689" lon="5.98265">
        <ele>2208.4389648438</ele>
        <time>2017-05-13T06:47:06Z</time>
      </trkpt>
      <trkpt lat="45.20687" lon="5.98277">
        <ele>2205.4389648438</ele>
        <time>2017-05-13T06:47:08Z</time>
      </trkpt>
      <trkpt lat="45.20689" lon="5.98283">
        <ele>2203.4389648438</ele>
        <time>2017-05-13T06:47:11Z</time>
      </trkpt>
      <trkpt lat="45.20686" lon="5.98293">
        <ele>2196.4389648438</ele>
        <time>2017-05-13T06:47:23Z</time>
      </trkpt>
      <trkpt lat="45.20691" lon="5.98293">
        <ele>2187.4389648438</ele>
        <time>2017-05-13T06:47:40Z</time>
      </trkpt>
      <trkpt lat="45.20698" lon="5.98307">
        <ele>2186.4389648438</ele>
        <time>2017-05-13T06:47:42Z</time>
      </trkpt>
      <trkpt lat="45.20707" lon="5.98322">
        <ele>2184.4389648438</ele>
        <time>2017-05-13T06:47:44Z</time>
      </trkpt>
      <trkpt lat="45.20712" lon="5.9833">
        <ele>2183.4389648438</ele>
        <time>2017-05-13T06:47:45Z</time>
      </trkpt>
      <trkpt lat="45.20713" lon="5.98344">
        <ele>2181.4389648438</ele>
        <time>2017-05-13T06:47:47Z</time>
      </trkpt>
      <trkpt lat="45.20714" lon="5.98351">
        <ele>2180.4389648438</ele>
        <time>2017-05-13T06:47:49Z</time>
      </trkpt>
      <trkpt lat="45.20719" lon="5.98356">
        <ele>2179.4389648438</ele>
        <time>2017-05-13T06:47:51Z</time>
      </trkpt>
      <trkpt lat="45.20723" lon="5.98367">
        <ele>2174.4389648438</ele>
        <time>2017-05-13T06:47:53Z</time>
      </trkpt>
      <trkpt lat="45.20711" lon="5.98371">
        <ele>2165.4389648438</ele>
        <time>2017-05-13T06:47:55Z</time>
      </trkpt>
      <trkpt lat="45.20711" lon="5.98365">
        <ele>2159.4389648438</ele>
        <time>2017-05-13T06:47:58Z</time>
      </trkpt>
      <trkpt lat="45.20705" lon="5.98362">
        <ele>2151.4389648438</ele>
        <time>2017-05-13T06:48:03Z</time>
      </trkpt>
      <trkpt lat="45.20702" lon="5.98357">
        <ele>2146.4389648438</ele>
        <time>2017-05-13T06:48:05Z</time>
      </trkpt>
      <trkpt lat="45.20699" lon="5.98363">
        <ele>2134.4389648438</ele>
        <time>2017-05-13T06:48:14Z</time>
      </trkpt>
      <trkpt lat="45.20705" lon="5.98368">
        <ele>2131.4389648438</ele>
        <time>2017-05-13T06:48:16Z</time>
      </trkpt>
      <trkpt lat="45.20711" lon="5.98377">
        <ele>2123.4389648438</ele>
        <time>2017-05-13T06:48:19Z</time>
      </trkpt>
      <trkpt lat="45.20719" lon="5.98383">
        <ele>2120.4389648438</ele>
        <time>2017-05-13T06:48:21Z</time>
      </trkpt>
      <trkpt lat="45.20724" lon="5.98388">
        <ele>2119.4389648438</ele>
        <time>2017-05-13T06:48:22Z</time>
      </trkpt>
      <trkpt lat="45.20728" lon="5.98396">
        <ele>2113.4389648438</ele>
        <time>2017-05-13T06:48:25Z</time>
      </trkpt>
      <trkpt lat="45.20734" lon="5.98401">
        <ele>2111.4389648438</ele>
        <time>2017-05-13T06:48:27Z</time>
      </trkpt>
      <trkpt lat="45.20739" lon="5.98401">
        <ele>2106.4389648438</ele>
        <time>2017-05-13T06:48:29Z</time>
      </trkpt>
      <trkpt lat="45.20744" lon="5.98398">
        <ele>2098.4389648438</ele>
        <time>2017-05-13T06:48:33Z</time>
      </trkpt>
      <trkpt lat="45.20748" lon="5.98395">
        <ele>2091.4389648438</ele>
        <time>2017-05-13T06:48:36Z</time>
      </trkpt>
      <trkpt lat="45.20755" lon="5.98393">
        <ele>2087.4389648438</ele>
        <time>2017-05-13T06:48:38Z</time>
      </trkpt>
      <trkpt lat="45.20758" lon="5.98399">
        <ele>2081.4389648438</ele>
        <time>2017-05-13T06:48:40Z</time>
      </trkpt>
      <trkpt lat="45.20772" lon="5.98411">
        <ele>2075.4389648438</ele>
        <time>2017-05-13T06:48:43Z</time>
      </trkpt>
      <trkpt lat="45.20779" lon="5.98424">
        <ele>2069.4389648438</ele>
        <time>2017-05-13T06:48:46Z</time>
      </trkpt>
      <trkpt lat="45.20787" lon="5.98432">
        <ele>2066.4389648438</ele>
        <time>2017-05-13T06:48:48Z</time>
      </trkpt>
      <trkpt lat="45.20796" lon="5.98442">
        <ele>2062.4389648438</ele>
        <time>2017-05-13T06:48:50Z</time>
      </trkpt>
      <trkpt lat="45.20795" lon="5.98435">
        <ele>2024.4389648438</ele>
        <time>2017-05-13T06:49:05Z</time>
      </trkpt>
      <trkpt lat="45.208" lon="5.9844">
        <ele>2018.4389648438</ele>
        <time>2017-05-13T06:49:08Z</time>
      </trkpt>
      <trkpt lat="45.20806" lon="5.98442">
        <ele>2014.4389648438</ele>
        <time>2017-05-13T06:49:10Z</time>
      </trkpt>
      <trkpt lat="45.2081" lon="5.98445">
        <ele>2011.4389648438</ele>
        <time>2017-05-13T06:49:12Z</time>
      </trkpt>
      <trkpt lat="45.20815" lon="5.98446">
        <ele>2008.4389648438</ele>
        <time>2017-05-13T06:49:17Z</time>
      </trkpt>
      <trkpt lat="45.2082" lon="5.98449">
        <ele>2001.4389648438</ele>
        <time>2017-05-13T06:49:27Z</time>
      </trkpt>
      <trkpt lat="45.20824" lon="5.98449">
        <ele>1992.4389648438</ele>
        <time>2017-05-13T06:49:49Z</time>
      </trkpt>
      <trkpt lat="45.2083" lon="5.98452">
        <ele>1989.4399414062</ele>
        <time>2017-05-13T06:49:55Z</time>
      </trkpt>
      <trkpt lat="45.20837" lon="5.98454">
        <ele>1988.4399414062</ele>
        <time>2017-05-13T06:49:59Z</time>
      </trkpt>
      <trkpt lat="45.20842" lon="5.98455">
        <ele>1987.4399414062</ele>
        <time>2017-05-13T06:50:01Z</time>
      </trkpt>
      <trkpt lat="45.20847" lon="5.98456">
        <ele>1985.4399414062</ele>
        <time>2017-05-13T06:50:06Z</time>
      </trkpt>
      <trkpt lat="45.20853" lon="5.98455">
        <ele>1982.4399414062</ele>
        <time>2017-05-13T06:50:10Z</time>
      </trkpt>
      <trkpt lat="45.20858" lon="5.98457">
        <ele>1980.4399414062</ele>
        <time>2017-05-13T06:50:13Z</time>
      </trkpt>
      <trkpt lat="45.20863" lon="5.98459">
        <ele>1979.4399414062</ele>
        <time>2017-05-13T06:50:17Z</time>
      </trkpt>
      <trkpt lat="45.20868" lon="5.98459">
        <ele>1980.4399414062</ele>
        <time>2017-05-13T06:50:29Z</time>
      </trkpt>
      <trkpt lat="45.20873" lon="5.98461">
        <ele>1977.4399414062</ele>
        <time>2017-05-13T06:50:34Z</time>
      </trkpt>
      <trkpt lat="45.20878" lon="5.98463">
        <ele>1977.4399414062</ele>
        <time>2017-05-13T06:50:39Z</time>
      </trkpt>
      <trkpt lat="45.20883" lon="5.98467">
        <ele>1976.4399414062</ele>
        <time>2017-05-13T06:50:42Z</time>
      </trkpt>
      <trkpt lat="45.20888" lon="5.9847">
        <ele>1976.4399414062</ele>
        <time>2017-05-13T06:50:44Z</time>
      </trkpt>
      <trkpt lat="45.20894" lon="5.98471">
        <ele>1974.4399414062</ele>
        <time>2017-05-13T06:50:46Z</time>
      </trkpt>
      <trkpt lat="45.20899" lon="5.98472">
        <ele>1973.4399414062</ele>
        <time>2017-05-13T06:50:48Z</time>
      </trkpt>
      <trkpt lat="45.20903" lon="5.98474">
        <ele>1973.4399414062</ele>
        <time>2017-05-13T06:50:49Z</time>
      </trkpt>
      <trkpt lat="45.20911" lon="5.98475">
        <ele>1973.4399414062</ele>
        <time>2017-05-13T06:50:51Z</time>
      </trkpt>
      <trkpt lat="45.20916" lon="5.98477">
        <ele>1971.4399414062</ele>
        <time>2017-05-13T06:50:53Z</time>
      </trkpt>
      <trkpt lat="45.20923" lon="5.98481">
        <ele>1967.4399414062</ele>
        <time>2017-05-13T06:50:56Z</time>
      </trkpt>
      <trkpt lat="45.2093" lon="5.98484">
        <ele>1963.4399414062</ele>
        <time>2017-05-13T06:50:58Z</time>
      </trkpt>
      <trkpt lat="45.2094" lon="5.98494">
        <ele>1959.4399414062</ele>
        <time>2017-05-13T06:51:00Z</time>
      </trkpt>
      <trkpt lat="45.20945" lon="5.98499">
        <ele>1956.4399414062</ele>
        <time>2017-05-13T06:51:01Z</time>
      </trkpt>
      <trkpt lat="45.20955" lon="5.9851">
        <ele>1953.4399414062</ele>
        <time>2017-05-13T06:51:03Z</time>
      </trkpt>
      <trkpt lat="45.20965" lon="5.98523">
        <ele>1952.4399414062</ele>
        <time>2017-05-13T06:51:05Z</time>
      </trkpt>
      <trkpt lat="45.20974" lon="5.98533">
        <ele>1949.4399414062</ele>
        <time>2017-05-13T06:51:11Z</time>
      </trkpt>
      <trkpt lat="45.2098" lon="5.98531">
        <ele>1945.4399414062</ele>
        <time>2017-05-13T06:51:15Z</time>
      </trkpt>
      <trkpt lat="45.20985" lon="5.98528">
        <ele>1946.4399414062</ele>
        <time>2017-05-13T06:51:17Z</time>
      </trkpt>
      <trkpt lat="45.20991" lon="5.98526">
        <ele>1944.4399414062</ele>
        <time>2017-05-13T06:51:19Z</time>
      </trkpt>
      <trkpt lat="45.20988" lon="5.98531">
        <ele>1942.4399414062</ele>
        <time>2017-05-13T06:51:22Z</time>
      </trkpt>
      <trkpt lat="45.20992" lon="5.9853">
        <ele>1939.4399414062</ele>
        <time>2017-05-13T06:51:26Z</time>
      </trkpt>
      <trkpt lat="45.20996" lon="5.98524">
        <ele>1939.4399414062</ele>
        <time>2017-05-13T06:51:30Z</time>
      </trkpt>
      <trkpt lat="45.21002" lon="5.98514">
        <ele>1937.4399414062</ele>
        <time>2017-05-13T06:51:32Z</time>
      </trkpt>
      <trkpt lat="45.21006" lon="5.98508">
        <ele>1937.4399414062</ele>
        <time>2017-05-13T06:51:37Z</time>
      </trkpt>
      <trkpt lat="45.2101" lon="5.98503">
        <ele>1936.4399414062</ele>
        <time>2017-05-13T06:51:41Z</time>
      </trkpt>
      <trkpt lat="45.21012" lon="5.98497">
        <ele>1934.4399414062</ele>
        <time>2017-05-13T06:51:45Z</time>
      </trkpt>
      <trkpt lat="45.21015" lon="5.98491">
        <ele>1934.4399414062</ele>
        <time>2017-05-13T06:51:47Z</time>
      </trkpt>
      <trkpt lat="45.2102" lon="5.98493">
        <ele>1932.4399414062</ele>
        <time>2017-05-13T06:51:52Z</time>
      </trkpt>
      <trkpt lat="45.21026" lon="5.98494">
        <ele>1927.4399414062</ele>
        <time>2017-05-13T06:51:54Z</time>
      </trkpt>
      <trkpt lat="45.21034" lon="5.98494">
        <ele>1924.4399414062</ele>
        <time>2017-05-13T06:51:56Z</time>
      </trkpt>
      <trkpt lat="45.21043" lon="5.98496">
        <ele>1921.4399414062</ele>
        <time>2017-05-13T06:51:58Z</time>
      </trkpt>
      <trkpt lat="45.21044" lon="5.98488">
        <ele>1918.4399414062</ele>
        <time>2017-05-13T06:52:04Z</time>
      </trkpt>
      <trkpt lat="45.21044" lon="5.9848">
        <ele>1914.4399414062</ele>
        <time>2017-05-13T06:52:07Z</time>
      </trkpt>
      <trkpt lat="45.21048" lon="5.98474">
        <ele>1913.4399414062</ele>
        <time>2017-05-13T06:52:09Z</time>
      </trkpt>
      <trkpt lat="45.21056" lon="5.9846">
        <ele>1908.4399414062</ele>
        <time>2017-05-13T06:52:12Z</time>
      </trkpt>
      <trkpt lat="45.2106" lon="5.98445">
        <ele>1905.4399414062</ele>
        <time>2017-05-13T06:52:37Z</time>
      </trkpt>
      <trkpt lat="45.21063" lon="5.9844">
        <ele>1902.4399414062</ele>
        <time>2017-05-13T06:52:51Z</time>
      </trkpt>
      <trkpt lat="45.21061" lon="5.98431">
        <ele>1896.4399414062</ele>
        <time>2017-05-13T06:53:01Z</time>
      </trkpt>
      <trkpt lat="45.21064" lon="5.98424">
        <ele>1894.4399414062</ele>
        <time>2017-05-13T06:53:04Z</time>
      </trkpt>
      <trkpt lat="45.21069" lon="5.98423">
        <ele>1895.4399414062</ele>
        <time>2017-05-13T06:53:06Z</time>
      </trkpt>
      <trkpt lat="45.21073" lon="5.9842">
        <ele>1887.4399414062</ele>
        <time>2017-05-13T06:53:18Z</time>
      </trkpt>
      <trkpt lat="45.21075" lon="5.98414">
        <ele>1883.4399414062</ele>
        <time>2017-05-13T06:53:30Z</time>
      </trkpt>
      <trkpt lat="45.21082" lon="5.98403">
        <ele>1887.4399414062</ele>
        <time>2017-05-13T06:54:51Z</time>
      </trkpt>
      <trkpt lat="45.21086" lon="5.98401">
        <ele>1891.4399414062</ele>
        <time>2017-05-13T06:54:53Z</time>
      </trkpt>
      <trkpt lat="45.21088" lon="5.98395">
        <ele>1887.4399414062</ele>
        <time>2017-05-13T06:55:02Z</time>
      </trkpt>
      <trkpt lat="45.21091" lon="5.98402">
        <ele>1880.4399414062</ele>
        <time>2017-05-13T06:55:08Z</time>
      </trkpt>
      <trkpt lat="45.211" lon="5.98405">
        <ele>1877.4399414062</ele>
        <time>2017-05-13T06:55:12Z</time>
      </trkpt>
      <trkpt lat="45.21099" lon="5.98414">
        <ele>1873.4399414062</ele>
        <time>2017-05-13T06:55:14Z</time>
      </trkpt>
      <trkpt lat="45.21103" lon="5.98407">
        <ele>1862.4399414062</ele>
        <time>2017-05-13T06:55:22Z</time>
      </trkpt>
      <trkpt lat="45.21102" lon="5.98414">
        <ele>1856.4399414062</ele>
        <time>2017-05-13T06:55:28Z</time>
      </trkpt>
      <trkpt lat="45.21107" lon="5.9842">
        <ele>1851.4399414062</ele>
        <time>2017-05-13T06:55:34Z</time>
      </trkpt>
      <trkpt lat="45.21112" lon="5.98424">
        <ele>1846.4399414062</ele>
        <time>2017-05-13T06:55:42Z</time>
      </trkpt>
      <trkpt lat="45.21118" lon="5.98429">
        <ele>1837.4399414062</ele>
        <time>2017-05-13T06:55:57Z</time>
      </trkpt>
      <trkpt lat="45.21122" lon="5.98434">
        <ele>1835.4399414062</ele>
        <time>2017-05-13T06:56:01Z</time>
      </trkpt>
      <trkpt lat="45.21124" lon="5.98428">
        <ele>1836.4399414062</ele>
        <time>2017-05-13T06:56:03Z</time>
      </trkpt>
      <trkpt lat="45.2113" lon="5.98428">
        <ele>1833.4399414062</ele>
        <time>2017-05-13T06:56:09Z</time>
      </trkpt>
      <trkpt lat="45.21132" lon="5.98421">
        <ele>1832.4399414062</ele>
        <time>2017-05-13T06:56:12Z</time>
      </trkpt>
      <trkpt lat="45.21137" lon="5.98423">
        <ele>1829.4399414062</ele>
        <time>2017-05-13T06:56:16Z</time>
      </trkpt>
      <trkpt lat="45.21144" lon="5.98423">
        <ele>1828.4399414062</ele>
        <time>2017-05-13T06:56:21Z</time>
      </trkpt>
      <trkpt lat="45.21146" lon="5.98416">
        <ele>1827.4399414062</ele>
        <time>2017-05-13T06:56:24Z</time>
      </trkpt>
      <trkpt lat="45.2115" lon="5.98421">
        <ele>1824.4399414062</ele>
        <time>2017-05-13T06:56:27Z</time>
      </trkpt>
      <trkpt lat="45.21158" lon="5.98421">
        <ele>1822.4399414062</ele>
        <time>2017-05-13T06:56:30Z</time>
      </trkpt>
      <trkpt lat="45.21162" lon="5.98417">
        <ele>1815.4399414062</ele>
        <time>2017-05-13T06:56:42Z</time>
      </trkpt>
      <trkpt lat="45.21166" lon="5.98422">
        <ele>1808.4399414062</ele>
        <time>2017-05-13T06:56:55Z</time>
      </trkpt>
      <trkpt lat="45.21171" lon="5.98421">
        <ele>1806.4399414062</ele>
        <time>2017-05-13T06:56:57Z</time>
      </trkpt>
      <trkpt lat="45.21167" lon="5.98417">
        <ele>1800.4399414062</ele>
        <time>2017-05-13T06:57:07Z</time>
      </trkpt>
      <trkpt lat="45.2117" lon="5.98422">
        <ele>1797.4399414062</ele>
        <time>2017-05-13T06:57:15Z</time>
      </trkpt>
      <trkpt lat="45.21177" lon="5.98422">
        <ele>1794.4399414062</ele>
        <time>2017-05-13T06:57:20Z</time>
      </trkpt>
      <trkpt lat="45.21179" lon="5.98412">
        <ele>1791.4399414062</ele>
        <time>2017-05-13T06:57:22Z</time>
      </trkpt>
      <trkpt lat="45.21181" lon="5.98406">
        <ele>1789.4399414062</ele>
        <time>2017-05-13T06:57:24Z</time>
      </trkpt>
      <trkpt lat="45.21182" lon="5.984">
        <ele>1788.4399414062</ele>
        <time>2017-05-13T06:57:28Z</time>
      </trkpt>
      <trkpt lat="45.21188" lon="5.98402">
        <ele>1785.4399414062</ele>
        <time>2017-05-13T06:57:35Z</time>
      </trkpt>
      <trkpt lat="45.21191" lon="5.98409">
        <ele>1781.4399414062</ele>
        <time>2017-05-13T06:57:37Z</time>
      </trkpt>
      <trkpt lat="45.21192" lon="5.98416">
        <ele>1779.4399414062</ele>
        <time>2017-05-13T06:57:39Z</time>
      </trkpt>
      <trkpt lat="45.21196" lon="5.98423">
        <ele>1774.4399414062</ele>
        <time>2017-05-13T06:57:42Z</time>
      </trkpt>
      <trkpt lat="45.21199" lon="5.98428">
        <ele>1770.4399414062</ele>
        <time>2017-05-13T06:57:46Z</time>
      </trkpt>
      <trkpt lat="45.21205" lon="5.98431">
        <ele>1768.4399414062</ele>
        <time>2017-05-13T06:57:48Z</time>
      </trkpt>
      <trkpt lat="45.21212" lon="5.98436">
        <ele>1766.4399414062</ele>
        <time>2017-05-13T06:57:50Z</time>
      </trkpt>
      <trkpt lat="45.21214" lon="5.98442">
        <ele>1762.4399414062</ele>
        <time>2017-05-13T06:57:53Z</time>
      </trkpt>
      <trkpt lat="45.21217" lon="5.98447">
        <ele>1761.4399414062</ele>
        <time>2017-05-13T06:57:55Z</time>
      </trkpt>
      <trkpt lat="45.2122" lon="5.98442">
        <ele>1755.4399414062</ele>
        <time>2017-05-13T06:58:01Z</time>
      </trkpt>
      <trkpt lat="45.21224" lon="5.98449">
        <ele>1752.4399414062</ele>
        <time>2017-05-13T06:58:03Z</time>
      </trkpt>
      <trkpt lat="45.21232" lon="5.9845">
        <ele>1748.4399414062</ele>
        <time>2017-05-13T06:58:05Z</time>
      </trkpt>
      <trkpt lat="45.21238" lon="5.98455">
        <ele>1745.4399414062</ele>
        <time>2017-05-13T06:58:07Z</time>
      </trkpt>
      <trkpt lat="45.21242" lon="5.98467">
        <ele>1742.4399414062</ele>
        <time>2017-05-13T06:58:10Z</time>
      </trkpt>
      <trkpt lat="45.21246" lon="5.98474">
        <ele>1740.4399414062</ele>
        <time>2017-05-13T06:58:12Z</time>
      </trkpt>
      <trkpt lat="45.21252" lon="5.98474">
        <ele>1736.4399414062</ele>
        <time>2017-05-13T06:58:14Z</time>
      </trkpt>
      <trkpt lat="45.21258" lon="5.98479">
        <ele>1734.4399414062</ele>
        <time>2017-05-13T06:58:16Z</time>
      </trkpt>
      <trkpt lat="45.21263" lon="5.98481">
        <ele>1729.4399414062</ele>
        <time>2017-05-13T06:58:18Z</time>
      </trkpt>
      <trkpt lat="45.21267" lon="5.98485">
        <ele>1727.4399414062</ele>
        <time>2017-05-13T06:58:20Z</time>
      </trkpt>
      <trkpt lat="45.21271" lon="5.9849">
        <ele>1722.4399414062</ele>
        <time>2017-05-13T06:58:22Z</time>
      </trkpt>
      <trkpt lat="45.21275" lon="5.98496">
        <ele>1715.4399414062</ele>
        <time>2017-05-13T06:58:25Z</time>
      </trkpt>
      <trkpt lat="45.21279" lon="5.98503">
        <ele>1706.4399414062</ele>
        <time>2017-05-13T06:58:38Z</time>
      </trkpt>
      <trkpt lat="45.21283" lon="5.98509">
        <ele>1700.4399414062</ele>
        <time>2017-05-13T06:58:45Z</time>
      </trkpt>
      <trkpt lat="45.21288" lon="5.98512">
        <ele>1692.4410400391</ele>
        <time>2017-05-13T06:58:53Z</time>
      </trkpt>
      <trkpt lat="45.21284" lon="5.98509">
        <ele>1682.4399414062</ele>
        <time>2017-05-13T07:00:35Z</time>
      </trkpt>
      <trkpt lat="45.21285" lon="5.98502">
        <ele>1678.4399414062</ele>
        <time>2017-05-13T07:02:17Z</time>
      </trkpt>
      <trkpt lat="45.2129" lon="5.98503">
        <ele>1674.4399414062</ele>
        <time>2017-05-13T07:02:29Z</time>
      </trkpt>
      <trkpt lat="45.21294" lon="5.98507">
        <ele>1674.4410400391</ele>
        <time>2017-05-13T07:02:37Z</time>
      </trkpt>
      <trkpt lat="45.21299" lon="5.98504">
        <ele>1675.4410400391</ele>
        <time>2017-05-13T07:02:44Z</time>
      </trkpt>
      <trkpt lat="45.21304" lon="5.98501">
        <ele>1671.4410400391</ele>
        <time>2017-05-13T07:02:59Z</time>
      </trkpt>
      <trkpt lat="45.21308" lon="5.98503">
        <ele>1668.4410400391</ele>
        <time>2017-05-13T07:03:02Z</time>
      </trkpt>
      <trkpt lat="45.21312" lon="5.98506">
        <ele>1665.4410400391</ele>
        <time>2017-05-13T07:03:07Z</time>
      </trkpt>
      <trkpt lat="45.21317" lon="5.98505">
        <ele>1662.4410400391</ele>
        <time>2017-05-13T07:03:16Z</time>
      </trkpt>
      <trkpt lat="45.21322" lon="5.98505">
        <ele>1659.4410400391</ele>
        <time>2017-05-13T07:03:32Z</time>
      </trkpt>
      <trkpt lat="45.21326" lon="5.985">
        <ele>1658.4410400391</ele>
        <time>2017-05-13T07:03:43Z</time>
      </trkpt>
      <trkpt lat="45.21331" lon="5.98497">
        <ele>1655.4410400391</ele>
        <time>2017-05-13T07:03:48Z</time>
      </trkpt>
      <trkpt lat="45.21335" lon="5.98492">
        <ele>1653.4410400391</ele>
        <time>2017-05-13T07:03:54Z</time>
      </trkpt>
      <trkpt lat="45.21338" lon="5.98486">
        <ele>1645.4410400391</ele>
        <time>2017-05-13T07:04:09Z</time>
      </trkpt>
      <trkpt lat="45.21343" lon="5.98483">
        <ele>1640.4410400391</ele>
        <time>2017-05-13T07:04:17Z</time>
      </trkpt>
      <trkpt lat="45.21346" lon="5.98478">
        <ele>1638.4410400391</ele>
        <time>2017-05-13T07:04:22Z</time>
      </trkpt>
      <trkpt lat="45.21351" lon="5.98478">
        <ele>1634.4410400391</ele>
        <time>2017-05-13T07:04:32Z</time>
      </trkpt>
      <trkpt lat="45.21356" lon="5.98479">
        <ele>1634.4410400391</ele>
        <time>2017-05-13T07:04:39Z</time>
      </trkpt>
      <trkpt lat="45.2136" lon="5.98481">
        <ele>1632.4410400391</ele>
        <time>2017-05-13T07:04:43Z</time>
      </trkpt>
      <trkpt lat="45.21365" lon="5.98482">
        <ele>1629.4410400391</ele>
        <time>2017-05-13T07:04:51Z</time>
      </trkpt>
      <trkpt lat="45.21368" lon="5.98486">
        <ele>1628.4410400391</ele>
        <time>2017-05-13T07:05:04Z</time>
      </trkpt>
      <trkpt lat="45.21373" lon="5.98488">
        <ele>1624.4410400391</ele>
        <time>2017-05-13T07:05:11Z</time>
      </trkpt>
      <trkpt lat="45.21378" lon="5.98488">
        <ele>1625.4410400391</ele>
        <time>2017-05-13T07:05:20Z</time>
      </trkpt>
      <trkpt lat="45.21382" lon="5.98487">
        <ele>1622.4410400391</ele>
        <time>2017-05-13T07:05:26Z</time>
      </trkpt>
      <trkpt lat="45.21387" lon="5.98482">
        <ele>1619.4410400391</ele>
        <time>2017-05-13T07:05:32Z</time>
      </trkpt>
      <trkpt lat="45.21391" lon="5.98478">
        <ele>1620.4410400391</ele>
        <time>2017-05-13T07:05:38Z</time>
      </trkpt>
      <trkpt lat="45.21394" lon="5.98473">
        <ele>1620.4410400391</ele>
        <time>2017-05-13T07:05:42Z</time>
      </trkpt>
      <trkpt lat="45.21398" lon="5.98468">
        <ele>1617.4410400391</ele>
        <time>2017-05-13T07:05:49Z</time>
      </trkpt>
      <trkpt lat="45.21403" lon="5.98469">
        <ele>1615.4410400391</ele>
        <time>2017-05-13T07:05:55Z</time>
      </trkpt>
      <trkpt lat="45.21408" lon="5.98469">
        <ele>1618.4410400391</ele>
        <time>2017-05-13T07:06:00Z</time>
      </trkpt>
      <trkpt lat="45.21412" lon="5.98472">
        <ele>1614.4410400391</ele>
        <time>2017-05-13T07:06:13Z</time>
      </trkpt>
      <trkpt lat="45.21414" lon="5.98479">
        <ele>1608.4410400391</ele>
        <time>2017-05-13T07:06:25Z</time>
      </trkpt>
      <trkpt lat="45.21419" lon="5.98481">
        <ele>1609.4410400391</ele>
        <time>2017-05-13T07:06:30Z</time>
      </trkpt>
      <trkpt lat="45.21424" lon="5.98479">
        <ele>1607.4410400391</ele>
        <time>2017-05-13T07:06:39Z</time>
      </trkpt>
      <trkpt lat="45.21429" lon="5.98482">
        <ele>1597.4410400391</ele>
        <time>2017-05-13T07:07:09Z</time>
      </trkpt>
      <trkpt lat="45.2143" lon="5.98488">
        <ele>1593.4410400391</ele>
        <time>2017-05-13T07:07:17Z</time>
      </trkpt>
      <trkpt lat="45.21428" lon="5.98494">
        <ele>1592.4410400391</ele>
        <time>2017-05-13T07:07:24Z</time>
      </trkpt>
      <trkpt lat="45.21429" lon="5.985">
        <ele>1587.4410400391</ele>
        <time>2017-05-13T07:07:35Z</time>
      </trkpt>
      <trkpt lat="45.21429" lon="5.98508">
        <ele>1587.4410400391</ele>
        <time>2017-05-13T07:07:43Z</time>
      </trkpt>
      <trkpt lat="45.21432" lon="5.98512">
        <ele>1587.4410400391</ele>
        <time>2017-05-13T07:07:56Z</time>
      </trkpt>
      <trkpt lat="45.21436" lon="5.98516">
        <ele>1583.4410400391</ele>
        <time>2017-05-13T07:08:05Z</time>
      </trkpt>
      <trkpt lat="45.21441" lon="5.9852">
        <ele>1578.4410400391</ele>
        <time>2017-05-13T07:08:33Z</time>
      </trkpt>
      <trkpt lat="45.21443" lon="5.98527">
        <ele>1576.4410400391</ele>
        <time>2017-05-13T07:08:54Z</time>
      </trkpt>
      <trkpt lat="45.21449" lon="5.98526">
        <ele>1574.4410400391</ele>
        <time>2017-05-13T07:09:00Z</time>
      </trkpt>
      <trkpt lat="45.21452" lon="5.98532">
        <ele>1569.4410400391</ele>
        <time>2017-05-13T07:09:08Z</time>
      </trkpt>
      <trkpt lat="45.21455" lon="5.98537">
        <ele>1567.4410400391</ele>
        <time>2017-05-13T07:09:16Z</time>
      </trkpt>
      <trkpt lat="45.21458" lon="5.98542">
        <ele>1563.4410400391</ele>
        <time>2017-05-13T07:09:31Z</time>
      </trkpt>
      <trkpt lat="45.2146" lon="5.98548">
        <ele>1561.4410400391</ele>
        <time>2017-05-13T07:09:44Z</time>
      </trkpt>
      <trkpt lat="45.21464" lon="5.98552">
        <ele>1558.4410400391</ele>
        <time>2017-05-13T07:09:54Z</time>
      </trkpt>
      <trkpt lat="45.21468" lon="5.98556">
        <ele>1555.4410400391</ele>
        <time>2017-05-13T07:10:06Z</time>
      </trkpt>
      <trkpt lat="45.21471" lon="5.9856">
        <ele>1557.4410400391</ele>
        <time>2017-05-13T07:10:12Z</time>
      </trkpt>
      <trkpt lat="45.21475" lon="5.98565">
        <ele>1557.4410400391</ele>
        <time>2017-05-13T07:10:21Z</time>
      </trkpt>
      <trkpt lat="45.21479" lon="5.98568">
        <ele>1561.4410400391</ele>
        <time>2017-05-13T07:10:47Z</time>
      </trkpt>
      <trkpt lat="45.21483" lon="5.98571">
        <ele>1558.4410400391</ele>
        <time>2017-05-13T07:10:55Z</time>
      </trkpt>
      <trkpt lat="45.21487" lon="5.98574">
        <ele>1557.4410400391</ele>
        <time>2017-05-13T07:11:38Z</time>
      </trkpt>
      <trkpt lat="45.21491" lon="5.98579">
        <ele>1555.4410400391</ele>
        <time>2017-05-13T07:11:53Z</time>
      </trkpt>
      <trkpt lat="45.21493" lon="5.98585">
        <ele>1552.4410400391</ele>
        <time>2017-05-13T07:11:56Z</time>
      </trkpt>
      <trkpt lat="45.21497" lon="5.9859">
        <ele>1553.4410400391</ele>
        <time>2017-05-13T07:12:01Z</time>
      </trkpt>
      <trkpt lat="45.21501" lon="5.98592">
        <ele>1550.4410400391</ele>
        <time>2017-05-13T07:12:05Z</time>
      </trkpt>
      <trkpt lat="45.21504" lon="5.98597">
        <ele>1548.4410400391</ele>
        <time>2017-05-13T07:12:15Z</time>
      </trkpt>
      <trkpt lat="45.21506" lon="5.98604">
        <ele>1546.4410400391</ele>
        <time>2017-05-13T07:12:35Z</time>
      </trkpt>
      <trkpt lat="45.21509" lon="5.98612">
        <ele>1542.4410400391</ele>
        <time>2017-05-13T07:12:38Z</time>
      </trkpt>
      <trkpt lat="45.21509" lon="5.98621">
        <ele>1540.4410400391</ele>
        <time>2017-05-13T07:12:40Z</time>
      </trkpt>
      <trkpt lat="45.21511" lon="5.98627">
        <ele>1542.4410400391</ele>
        <time>2017-05-13T07:12:43Z</time>
      </trkpt>
      <trkpt lat="45.21514" lon="5.98632">
        <ele>1541.4410400391</ele>
        <time>2017-05-13T07:12:47Z</time>
      </trkpt>
      <trkpt lat="45.21516" lon="5.98639">
        <ele>1545.4410400391</ele>
        <time>2017-05-13T07:12:51Z</time>
      </trkpt>
      <trkpt lat="45.21522" lon="5.98643">
        <ele>1544.4410400391</ele>
        <time>2017-05-13T07:12:54Z</time>
      </trkpt>
      <trkpt lat="45.21527" lon="5.98646">
        <ele>1542.4410400391</ele>
        <time>2017-05-13T07:12:57Z</time>
      </trkpt>
      <trkpt lat="45.21526" lon="5.98653">
        <ele>1543.4410400391</ele>
        <time>2017-05-13T07:13:00Z</time>
      </trkpt>
      <trkpt lat="45.21525" lon="5.9866">
        <ele>1540.4410400391</ele>
        <time>2017-05-13T07:13:05Z</time>
      </trkpt>
      <trkpt lat="45.21528" lon="5.98669">
        <ele>1539.4410400391</ele>
        <time>2017-05-13T07:13:07Z</time>
      </trkpt>
      <trkpt lat="45.2153" lon="5.98682">
        <ele>1529.4410400391</ele>
        <time>2017-05-13T07:13:41Z</time>
      </trkpt>
      <trkpt lat="45.21529" lon="5.98691">
        <ele>1530.4410400391</ele>
        <time>2017-05-13T07:13:45Z</time>
      </trkpt>
      <trkpt lat="45.21529" lon="5.98698">
        <ele>1525.4410400391</ele>
        <time>2017-05-13T07:13:50Z</time>
      </trkpt>
      <trkpt lat="45.21534" lon="5.98698">
        <ele>1524.4410400391</ele>
        <time>2017-05-13T07:13:57Z</time>
      </trkpt>
      <trkpt lat="45.21535" lon="5.98705">
        <ele>1520.4410400391</ele>
        <time>2017-05-13T07:14:02Z</time>
      </trkpt>
      <trkpt lat="45.21536" lon="5.98712">
        <ele>1518.4410400391</ele>
        <time>2017-05-13T07:14:06Z</time>
      </trkpt>
      <trkpt lat="45.21538" lon="5.9872">
        <ele>1512.4410400391</ele>
        <time>2017-05-13T07:14:16Z</time>
      </trkpt>
      <trkpt lat="45.21542" lon="5.98726">
        <ele>1508.4410400391</ele>
        <time>2017-05-13T07:14:20Z</time>
      </trkpt>
      <trkpt lat="45.21546" lon="5.98725">
        <ele>1501.4410400391</ele>
        <time>2017-05-13T07:14:24Z</time>
      </trkpt>
      <trkpt lat="45.21552" lon="5.98725">
        <ele>1501.4410400391</ele>
        <time>2017-05-13T07:14:29Z</time>
      </trkpt>
      <trkpt lat="45.21557" lon="5.98729">
        <ele>1499.4410400391</ele>
        <time>2017-05-13T07:14:36Z</time>
      </trkpt>
      <trkpt lat="45.21557" lon="5.98736">
        <ele>1499.4410400391</ele>
        <time>2017-05-13T07:14:38Z</time>
      </trkpt>
      <trkpt lat="45.21561" lon="5.98742">
        <ele>1499.4410400391</ele>
        <time>2017-05-13T07:14:43Z</time>
      </trkpt>
      <trkpt lat="45.21562" lon="5.98751">
        <ele>1497.4410400391</ele>
        <time>2017-05-13T07:14:49Z</time>
      </trkpt>
      <trkpt lat="45.21567" lon="5.98753">
        <ele>1499.4410400391</ele>
        <time>2017-05-13T07:14:51Z</time>
      </trkpt>
      <trkpt lat="45.21572" lon="5.98748">
        <ele>1499.4410400391</ele>
        <time>2017-05-13T07:14:53Z</time>
      </trkpt>
      <trkpt lat="45.21571" lon="5.98755">
        <ele>1500.4410400391</ele>
        <time>2017-05-13T07:14:56Z</time>
      </trkpt>
      <trkpt lat="45.2157" lon="5.98765">
        <ele>1500.4410400391</ele>
        <time>2017-05-13T07:14:58Z</time>
      </trkpt>
      <trkpt lat="45.21575" lon="5.98765">
        <ele>1504.4410400391</ele>
        <time>2017-05-13T07:15:05Z</time>
      </trkpt>
      <trkpt lat="45.21574" lon="5.98771">
        <ele>1502.4410400391</ele>
        <time>2017-05-13T07:15:10Z</time>
      </trkpt>
      <trkpt lat="45.21574" lon="5.98778">
        <ele>1498.4410400391</ele>
        <time>2017-05-13T07:15:16Z</time>
      </trkpt>
      <trkpt lat="45.21578" lon="5.9879">
        <ele>1495.4410400391</ele>
        <time>2017-05-13T07:15:38Z</time>
      </trkpt>
      <trkpt lat="45.21581" lon="5.98799">
        <ele>1495.4410400391</ele>
        <time>2017-05-13T07:15:40Z</time>
      </trkpt>
      <trkpt lat="45.21586" lon="5.98804">
        <ele>1494.4420166016</ele>
        <time>2017-05-13T07:15:42Z</time>
      </trkpt>
      <trkpt lat="45.2159" lon="5.98806">
        <ele>1492.4420166016</ele>
        <time>2017-05-13T07:15:45Z</time>
      </trkpt>
      <trkpt lat="45.2159" lon="5.98816">
        <ele>1491.4420166016</ele>
        <time>2017-05-13T07:15:48Z</time>
      </trkpt>
      <trkpt lat="45.21593" lon="5.98824">
        <ele>1491.4420166016</ele>
        <time>2017-05-13T07:15:51Z</time>
      </trkpt>
      <trkpt lat="45.21595" lon="5.9883">
        <ele>1489.4420166016</ele>
        <time>2017-05-13T07:15:55Z</time>
      </trkpt>
      <trkpt lat="45.21599" lon="5.98834">
        <ele>1486.4420166016</ele>
        <time>2017-05-13T07:15:59Z</time>
      </trkpt>
      <trkpt lat="45.216" lon="5.98842">
        <ele>1480.4420166016</ele>
        <time>2017-05-13T07:16:07Z</time>
      </trkpt>
      <trkpt lat="45.21601" lon="5.98848">
        <ele>1470.4420166016</ele>
        <time>2017-05-13T07:16:22Z</time>
      </trkpt>
      <trkpt lat="45.216" lon="5.98855">
        <ele>1471.4420166016</ele>
        <time>2017-05-13T07:16:24Z</time>
      </trkpt>
      <trkpt lat="45.21608" lon="5.98855">
        <ele>1472.4420166016</ele>
        <time>2017-05-13T07:16:26Z</time>
      </trkpt>
      <trkpt lat="45.2161" lon="5.9886">
        <ele>1472.4420166016</ele>
        <time>2017-05-13T07:16:31Z</time>
      </trkpt>
      <trkpt lat="45.21608" lon="5.98868">
        <ele>1469.4420166016</ele>
        <time>2017-05-13T07:16:34Z</time>
      </trkpt>
      <trkpt lat="45.21611" lon="5.98873">
        <ele>1472.4420166016</ele>
        <time>2017-05-13T07:16:36Z</time>
      </trkpt>
      <trkpt lat="45.21611" lon="5.9888">
        <ele>1472.4420166016</ele>
        <time>2017-05-13T07:16:38Z</time>
      </trkpt>
      <trkpt lat="45.21616" lon="5.9888">
        <ele>1470.4420166016</ele>
        <time>2017-05-13T07:16:43Z</time>
      </trkpt>
      <trkpt lat="45.2162" lon="5.98885">
        <ele>1472.4420166016</ele>
        <time>2017-05-13T07:16:49Z</time>
      </trkpt>
      <trkpt lat="45.21621" lon="5.98893">
        <ele>1473.4420166016</ele>
        <time>2017-05-13T07:16:52Z</time>
      </trkpt>
      <trkpt lat="45.21621" lon="5.98899">
        <ele>1468.4420166016</ele>
        <time>2017-05-13T07:16:56Z</time>
      </trkpt>
      <trkpt lat="45.21626" lon="5.98908">
        <ele>1467.4420166016</ele>
        <time>2017-05-13T07:17:00Z</time>
      </trkpt>
      <trkpt lat="45.21629" lon="5.98915">
        <ele>1469.4420166016</ele>
        <time>2017-05-13T07:17:03Z</time>
      </trkpt>
      <trkpt lat="45.21631" lon="5.98922">
        <ele>1470.4420166016</ele>
        <time>2017-05-13T07:17:08Z</time>
      </trkpt>
      <trkpt lat="45.21631" lon="5.9893">
        <ele>1467.4420166016</ele>
        <time>2017-05-13T07:17:13Z</time>
      </trkpt>
      <trkpt lat="45.21636" lon="5.9893">
        <ele>1466.4420166016</ele>
        <time>2017-05-13T07:17:16Z</time>
      </trkpt>
      <trkpt lat="45.21641" lon="5.9893">
        <ele>1461.4420166016</ele>
        <time>2017-05-13T07:17:20Z</time>
      </trkpt>
      <trkpt lat="45.21645" lon="5.98936">
        <ele>1461.4420166016</ele>
        <time>2017-05-13T07:17:25Z</time>
      </trkpt>
      <trkpt lat="45.21649" lon="5.98933">
        <ele>1459.4420166016</ele>
        <time>2017-05-13T07:17:28Z</time>
      </trkpt>
      <trkpt lat="45.21653" lon="5.98941">
        <ele>1459.4420166016</ele>
        <time>2017-05-13T07:17:32Z</time>
      </trkpt>
      <trkpt lat="45.21656" lon="5.98945">
        <ele>1454.4420166016</ele>
        <time>2017-05-13T07:17:36Z</time>
      </trkpt>
      <trkpt lat="45.21662" lon="5.98949">
        <ele>1454.4420166016</ele>
        <time>2017-05-13T07:17:39Z</time>
      </trkpt>
      <trkpt lat="45.21668" lon="5.98941">
        <ele>1454.4420166016</ele>
        <time>2017-05-13T07:17:42Z</time>
      </trkpt>
      <trkpt lat="45.21674" lon="5.98935">
        <ele>1456.4420166016</ele>
        <time>2017-05-13T07:17:44Z</time>
      </trkpt>
      <trkpt lat="45.21671" lon="5.98941">
        <ele>1454.4420166016</ele>
        <time>2017-05-13T07:17:45Z</time>
      </trkpt>
      <trkpt lat="45.21674" lon="5.98946">
        <ele>1450.4420166016</ele>
        <time>2017-05-13T07:17:51Z</time>
      </trkpt>
      <trkpt lat="45.21671" lon="5.98953">
        <ele>1450.4420166016</ele>
        <time>2017-05-13T07:17:56Z</time>
      </trkpt>
      <trkpt lat="45.21668" lon="5.98959">
        <ele>1447.4420166016</ele>
        <time>2017-05-13T07:18:05Z</time>
      </trkpt>
      <trkpt lat="45.21666" lon="5.98965">
        <ele>1444.4420166016</ele>
        <time>2017-05-13T07:18:24Z</time>
      </trkpt>
      <trkpt lat="45.21671" lon="5.98959">
        <ele>1443.4420166016</ele>
        <time>2017-05-13T07:18:49Z</time>
      </trkpt>
      <trkpt lat="45.21667" lon="5.98967">
        <ele>1432.4420166016</ele>
        <time>2017-05-13T07:18:59Z</time>
      </trkpt>
      <trkpt lat="45.21674" lon="5.98967">
        <ele>1424.4420166016</ele>
        <time>2017-05-13T07:20:16Z</time>
      </trkpt>
      <trkpt lat="45.21678" lon="5.98972">
        <ele>1424.4420166016</ele>
        <time>2017-05-13T07:20:18Z</time>
      </trkpt>
      <trkpt lat="45.21682" lon="5.98979">
        <ele>1424.4420166016</ele>
        <time>2017-05-13T07:20:21Z</time>
      </trkpt>
      <trkpt lat="45.21688" lon="5.98987">
        <ele>1427.4420166016</ele>
        <time>2017-05-13T07:20:24Z</time>
      </trkpt>
      <trkpt lat="45.21686" lon="5.9901">
        <ele>1427.4420166016</ele>
        <time>2017-05-13T07:20:26Z</time>
      </trkpt>
      <trkpt lat="45.21691" lon="5.9901">
        <ele>1428.4420166016</ele>
        <time>2017-05-13T07:20:27Z</time>
      </trkpt>
      <trkpt lat="45.21692" lon="5.99019">
        <ele>1427.4420166016</ele>
        <time>2017-05-13T07:20:28Z</time>
      </trkpt>
      <trkpt lat="45.21699" lon="5.99008">
        <ele>1429.4420166016</ele>
        <time>2017-05-13T07:20:29Z</time>
      </trkpt>
      <trkpt lat="45.21706" lon="5.99008">
        <ele>1430.4420166016</ele>
        <time>2017-05-13T07:20:31Z</time>
      </trkpt>
      <trkpt lat="45.21705" lon="5.99015">
        <ele>1429.4420166016</ele>
        <time>2017-05-13T07:20:34Z</time>
      </trkpt>
      <trkpt lat="45.2171" lon="5.99013">
        <ele>1429.4420166016</ele>
        <time>2017-05-13T07:20:36Z</time>
      </trkpt>
      <trkpt lat="45.21716" lon="5.99016">
        <ele>1430.4420166016</ele>
        <time>2017-05-13T07:20:41Z</time>
      </trkpt>
      <trkpt lat="45.21721" lon="5.99018">
        <ele>1432.4420166016</ele>
        <time>2017-05-13T07:20:44Z</time>
      </trkpt>
      <trkpt lat="45.21728" lon="5.99017">
        <ele>1431.4420166016</ele>
        <time>2017-05-13T07:20:46Z</time>
      </trkpt>
      <trkpt lat="45.21733" lon="5.99019">
        <ele>1431.4420166016</ele>
        <time>2017-05-13T07:20:48Z</time>
      </trkpt>
      <trkpt lat="45.21739" lon="5.99015">
        <ele>1431.4420166016</ele>
        <time>2017-05-13T07:20:50Z</time>
      </trkpt>
      <trkpt lat="45.21742" lon="5.9902">
        <ele>1433.4420166016</ele>
        <time>2017-05-13T07:20:54Z</time>
      </trkpt>
      <trkpt lat="45.21741" lon="5.99027">
        <ele>1436.4420166016</ele>
        <time>2017-05-13T07:20:58Z</time>
      </trkpt>
      <trkpt lat="45.21748" lon="5.9903">
        <ele>1438.4420166016</ele>
        <time>2017-05-13T07:21:03Z</time>
      </trkpt>
      <trkpt lat="45.21754" lon="5.99029">
        <ele>1439.4420166016</ele>
        <time>2017-05-13T07:21:05Z</time>
      </trkpt>
      <trkpt lat="45.21757" lon="5.99033">
        <ele>1438.4420166016</ele>
        <time>2017-05-13T07:21:09Z</time>
      </trkpt>
      <trkpt lat="45.21764" lon="5.99036">
        <ele>1440.4420166016</ele>
        <time>2017-05-13T07:21:13Z</time>
      </trkpt>
      <trkpt lat="45.21768" lon="5.99041">
        <ele>1442.4420166016</ele>
        <time>2017-05-13T07:21:17Z</time>
      </trkpt>
      <trkpt lat="45.21768" lon="5.9905">
        <ele>1441.4420166016</ele>
        <time>2017-05-13T07:21:21Z</time>
      </trkpt>
      <trkpt lat="45.21768" lon="5.99058">
        <ele>1439.4420166016</ele>
        <time>2017-05-13T07:21:27Z</time>
      </trkpt>
      <trkpt lat="45.2177" lon="5.99064">
        <ele>1439.4420166016</ele>
        <time>2017-05-13T07:21:31Z</time>
      </trkpt>
      <trkpt lat="45.21765" lon="5.99071">
        <ele>1439.4420166016</ele>
        <time>2017-05-13T07:21:35Z</time>
      </trkpt>
      <trkpt lat="45.21755" lon="5.99073">
        <ele>1440.4420166016</ele>
        <time>2017-05-13T07:21:39Z</time>
      </trkpt>
      <trkpt lat="45.21751" lon="5.99076">
        <ele>1436.4420166016</ele>
        <time>2017-05-13T07:21:43Z</time>
      </trkpt>
      <trkpt lat="45.21747" lon="5.99082">
        <ele>1431.4420166016</ele>
        <time>2017-05-13T07:21:55Z</time>
      </trkpt>
      <trkpt lat="45.21748" lon="5.99088">
        <ele>1429.4420166016</ele>
        <time>2017-05-13T07:22:00Z</time>
      </trkpt>
      <trkpt lat="45.21753" lon="5.99091">
        <ele>1429.4420166016</ele>
        <time>2017-05-13T07:22:03Z</time>
      </trkpt>
      <trkpt lat="45.21759" lon="5.99096">
        <ele>1429.4420166016</ele>
        <time>2017-05-13T07:22:07Z</time>
      </trkpt>
      <trkpt lat="45.21762" lon="5.99102">
        <ele>1428.4420166016</ele>
        <time>2017-05-13T07:22:11Z</time>
      </trkpt>
      <trkpt lat="45.21765" lon="5.99107">
        <ele>1427.4420166016</ele>
        <time>2017-05-13T07:22:14Z</time>
      </trkpt>
      <trkpt lat="45.21769" lon="5.99113">
        <ele>1426.4420166016</ele>
        <time>2017-05-13T07:22:17Z</time>
      </trkpt>
      <trkpt lat="45.2177" lon="5.9912">
        <ele>1423.4420166016</ele>
        <time>2017-05-13T07:22:21Z</time>
      </trkpt>
      <trkpt lat="45.21776" lon="5.99126">
        <ele>1423.4420166016</ele>
        <time>2017-05-13T07:22:25Z</time>
      </trkpt>
      <trkpt lat="45.21778" lon="5.99132">
        <ele>1421.4420166016</ele>
        <time>2017-05-13T07:22:30Z</time>
      </trkpt>
      <trkpt lat="45.21783" lon="5.99135">
        <ele>1419.4420166016</ele>
        <time>2017-05-13T07:22:33Z</time>
      </trkpt>
      <trkpt lat="45.21788" lon="5.99139">
        <ele>1422.4420166016</ele>
        <time>2017-05-13T07:22:37Z</time>
      </trkpt>
      <trkpt lat="45.21791" lon="5.99144">
        <ele>1421.4420166016</ele>
        <time>2017-05-13T07:22:40Z</time>
      </trkpt>
      <trkpt lat="45.21796" lon="5.99149">
        <ele>1421.4420166016</ele>
        <time>2017-05-13T07:22:43Z</time>
      </trkpt>
      <trkpt lat="45.218" lon="5.99154">
        <ele>1422.4420166016</ele>
        <time>2017-05-13T07:22:46Z</time>
      </trkpt>
      <trkpt lat="45.21804" lon="5.99159">
        <ele>1422.4420166016</ele>
        <time>2017-05-13T07:22:50Z</time>
      </trkpt>
      <trkpt lat="45.21808" lon="5.99163">
        <ele>1421.4420166016</ele>
        <time>2017-05-13T07:22:53Z</time>
      </trkpt>
      <trkpt lat="45.21811" lon="5.99169">
        <ele>1421.4420166016</ele>
        <time>2017-05-13T07:22:56Z</time>
      </trkpt>
      <trkpt lat="45.21815" lon="5.99175">
        <ele>1419.4420166016</ele>
        <time>2017-05-13T07:23:00Z</time>
      </trkpt>
      <trkpt lat="45.21817" lon="5.99181">
        <ele>1420.4420166016</ele>
        <time>2017-05-13T07:23:03Z</time>
      </trkpt>
      <trkpt lat="45.2182" lon="5.99187">
        <ele>1421.4429931641</ele>
        <time>2017-05-13T07:23:06Z</time>
      </trkpt>
      <trkpt lat="45.21822" lon="5.99193">
        <ele>1419.4429931641</ele>
        <time>2017-05-13T07:23:09Z</time>
      </trkpt>
      <trkpt lat="45.21824" lon="5.992">
        <ele>1419.4429931641</ele>
        <time>2017-05-13T07:23:12Z</time>
      </trkpt>
      <trkpt lat="45.21829" lon="5.99203">
        <ele>1419.4429931641</ele>
        <time>2017-05-13T07:23:14Z</time>
      </trkpt>
      <trkpt lat="45.21835" lon="5.9921">
        <ele>1418.4429931641</ele>
        <time>2017-05-13T07:23:17Z</time>
      </trkpt>
      <trkpt lat="45.21836" lon="5.99217">
        <ele>1418.4429931641</ele>
        <time>2017-05-13T07:23:22Z</time>
      </trkpt>
      <trkpt lat="45.21833" lon="5.99224">
        <ele>1416.4429931641</ele>
        <time>2017-05-13T07:23:25Z</time>
      </trkpt>
      <trkpt lat="45.21831" lon="5.99232">
        <ele>1417.4429931641</ele>
        <time>2017-05-13T07:23:29Z</time>
      </trkpt>
      <trkpt lat="45.21836" lon="5.99235">
        <ele>1417.4429931641</ele>
        <time>2017-05-13T07:23:31Z</time>
      </trkpt>
      <trkpt lat="45.21841" lon="5.99239">
        <ele>1417.4429931641</ele>
        <time>2017-05-13T07:23:34Z</time>
      </trkpt>
      <trkpt lat="45.21844" lon="5.99246">
        <ele>1416.4429931641</ele>
        <time>2017-05-13T07:23:38Z</time>
      </trkpt>
      <trkpt lat="45.21845" lon="5.99253">
        <ele>1415.4429931641</ele>
        <time>2017-05-13T07:23:41Z</time>
      </trkpt>
      <trkpt lat="45.21848" lon="5.9926">
        <ele>1414.4429931641</ele>
        <time>2017-05-13T07:23:45Z</time>
      </trkpt>
      <trkpt lat="45.21849" lon="5.99267">
        <ele>1412.4429931641</ele>
        <time>2017-05-13T07:23:49Z</time>
      </trkpt>
      <trkpt lat="45.21851" lon="5.99275">
        <ele>1411.4429931641</ele>
        <time>2017-05-13T07:23:53Z</time>
      </trkpt>
      <trkpt lat="45.21855" lon="5.9928">
        <ele>1410.4429931641</ele>
        <time>2017-05-13T07:23:56Z</time>
      </trkpt>
      <trkpt lat="45.21856" lon="5.99287">
        <ele>1410.4429931641</ele>
        <time>2017-05-13T07:24:00Z</time>
      </trkpt>
      <trkpt lat="45.21857" lon="5.99294">
        <ele>1410.4429931641</ele>
        <time>2017-05-13T07:24:04Z</time>
      </trkpt>
      <trkpt lat="45.2186" lon="5.99302">
        <ele>1410.4429931641</ele>
        <time>2017-05-13T07:24:08Z</time>
      </trkpt>
      <trkpt lat="45.21866" lon="5.99307">
        <ele>1414.4429931641</ele>
        <time>2017-05-13T07:24:10Z</time>
      </trkpt>
      <trkpt lat="45.2187" lon="5.99315">
        <ele>1414.4429931641</ele>
        <time>2017-05-13T07:24:14Z</time>
      </trkpt>
      <trkpt lat="45.21873" lon="5.9932">
        <ele>1415.4429931641</ele>
        <time>2017-05-13T07:24:17Z</time>
      </trkpt>
      <trkpt lat="45.21877" lon="5.99326">
        <ele>1418.4429931641</ele>
        <time>2017-05-13T07:24:20Z</time>
      </trkpt>
      <trkpt lat="45.2188" lon="5.99332">
        <ele>1418.4429931641</ele>
        <time>2017-05-13T07:24:23Z</time>
      </trkpt>
      <trkpt lat="45.21881" lon="5.9934">
        <ele>1418.4429931641</ele>
        <time>2017-05-13T07:24:27Z</time>
      </trkpt>
      <trkpt lat="45.2188" lon="5.99347">
        <ele>1419.4429931641</ele>
        <time>2017-05-13T07:24:30Z</time>
      </trkpt>
      <trkpt lat="45.21881" lon="5.99354">
        <ele>1419.4429931641</ele>
        <time>2017-05-13T07:24:33Z</time>
      </trkpt>
      <trkpt lat="45.21885" lon="5.99361">
        <ele>1420.4429931641</ele>
        <time>2017-05-13T07:24:36Z</time>
      </trkpt>
      <trkpt lat="45.21888" lon="5.99368">
        <ele>1420.4429931641</ele>
        <time>2017-05-13T07:24:41Z</time>
      </trkpt>
      <trkpt lat="45.21891" lon="5.99372">
        <ele>1421.4429931641</ele>
        <time>2017-05-13T07:24:43Z</time>
      </trkpt>
      <trkpt lat="45.21891" lon="5.99379">
        <ele>1415.4429931641</ele>
        <time>2017-05-13T07:24:48Z</time>
      </trkpt>
      <trkpt lat="45.21894" lon="5.99384">
        <ele>1412.4429931641</ele>
        <time>2017-05-13T07:24:55Z</time>
      </trkpt>
      <trkpt lat="45.21896" lon="5.9939">
        <ele>1412.4429931641</ele>
        <time>2017-05-13T07:25:00Z</time>
      </trkpt>
      <trkpt lat="45.21899" lon="5.99398">
        <ele>1412.4429931641</ele>
        <time>2017-05-13T07:25:04Z</time>
      </trkpt>
      <trkpt lat="45.21901" lon="5.99404">
        <ele>1410.4429931641</ele>
        <time>2017-05-13T07:25:07Z</time>
      </trkpt>
      <trkpt lat="45.21902" lon="5.99412">
        <ele>1411.4429931641</ele>
        <time>2017-05-13T07:25:10Z</time>
      </trkpt>
      <trkpt lat="45.21905" lon="5.99418">
        <ele>1410.4429931641</ele>
        <time>2017-05-13T07:25:13Z</time>
      </trkpt>
      <trkpt lat="45.21907" lon="5.99425">
        <ele>1408.4429931641</ele>
        <time>2017-05-13T07:25:16Z</time>
      </trkpt>
      <trkpt lat="45.21911" lon="5.99431">
        <ele>1408.4429931641</ele>
        <time>2017-05-13T07:25:19Z</time>
      </trkpt>
      <trkpt lat="45.2191" lon="5.99438">
        <ele>1407.4429931641</ele>
        <time>2017-05-13T07:25:23Z</time>
      </trkpt>
      <trkpt lat="45.21912" lon="5.99443">
        <ele>1407.4429931641</ele>
        <time>2017-05-13T07:25:26Z</time>
      </trkpt>
      <trkpt lat="45.21913" lon="5.99451">
        <ele>1405.4429931641</ele>
        <time>2017-05-13T07:25:30Z</time>
      </trkpt>
      <trkpt lat="45.21918" lon="5.99457">
        <ele>1405.4429931641</ele>
        <time>2017-05-13T07:25:33Z</time>
      </trkpt>
      <trkpt lat="45.21922" lon="5.9946">
        <ele>1404.4429931641</ele>
        <time>2017-05-13T07:25:35Z</time>
      </trkpt>
      <trkpt lat="45.21921" lon="5.99467">
        <ele>1399.4429931641</ele>
        <time>2017-05-13T07:25:41Z</time>
      </trkpt>
      <trkpt lat="45.21923" lon="5.99473">
        <ele>1399.4429931641</ele>
        <time>2017-05-13T07:25:46Z</time>
      </trkpt>
      <trkpt lat="45.21928" lon="5.99478">
        <ele>1399.4429931641</ele>
        <time>2017-05-13T07:25:50Z</time>
      </trkpt>
      <trkpt lat="45.21932" lon="5.99482">
        <ele>1397.4429931641</ele>
        <time>2017-05-13T07:25:54Z</time>
      </trkpt>
      <trkpt lat="45.21934" lon="5.9949">
        <ele>1394.4429931641</ele>
        <time>2017-05-13T07:26:00Z</time>
      </trkpt>
      <trkpt lat="45.2194" lon="5.99495">
        <ele>1391.4429931641</ele>
        <time>2017-05-13T07:26:04Z</time>
      </trkpt>
      <trkpt lat="45.21945" lon="5.99501">
        <ele>1391.4429931641</ele>
        <time>2017-05-13T07:26:09Z</time>
      </trkpt>
      <trkpt lat="45.21949" lon="5.99505">
        <ele>1390.4429931641</ele>
        <time>2017-05-13T07:26:12Z</time>
      </trkpt>
      <trkpt lat="45.21956" lon="5.99509">
        <ele>1391.4429931641</ele>
        <time>2017-05-13T07:26:15Z</time>
      </trkpt>
      <trkpt lat="45.2196" lon="5.99512">
        <ele>1391.4429931641</ele>
        <time>2017-05-13T07:26:17Z</time>
      </trkpt>
      <trkpt lat="45.21964" lon="5.99517">
        <ele>1392.4429931641</ele>
        <time>2017-05-13T07:26:20Z</time>
      </trkpt>
      <trkpt lat="45.21968" lon="5.99523">
        <ele>1394.4429931641</ele>
        <time>2017-05-13T07:26:25Z</time>
      </trkpt>
      <trkpt lat="45.21971" lon="5.99527">
        <ele>1393.4429931641</ele>
        <time>2017-05-13T07:26:28Z</time>
      </trkpt>
      <trkpt lat="45.21974" lon="5.99534">
        <ele>1393.4429931641</ele>
        <time>2017-05-13T07:26:32Z</time>
      </trkpt>
      <trkpt lat="45.21977" lon="5.9954">
        <ele>1394.4429931641</ele>
        <time>2017-05-13T07:26:36Z</time>
      </trkpt>
      <trkpt lat="45.2198" lon="5.99545">
        <ele>1394.4429931641</ele>
        <time>2017-05-13T07:26:40Z</time>
      </trkpt>
      <trkpt lat="45.21986" lon="5.99549">
        <ele>1395.4429931641</ele>
        <time>2017-05-13T07:26:44Z</time>
      </trkpt>
      <trkpt lat="45.21991" lon="5.99553">
        <ele>1393.4429931641</ele>
        <time>2017-05-13T07:26:48Z</time>
      </trkpt>
      <trkpt lat="45.21996" lon="5.99556">
        <ele>1393.4429931641</ele>
        <time>2017-05-13T07:26:51Z</time>
      </trkpt>
      <trkpt lat="45.22" lon="5.9956">
        <ele>1390.4429931641</ele>
        <time>2017-05-13T07:26:56Z</time>
      </trkpt>
      <trkpt lat="45.22005" lon="5.99562">
        <ele>1389.4429931641</ele>
        <time>2017-05-13T07:27:00Z</time>
      </trkpt>
      <trkpt lat="45.22011" lon="5.99565">
        <ele>1389.4429931641</ele>
        <time>2017-05-13T07:27:04Z</time>
      </trkpt>
      <trkpt lat="45.22016" lon="5.99566">
        <ele>1387.4429931641</ele>
        <time>2017-05-13T07:27:07Z</time>
      </trkpt>
      <trkpt lat="45.22021" lon="5.99567">
        <ele>1385.4429931641</ele>
        <time>2017-05-13T07:27:13Z</time>
      </trkpt>
      <trkpt lat="45.22026" lon="5.99567">
        <ele>1386.4429931641</ele>
        <time>2017-05-13T07:27:16Z</time>
      </trkpt>
      <trkpt lat="45.22031" lon="5.99567">
        <ele>1388.4429931641</ele>
        <time>2017-05-13T07:27:19Z</time>
      </trkpt>
      <trkpt lat="45.22036" lon="5.99568">
        <ele>1388.4429931641</ele>
        <time>2017-05-13T07:27:23Z</time>
      </trkpt>
      <trkpt lat="45.22041" lon="5.99569">
        <ele>1387.4429931641</ele>
        <time>2017-05-13T07:27:26Z</time>
      </trkpt>
      <trkpt lat="45.22046" lon="5.99571">
        <ele>1386.4429931641</ele>
        <time>2017-05-13T07:27:29Z</time>
      </trkpt>
      <trkpt lat="45.22051" lon="5.99571">
        <ele>1384.4439697266</ele>
        <time>2017-05-13T07:27:34Z</time>
      </trkpt>
      <trkpt lat="45.22056" lon="5.99571">
        <ele>1385.4439697266</ele>
        <time>2017-05-13T07:27:37Z</time>
      </trkpt>
      <trkpt lat="45.22061" lon="5.99572">
        <ele>1383.4439697266</ele>
        <time>2017-05-13T07:27:42Z</time>
      </trkpt>
      <trkpt lat="45.22065" lon="5.99576">
        <ele>1380.4439697266</ele>
        <time>2017-05-13T07:27:45Z</time>
      </trkpt>
      <trkpt lat="45.2207" lon="5.99578">
        <ele>1378.4439697266</ele>
        <time>2017-05-13T07:27:49Z</time>
      </trkpt>
      <trkpt lat="45.22076" lon="5.99581">
        <ele>1378.4439697266</ele>
        <time>2017-05-13T07:27:52Z</time>
      </trkpt>
      <trkpt lat="45.22081" lon="5.99585">
        <ele>1376.4439697266</ele>
        <time>2017-05-13T07:27:56Z</time>
      </trkpt>
      <trkpt lat="45.22086" lon="5.99588">
        <ele>1377.4439697266</ele>
        <time>2017-05-13T07:27:59Z</time>
      </trkpt>
      <trkpt lat="45.2209" lon="5.99593">
        <ele>1376.4439697266</ele>
        <time>2017-05-13T07:28:03Z</time>
      </trkpt>
      <trkpt lat="45.22093" lon="5.996">
        <ele>1376.4439697266</ele>
        <time>2017-05-13T07:28:07Z</time>
      </trkpt>
      <trkpt lat="45.22095" lon="5.99605">
        <ele>1375.4439697266</ele>
        <time>2017-05-13T07:28:10Z</time>
      </trkpt>
      <trkpt lat="45.22098" lon="5.99612">
        <ele>1377.4439697266</ele>
        <time>2017-05-13T07:28:13Z</time>
      </trkpt>
      <trkpt lat="45.22104" lon="5.99617">
        <ele>1379.4439697266</ele>
        <time>2017-05-13T07:28:16Z</time>
      </trkpt>
      <trkpt lat="45.22108" lon="5.99622">
        <ele>1378.4439697266</ele>
        <time>2017-05-13T07:28:19Z</time>
      </trkpt>
      <trkpt lat="45.22109" lon="5.9963">
        <ele>1376.4439697266</ele>
        <time>2017-05-13T07:28:24Z</time>
      </trkpt>
      <trkpt lat="45.22113" lon="5.99636">
        <ele>1377.4439697266</ele>
        <time>2017-05-13T07:28:27Z</time>
      </trkpt>
      <trkpt lat="45.2212" lon="5.99639">
        <ele>1382.4439697266</ele>
        <time>2017-05-13T07:28:30Z</time>
      </trkpt>
      <trkpt lat="45.22125" lon="5.99642">
        <ele>1380.4439697266</ele>
        <time>2017-05-13T07:28:38Z</time>
      </trkpt>
      <trkpt lat="45.2213" lon="5.99642">
        <ele>1377.4439697266</ele>
        <time>2017-05-13T07:28:47Z</time>
      </trkpt>
      <trkpt lat="45.22134" lon="5.99646">
        <ele>1375.4439697266</ele>
        <time>2017-05-13T07:28:52Z</time>
      </trkpt>
      <trkpt lat="45.22139" lon="5.99647">
        <ele>1375.4439697266</ele>
        <time>2017-05-13T07:28:59Z</time>
      </trkpt>
      <trkpt lat="45.22144" lon="5.99652">
        <ele>1373.4439697266</ele>
        <time>2017-05-13T07:29:03Z</time>
      </trkpt>
      <trkpt lat="45.22148" lon="5.99651">
        <ele>1374.4439697266</ele>
        <time>2017-05-13T07:29:07Z</time>
      </trkpt>
      <trkpt lat="45.22154" lon="5.99652">
        <ele>1372.4439697266</ele>
        <time>2017-05-13T07:29:11Z</time>
      </trkpt>
      <trkpt lat="45.22159" lon="5.99649">
        <ele>1369.4439697266</ele>
        <time>2017-05-13T07:29:18Z</time>
      </trkpt>
      <trkpt lat="45.22162" lon="5.99643">
        <ele>1368.4439697266</ele>
        <time>2017-05-13T07:29:23Z</time>
      </trkpt>
      <trkpt lat="45.22165" lon="5.99638">
        <ele>1368.4439697266</ele>
        <time>2017-05-13T07:29:26Z</time>
      </trkpt>
      <trkpt lat="45.2217" lon="5.99638">
        <ele>1364.4439697266</ele>
        <time>2017-05-13T07:29:34Z</time>
      </trkpt>
      <trkpt lat="45.22174" lon="5.99633">
        <ele>1363.4439697266</ele>
        <time>2017-05-13T07:29:39Z</time>
      </trkpt>
      <trkpt lat="45.22179" lon="5.99631">
        <ele>1358.4439697266</ele>
        <time>2017-05-13T07:29:45Z</time>
      </trkpt>
      <trkpt lat="45.22186" lon="5.9963">
        <ele>1357.4439697266</ele>
        <time>2017-05-13T07:29:48Z</time>
      </trkpt>
      <trkpt lat="45.22193" lon="5.99632">
        <ele>1353.4439697266</ele>
        <time>2017-05-13T07:29:52Z</time>
      </trkpt>
      <trkpt lat="45.22198" lon="5.99629">
        <ele>1352.4439697266</ele>
        <time>2017-05-13T07:29:56Z</time>
      </trkpt>
      <trkpt lat="45.22203" lon="5.9963">
        <ele>1353.4439697266</ele>
        <time>2017-05-13T07:29:59Z</time>
      </trkpt>
      <trkpt lat="45.22208" lon="5.99629">
        <ele>1353.4439697266</ele>
        <time>2017-05-13T07:30:04Z</time>
      </trkpt>
      <trkpt lat="45.22213" lon="5.99632">
        <ele>1352.4439697266</ele>
        <time>2017-05-13T07:30:07Z</time>
      </trkpt>
      <trkpt lat="45.22216" lon="5.99637">
        <ele>1348.4439697266</ele>
        <time>2017-05-13T07:30:13Z</time>
      </trkpt>
      <trkpt lat="45.22222" lon="5.99639">
        <ele>1349.4439697266</ele>
        <time>2017-05-13T07:30:16Z</time>
      </trkpt>
      <trkpt lat="45.22226" lon="5.99642">
        <ele>1343.4439697266</ele>
        <time>2017-05-13T07:30:25Z</time>
      </trkpt>
      <trkpt lat="45.2223" lon="5.99642">
        <ele>1343.4439697266</ele>
        <time>2017-05-13T07:30:29Z</time>
      </trkpt>
      <trkpt lat="45.22235" lon="5.99644">
        <ele>1341.4439697266</ele>
        <time>2017-05-13T07:30:33Z</time>
      </trkpt>
      <trkpt lat="45.22239" lon="5.99643">
        <ele>1339.4439697266</ele>
        <time>2017-05-13T07:30:36Z</time>
      </trkpt>
      <trkpt lat="45.22244" lon="5.99642">
        <ele>1338.4439697266</ele>
        <time>2017-05-13T07:30:41Z</time>
      </trkpt>
      <trkpt lat="45.22249" lon="5.99643">
        <ele>1334.4439697266</ele>
        <time>2017-05-13T07:30:45Z</time>
      </trkpt>
      <trkpt lat="45.22253" lon="5.9964">
        <ele>1330.4439697266</ele>
        <time>2017-05-13T07:30:50Z</time>
      </trkpt>
      <trkpt lat="45.22257" lon="5.99635">
        <ele>1328.4439697266</ele>
        <time>2017-05-13T07:30:54Z</time>
      </trkpt>
      <trkpt lat="45.2226" lon="5.9963">
        <ele>1329.4439697266</ele>
        <time>2017-05-13T07:30:56Z</time>
      </trkpt>
      <trkpt lat="45.22262" lon="5.99621">
        <ele>1328.4439697266</ele>
        <time>2017-05-13T07:31:00Z</time>
      </trkpt>
      <trkpt lat="45.22265" lon="5.99616">
        <ele>1326.4439697266</ele>
        <time>2017-05-13T07:31:07Z</time>
      </trkpt>
      <trkpt lat="45.22266" lon="5.99608">
        <ele>1326.4439697266</ele>
        <time>2017-05-13T07:31:11Z</time>
      </trkpt>
      <trkpt lat="45.22267" lon="5.99602">
        <ele>1324.4439697266</ele>
        <time>2017-05-13T07:31:16Z</time>
      </trkpt>
      <trkpt lat="45.22271" lon="5.99595">
        <ele>1322.4439697266</ele>
        <time>2017-05-13T07:31:21Z</time>
      </trkpt>
      <trkpt lat="45.22275" lon="5.99592">
        <ele>1320.4439697266</ele>
        <time>2017-05-13T07:31:24Z</time>
      </trkpt>
      <trkpt lat="45.22278" lon="5.99588">
        <ele>1317.4439697266</ele>
        <time>2017-05-13T07:31:29Z</time>
      </trkpt>
      <trkpt lat="45.22284" lon="5.9958">
        <ele>1318.4439697266</ele>
        <time>2017-05-13T07:31:36Z</time>
      </trkpt>
      <trkpt lat="45.22288" lon="5.99579">
        <ele>1315.4439697266</ele>
        <time>2017-05-13T07:31:40Z</time>
      </trkpt>
      <trkpt lat="45.22292" lon="5.99573">
        <ele>1319.4439697266</ele>
        <time>2017-05-13T07:31:43Z</time>
      </trkpt>
      <trkpt lat="45.22297" lon="5.99573">
        <ele>1315.4439697266</ele>
        <time>2017-05-13T07:31:47Z</time>
      </trkpt>
      <trkpt lat="45.22301" lon="5.99575">
        <ele>1314.4439697266</ele>
        <time>2017-05-13T07:31:51Z</time>
      </trkpt>
      <trkpt lat="45.22307" lon="5.99577">
        <ele>1315.4439697266</ele>
        <time>2017-05-13T07:31:53Z</time>
      </trkpt>
      <trkpt lat="45.22312" lon="5.99577">
        <ele>1317.4439697266</ele>
        <time>2017-05-13T07:31:55Z</time>
      </trkpt>
      <trkpt lat="45.22318" lon="5.99579">
        <ele>1317.4439697266</ele>
        <time>2017-05-13T07:31:57Z</time>
      </trkpt>
      <trkpt lat="45.22322" lon="5.99584">
        <ele>1313.4439697266</ele>
        <time>2017-05-13T07:32:01Z</time>
      </trkpt>
      <trkpt lat="45.22326" lon="5.99589">
        <ele>1312.4439697266</ele>
        <time>2017-05-13T07:32:04Z</time>
      </trkpt>
      <trkpt lat="45.22332" lon="5.99588">
        <ele>1312.4439697266</ele>
        <time>2017-05-13T07:32:08Z</time>
      </trkpt>
      <trkpt lat="45.22337" lon="5.99591">
        <ele>1310.4439697266</ele>
        <time>2017-05-13T07:32:10Z</time>
      </trkpt>
      <trkpt lat="45.22342" lon="5.99594">
        <ele>1309.4439697266</ele>
        <time>2017-05-13T07:32:12Z</time>
      </trkpt>
      <trkpt lat="45.22347" lon="5.99598">
        <ele>1307.4439697266</ele>
        <time>2017-05-13T07:32:17Z</time>
      </trkpt>
      <trkpt lat="45.22351" lon="5.99602">
        <ele>1306.4439697266</ele>
        <time>2017-05-13T07:32:19Z</time>
      </trkpt>
      <trkpt lat="45.22355" lon="5.99606">
        <ele>1305.4439697266</ele>
        <time>2017-05-13T07:32:21Z</time>
      </trkpt>
      <trkpt lat="45.2236" lon="5.9961">
        <ele>1307.4439697266</ele>
        <time>2017-05-13T07:32:24Z</time>
      </trkpt>
      <trkpt lat="45.22364" lon="5.99615">
        <ele>1308.4439697266</ele>
        <time>2017-05-13T07:32:27Z</time>
      </trkpt>
      <trkpt lat="45.22368" lon="5.99619">
        <ele>1307.4439697266</ele>
        <time>2017-05-13T07:32:30Z</time>
      </trkpt>
      <trkpt lat="45.22373" lon="5.99622">
        <ele>1307.4439697266</ele>
        <time>2017-05-13T07:32:33Z</time>
      </trkpt>
      <trkpt lat="45.22376" lon="5.99628">
        <ele>1305.4439697266</ele>
        <time>2017-05-13T07:32:37Z</time>
      </trkpt>
      <trkpt lat="45.22379" lon="5.99634">
        <ele>1304.4439697266</ele>
        <time>2017-05-13T07:32:40Z</time>
      </trkpt>
      <trkpt lat="45.22381" lon="5.99639">
        <ele>1299.4439697266</ele>
        <time>2017-05-13T07:32:49Z</time>
      </trkpt>
      <trkpt lat="45.2238" lon="5.99633">
        <ele>1294.4439697266</ele>
        <time>2017-05-13T07:32:58Z</time>
      </trkpt>
      <trkpt lat="45.22383" lon="5.99627">
        <ele>1293.4439697266</ele>
        <time>2017-05-13T07:33:03Z</time>
      </trkpt>
      <trkpt lat="45.22387" lon="5.99628">
        <ele>1290.4439697266</ele>
        <time>2017-05-13T07:33:12Z</time>
      </trkpt>
      <trkpt lat="45.22389" lon="5.99619">
        <ele>1292.4439697266</ele>
        <time>2017-05-13T07:33:17Z</time>
      </trkpt>
      <trkpt lat="45.22388" lon="5.9961">
        <ele>1293.4439697266</ele>
        <time>2017-05-13T07:33:20Z</time>
      </trkpt>
      <trkpt lat="45.22388" lon="5.99601">
        <ele>1294.4439697266</ele>
        <time>2017-05-13T07:33:23Z</time>
      </trkpt>
      <trkpt lat="45.22389" lon="5.99595">
        <ele>1293.4439697266</ele>
        <time>2017-05-13T07:33:29Z</time>
      </trkpt>
      <trkpt lat="45.22387" lon="5.99588">
        <ele>1293.4439697266</ele>
        <time>2017-05-13T07:33:32Z</time>
      </trkpt>
      <trkpt lat="45.22385" lon="5.9958">
        <ele>1293.4439697266</ele>
        <time>2017-05-13T07:33:36Z</time>
      </trkpt>
      <trkpt lat="45.22386" lon="5.99572">
        <ele>1292.4439697266</ele>
        <time>2017-05-13T07:33:41Z</time>
      </trkpt>
      <trkpt lat="45.22386" lon="5.99565">
        <ele>1290.4439697266</ele>
        <time>2017-05-13T07:33:45Z</time>
      </trkpt>
      <trkpt lat="45.22387" lon="5.99558">
        <ele>1288.4439697266</ele>
        <time>2017-05-13T07:33:49Z</time>
      </trkpt>
      <trkpt lat="45.2239" lon="5.99552">
        <ele>1284.4439697266</ele>
        <time>2017-05-13T07:33:53Z</time>
      </trkpt>
      <trkpt lat="45.22389" lon="5.99546">
        <ele>1286.4439697266</ele>
        <time>2017-05-13T07:33:58Z</time>
      </trkpt>
      <trkpt lat="45.22388" lon="5.9954">
        <ele>1289.4439697266</ele>
        <time>2017-05-13T07:34:07Z</time>
      </trkpt>
      <trkpt lat="45.22388" lon="5.99533">
        <ele>1288.4439697266</ele>
        <time>2017-05-13T07:34:17Z</time>
      </trkpt>
      <trkpt lat="45.2239" lon="5.99525">
        <ele>1287.4439697266</ele>
        <time>2017-05-13T07:34:21Z</time>
      </trkpt>
      <trkpt lat="45.22389" lon="5.99518">
        <ele>1287.4439697266</ele>
        <time>2017-05-13T07:34:24Z</time>
      </trkpt>
      <trkpt lat="45.22388" lon="5.99511">
        <ele>1289.4439697266</ele>
        <time>2017-05-13T07:34:27Z</time>
      </trkpt>
      <trkpt lat="45.22387" lon="5.99505">
        <ele>1289.4439697266</ele>
        <time>2017-05-13T07:34:29Z</time>
      </trkpt>
      <trkpt lat="45.22386" lon="5.99496">
        <ele>1288.4439697266</ele>
        <time>2017-05-13T07:34:33Z</time>
      </trkpt>
      <trkpt lat="45.22386" lon="5.99488">
        <ele>1291.4439697266</ele>
        <time>2017-05-13T07:34:36Z</time>
      </trkpt>
      <trkpt lat="45.22384" lon="5.9948">
        <ele>1293.4439697266</ele>
        <time>2017-05-13T07:34:38Z</time>
      </trkpt>
      <trkpt lat="45.22384" lon="5.99472">
        <ele>1291.4439697266</ele>
        <time>2017-05-13T07:34:43Z</time>
      </trkpt>
      <trkpt lat="45.22385" lon="5.99464">
        <ele>1291.4439697266</ele>
        <time>2017-05-13T07:34:46Z</time>
      </trkpt>
      <trkpt lat="45.22384" lon="5.99457">
        <ele>1293.4439697266</ele>
        <time>2017-05-13T07:34:50Z</time>
      </trkpt>
      <trkpt lat="45.22386" lon="5.99451">
        <ele>1294.4439697266</ele>
        <time>2017-05-13T07:34:55Z</time>
      </trkpt>
      <trkpt lat="45.22388" lon="5.99442">
        <ele>1295.4439697266</ele>
        <time>2017-05-13T07:34:59Z</time>
      </trkpt>
      <trkpt lat="45.22386" lon="5.99436">
        <ele>1294.4439697266</ele>
        <time>2017-05-13T07:35:04Z</time>
      </trkpt>
      <trkpt lat="45.22385" lon="5.99429">
        <ele>1291.4439697266</ele>
        <time>2017-05-13T07:35:11Z</time>
      </trkpt>
      <trkpt lat="45.22383" lon="5.99422">
        <ele>1291.4439697266</ele>
        <time>2017-05-13T07:35:15Z</time>
      </trkpt>
      <trkpt lat="45.22383" lon="5.99414">
        <ele>1292.4439697266</ele>
        <time>2017-05-13T07:35:19Z</time>
      </trkpt>
      <trkpt lat="45.22384" lon="5.99408">
        <ele>1292.4439697266</ele>
        <time>2017-05-13T07:35:24Z</time>
      </trkpt>
      <trkpt lat="45.22386" lon="5.99402">
        <ele>1295.4439697266</ele>
        <time>2017-05-13T07:35:53Z</time>
      </trkpt>
      <trkpt lat="45.22393" lon="5.9941">
        <ele>1295.4439697266</ele>
        <time>2017-05-13T07:36:12Z</time>
      </trkpt>
      <trkpt lat="45.22398" lon="5.99418">
        <ele>1294.4439697266</ele>
        <time>2017-05-13T07:36:15Z</time>
      </trkpt>
      <trkpt lat="45.22399" lon="5.99426">
        <ele>1294.4439697266</ele>
        <time>2017-05-13T07:36:17Z</time>
      </trkpt>
      <trkpt lat="45.224" lon="5.99434">
        <ele>1294.4439697266</ele>
        <time>2017-05-13T07:36:20Z</time>
      </trkpt>
      <trkpt lat="45.22396" lon="5.9944">
        <ele>1292.4439697266</ele>
        <time>2017-05-13T07:36:24Z</time>
      </trkpt>
      <trkpt lat="45.22396" lon="5.99447">
        <ele>1293.4439697266</ele>
        <time>2017-05-13T07:36:28Z</time>
      </trkpt>
      <trkpt lat="45.22397" lon="5.99454">
        <ele>1292.4439697266</ele>
        <time>2017-05-13T07:36:32Z</time>
      </trkpt>
      <trkpt lat="45.22401" lon="5.99457">
        <ele>1294.4439697266</ele>
        <time>2017-05-13T07:36:35Z</time>
      </trkpt>
      <trkpt lat="45.22405" lon="5.9946">
        <ele>1297.4439697266</ele>
        <time>2017-05-13T07:36:37Z</time>
      </trkpt>
      <trkpt lat="45.22397" lon="5.99469">
        <ele>1298.4439697266</ele>
        <time>2017-05-13T07:36:42Z</time>
      </trkpt>
      <trkpt lat="45.22398" lon="5.99478">
        <ele>1298.4439697266</ele>
        <time>2017-05-13T07:36:44Z</time>
      </trkpt>
      <trkpt lat="45.22402" lon="5.99486">
        <ele>1302.4439697266</ele>
        <time>2017-05-13T07:36:48Z</time>
      </trkpt>
      <trkpt lat="45.22406" lon="5.99489">
        <ele>1301.4439697266</ele>
        <time>2017-05-13T07:36:50Z</time>
      </trkpt>
      <trkpt lat="45.22408" lon="5.99497">
        <ele>1300.4439697266</ele>
        <time>2017-05-13T07:36:55Z</time>
      </trkpt>
      <trkpt lat="45.22407" lon="5.99505">
        <ele>1300.4439697266</ele>
        <time>2017-05-13T07:37:00Z</time>
      </trkpt>
      <trkpt lat="45.22409" lon="5.99511">
        <ele>1300.4439697266</ele>
        <time>2017-05-13T07:37:05Z</time>
      </trkpt>
      <trkpt lat="45.22409" lon="5.99519">
        <ele>1298.4439697266</ele>
        <time>2017-05-13T07:37:09Z</time>
      </trkpt>
      <trkpt lat="45.22406" lon="5.99527">
        <ele>1299.4439697266</ele>
        <time>2017-05-13T07:37:13Z</time>
      </trkpt>
      <trkpt lat="45.22401" lon="5.99531">
        <ele>1300.4439697266</ele>
        <time>2017-05-13T07:37:15Z</time>
      </trkpt>
      <trkpt lat="45.22406" lon="5.99533">
        <ele>1301.4439697266</ele>
        <time>2017-05-13T07:37:17Z</time>
      </trkpt>
      <trkpt lat="45.22404" lon="5.9954">
        <ele>1301.4439697266</ele>
        <time>2017-05-13T07:37:20Z</time>
      </trkpt>
      <trkpt lat="45.22405" lon="5.99547">
        <ele>1300.4439697266</ele>
        <time>2017-05-13T07:37:25Z</time>
      </trkpt>
      <trkpt lat="45.22407" lon="5.99555">
        <ele>1302.4439697266</ele>
        <time>2017-05-13T07:37:30Z</time>
      </trkpt>
      <trkpt lat="45.22414" lon="5.99556">
        <ele>1304.4439697266</ele>
        <time>2017-05-13T07:37:32Z</time>
      </trkpt>
      <trkpt lat="45.2241" lon="5.99563">
        <ele>1303.4439697266</ele>
        <time>2017-05-13T07:37:36Z</time>
      </trkpt>
      <trkpt lat="45.22404" lon="5.99567">
        <ele>1300.4439697266</ele>
        <time>2017-05-13T07:37:41Z</time>
      </trkpt>
      <trkpt lat="45.22401" lon="5.99572">
        <ele>1299.4439697266</ele>
        <time>2017-05-13T07:37:44Z</time>
      </trkpt>
      <trkpt lat="45.22399" lon="5.99578">
        <ele>1301.4439697266</ele>
        <time>2017-05-13T07:37:48Z</time>
      </trkpt>
      <trkpt lat="45.22395" lon="5.99585">
        <ele>1300.4439697266</ele>
        <time>2017-05-13T07:37:50Z</time>
      </trkpt>
      <trkpt lat="45.22394" lon="5.99591">
        <ele>1298.4439697266</ele>
        <time>2017-05-13T07:37:53Z</time>
      </trkpt>
      <trkpt lat="45.22395" lon="5.99599">
        <ele>1298.4439697266</ele>
        <time>2017-05-13T07:37:57Z</time>
      </trkpt>
      <trkpt lat="45.224" lon="5.99604">
        <ele>1296.4439697266</ele>
        <time>2017-05-13T07:38:00Z</time>
      </trkpt>
      <trkpt lat="45.224" lon="5.9961">
        <ele>1296.4439697266</ele>
        <time>2017-05-13T07:38:07Z</time>
      </trkpt>
      <trkpt lat="45.22402" lon="5.99617">
        <ele>1299.4439697266</ele>
        <time>2017-05-13T07:38:11Z</time>
      </trkpt>
      <trkpt lat="45.22398" lon="5.99625">
        <ele>1298.4439697266</ele>
        <time>2017-05-13T07:38:14Z</time>
      </trkpt>
      <trkpt lat="45.22393" lon="5.9963">
        <ele>1296.4439697266</ele>
        <time>2017-05-13T07:38:19Z</time>
      </trkpt>
      <trkpt lat="45.22388" lon="5.99631">
        <ele>1295.4439697266</ele>
        <time>2017-05-13T07:38:21Z</time>
      </trkpt>
      <trkpt lat="45.22383" lon="5.99635">
        <ele>1296.4439697266</ele>
        <time>2017-05-13T07:38:23Z</time>
      </trkpt>
      <trkpt lat="45.2238" lon="5.9964">
        <ele>1294.4439697266</ele>
        <time>2017-05-13T07:38:26Z</time>
      </trkpt>
      <trkpt lat="45.22375" lon="5.99639">
        <ele>1296.4439697266</ele>
        <time>2017-05-13T07:38:33Z</time>
      </trkpt>
      <trkpt lat="45.22374" lon="5.99646">
        <ele>1292.4439697266</ele>
        <time>2017-05-13T07:38:59Z</time>
      </trkpt>
      <trkpt lat="45.22378" lon="5.99652">
        <ele>1292.4439697266</ele>
        <time>2017-05-13T07:39:07Z</time>
      </trkpt>
      <trkpt lat="45.22382" lon="5.99657">
        <ele>1111.4439697266</ele>
        <time>2017-05-13T07:39:13Z</time>
      </trkpt>
      <trkpt lat="45.22387" lon="5.9966">
        <ele>1151.4439697266</ele>
        <time>2017-05-13T07:39:16Z</time>
      </trkpt>
      <trkpt lat="45.22392" lon="5.99664">
        <ele>1203.4439697266</ele>
        <time>2017-05-13T07:39:19Z</time>
      </trkpt>
      <trkpt lat="45.22398" lon="5.99665">
        <ele>1258.4439697266</ele>
        <time>2017-05-13T07:39:23Z</time>
      </trkpt>
      <trkpt lat="45.22403" lon="5.99662">
        <ele>1271.4439697266</ele>
        <time>2017-05-13T07:39:25Z</time>
      </trkpt>
      <trkpt lat="45.22408" lon="5.99661">
        <ele>1283.4439697266</ele>
        <time>2017-05-13T07:39:28Z</time>
      </trkpt>
      <trkpt lat="45.22413" lon="5.99659">
        <ele>1290.4439697266</ele>
        <time>2017-05-13T07:39:32Z</time>
      </trkpt>
      <trkpt lat="45.22416" lon="5.99655">
        <ele>1298.4439697266</ele>
        <time>2017-05-13T07:39:37Z</time>
      </trkpt>
      <trkpt lat="45.2246" lon="5.99642">
        <ele>1197.4439697266</ele>
        <time>2017-05-13T07:40:10Z</time>
      </trkpt>
      <trkpt lat="45.22458" lon="5.99629">
        <ele>1232.4439697266</ele>
        <time>2017-05-13T07:40:11Z</time>
      </trkpt>
      <trkpt lat="45.22459" lon="5.99623">
        <ele>1270.4439697266</ele>
        <time>2017-05-13T07:40:14Z</time>
      </trkpt>
      <trkpt lat="45.22461" lon="5.99616">
        <ele>1279.4439697266</ele>
        <time>2017-05-13T07:40:18Z</time>
      </trkpt>
      <trkpt lat="45.22463" lon="5.9961">
        <ele>1282.4439697266</ele>
        <time>2017-05-13T07:40:22Z</time>
      </trkpt>
      <trkpt lat="45.22464" lon="5.99603">
        <ele>1282.4439697266</ele>
        <time>2017-05-13T07:40:25Z</time>
      </trkpt>
      <trkpt lat="45.22466" lon="5.99595">
        <ele>1286.4439697266</ele>
        <time>2017-05-13T07:40:29Z</time>
      </trkpt>
      <trkpt lat="45.22468" lon="5.99587">
        <ele>1288.4439697266</ele>
        <time>2017-05-13T07:40:33Z</time>
      </trkpt>
      <trkpt lat="45.22472" lon="5.99581">
        <ele>1286.4439697266</ele>
        <time>2017-05-13T07:40:37Z</time>
      </trkpt>
      <trkpt lat="45.22475" lon="5.99576">
        <ele>1288.4439697266</ele>
        <time>2017-05-13T07:40:41Z</time>
      </trkpt>
      <trkpt lat="45.22478" lon="5.99571">
        <ele>1289.4439697266</ele>
        <time>2017-05-13T07:40:44Z</time>
      </trkpt>
      <trkpt lat="45.22481" lon="5.99567">
        <ele>1289.4439697266</ele>
        <time>2017-05-13T07:40:48Z</time>
      </trkpt>
      <trkpt lat="45.22484" lon="5.99562">
        <ele>1288.4439697266</ele>
        <time>2017-05-13T07:40:52Z</time>
      </trkpt>
      <trkpt lat="45.22488" lon="5.99555">
        <ele>1289.4439697266</ele>
        <time>2017-05-13T07:40:56Z</time>
      </trkpt>
      <trkpt lat="45.22491" lon="5.99548">
        <ele>1290.4439697266</ele>
        <time>2017-05-13T07:41:01Z</time>
      </trkpt>
      <trkpt lat="45.22493" lon="5.99542">
        <ele>1289.4439697266</ele>
        <time>2017-05-13T07:41:05Z</time>
      </trkpt>
      <trkpt lat="45.22494" lon="5.99535">
        <ele>1292.4439697266</ele>
        <time>2017-05-13T07:41:10Z</time>
      </trkpt>
      <trkpt lat="45.22494" lon="5.99527">
        <ele>1294.4439697266</ele>
        <time>2017-05-13T07:41:24Z</time>
      </trkpt>
      <trkpt lat="45.22497" lon="5.99519">
        <ele>1292.4439697266</ele>
        <time>2017-05-13T07:41:26Z</time>
      </trkpt>
      <trkpt lat="45.22503" lon="5.99497">
        <ele>1293.4439697266</ele>
        <time>2017-05-13T07:41:30Z</time>
      </trkpt>
      <trkpt lat="45.22504" lon="5.99489">
        <ele>1295.4439697266</ele>
        <time>2017-05-13T07:41:34Z</time>
      </trkpt>
      <trkpt lat="45.22505" lon="5.99482">
        <ele>1297.4439697266</ele>
        <time>2017-05-13T07:41:37Z</time>
      </trkpt>
      <trkpt lat="45.22508" lon="5.99475">
        <ele>1296.4439697266</ele>
        <time>2017-05-13T07:41:40Z</time>
      </trkpt>
      <trkpt lat="45.22509" lon="5.99467">
        <ele>1299.4439697266</ele>
        <time>2017-05-13T07:41:42Z</time>
      </trkpt>
      <trkpt lat="45.2251" lon="5.9946">
        <ele>1299.4439697266</ele>
        <time>2017-05-13T07:41:44Z</time>
      </trkpt>
      <trkpt lat="45.22514" lon="5.99454">
        <ele>1300.4439697266</ele>
        <time>2017-05-13T07:41:48Z</time>
      </trkpt>
      <trkpt lat="45.22515" lon="5.99447">
        <ele>1299.4439697266</ele>
        <time>2017-05-13T07:41:52Z</time>
      </trkpt>
      <trkpt lat="45.22513" lon="5.99439">
        <ele>1299.4439697266</ele>
        <time>2017-05-13T07:41:56Z</time>
      </trkpt>
      <trkpt lat="45.2251" lon="5.99433">
        <ele>1300.4439697266</ele>
        <time>2017-05-13T07:41:59Z</time>
      </trkpt>
      <trkpt lat="45.22511" lon="5.99427">
        <ele>1292.4439697266</ele>
        <time>2017-05-13T07:42:18Z</time>
      </trkpt>
      <trkpt lat="45.22512" lon="5.99419">
        <ele>1291.4439697266</ele>
        <time>2017-05-13T07:42:23Z</time>
      </trkpt>
      <trkpt lat="45.22515" lon="5.99413">
        <ele>1290.4439697266</ele>
        <time>2017-05-13T07:42:27Z</time>
      </trkpt>
      <trkpt lat="45.22519" lon="5.99411">
        <ele>1290.4439697266</ele>
        <time>2017-05-13T07:42:32Z</time>
      </trkpt>
      <trkpt lat="45.22524" lon="5.99406">
        <ele>1288.4439697266</ele>
        <time>2017-05-13T07:42:36Z</time>
      </trkpt>
      <trkpt lat="45.22528" lon="5.99401">
        <ele>1290.4439697266</ele>
        <time>2017-05-13T07:42:40Z</time>
      </trkpt>
      <trkpt lat="45.22533" lon="5.99397">
        <ele>1291.4439697266</ele>
        <time>2017-05-13T07:42:43Z</time>
      </trkpt>
      <trkpt lat="45.22538" lon="5.99394">
        <ele>1289.4439697266</ele>
        <time>2017-05-13T07:42:47Z</time>
      </trkpt>
      <trkpt lat="45.2254" lon="5.99388">
        <ele>1292.4439697266</ele>
        <time>2017-05-13T07:42:49Z</time>
      </trkpt>
      <trkpt lat="45.22545" lon="5.99385">
        <ele>1292.4439697266</ele>
        <time>2017-05-13T07:42:52Z</time>
      </trkpt>
      <trkpt lat="45.22551" lon="5.99382">
        <ele>1294.4439697266</ele>
        <time>2017-05-13T07:42:55Z</time>
      </trkpt>
      <trkpt lat="45.22556" lon="5.99383">
        <ele>1293.4439697266</ele>
        <time>2017-05-13T07:42:57Z</time>
      </trkpt>
      <trkpt lat="45.22561" lon="5.99385">
        <ele>1292.4439697266</ele>
        <time>2017-05-13T07:43:04Z</time>
      </trkpt>
      <trkpt lat="45.22567" lon="5.99382">
        <ele>1294.4439697266</ele>
        <time>2017-05-13T07:43:08Z</time>
      </trkpt>
      <trkpt lat="45.22571" lon="5.9938">
        <ele>1295.4439697266</ele>
        <time>2017-05-13T07:43:13Z</time>
      </trkpt>
      <trkpt lat="45.22578" lon="5.99381">
        <ele>1297.4439697266</ele>
        <time>2017-05-13T07:43:16Z</time>
      </trkpt>
      <trkpt lat="45.22583" lon="5.99384">
        <ele>1299.4439697266</ele>
        <time>2017-05-13T07:43:19Z</time>
      </trkpt>
      <trkpt lat="45.22587" lon="5.99388">
        <ele>1297.4439697266</ele>
        <time>2017-05-13T07:43:22Z</time>
      </trkpt>
      <trkpt lat="45.22592" lon="5.99387">
        <ele>1297.4439697266</ele>
        <time>2017-05-13T07:43:28Z</time>
      </trkpt>
      <trkpt lat="45.22596" lon="5.9939">
        <ele>1297.4439697266</ele>
        <time>2017-05-13T07:43:31Z</time>
      </trkpt>
      <trkpt lat="45.22602" lon="5.99386">
        <ele>1300.4439697266</ele>
        <time>2017-05-13T07:43:35Z</time>
      </trkpt>
      <trkpt lat="45.22607" lon="5.99389">
        <ele>1300.4439697266</ele>
        <time>2017-05-13T07:43:39Z</time>
      </trkpt>
      <trkpt lat="45.22611" lon="5.9939">
        <ele>1297.4439697266</ele>
        <time>2017-05-13T07:43:43Z</time>
      </trkpt>
      <trkpt lat="45.22616" lon="5.99392">
        <ele>1299.4439697266</ele>
        <time>2017-05-13T07:43:48Z</time>
      </trkpt>
      <trkpt lat="45.22621" lon="5.99391">
        <ele>1302.4439697266</ele>
        <time>2017-05-13T07:43:51Z</time>
      </trkpt>
      <trkpt lat="45.22627" lon="5.99388">
        <ele>1302.4439697266</ele>
        <time>2017-05-13T07:43:55Z</time>
      </trkpt>
      <trkpt lat="45.2263" lon="5.99394">
        <ele>1305.4439697266</ele>
        <time>2017-05-13T07:43:58Z</time>
      </trkpt>
      <trkpt lat="45.22636" lon="5.99393">
        <ele>1306.4439697266</ele>
        <time>2017-05-13T07:44:01Z</time>
      </trkpt>
      <trkpt lat="45.22642" lon="5.99396">
        <ele>1309.4439697266</ele>
        <time>2017-05-13T07:44:05Z</time>
      </trkpt>
      <trkpt lat="45.22646" lon="5.99402">
        <ele>1309.4439697266</ele>
        <time>2017-05-13T07:44:09Z</time>
      </trkpt>
      <trkpt lat="45.22651" lon="5.99401">
        <ele>1308.4439697266</ele>
        <time>2017-05-13T07:44:12Z</time>
      </trkpt>
      <trkpt lat="45.22655" lon="5.99405">
        <ele>1306.4439697266</ele>
        <time>2017-05-13T07:44:14Z</time>
      </trkpt>
      <trkpt lat="45.22662" lon="5.99409">
        <ele>1305.4449462891</ele>
        <time>2017-05-13T07:44:17Z</time>
      </trkpt>
      <trkpt lat="45.22666" lon="5.99412">
        <ele>1305.4449462891</ele>
        <time>2017-05-13T07:44:20Z</time>
      </trkpt>
      <trkpt lat="45.22671" lon="5.99412">
        <ele>1304.4449462891</ele>
        <time>2017-05-13T07:44:22Z</time>
      </trkpt>
      <trkpt lat="45.22676" lon="5.99411">
        <ele>1306.4449462891</ele>
        <time>2017-05-13T07:44:24Z</time>
      </trkpt>
      <trkpt lat="45.22685" lon="5.99405">
        <ele>1306.4449462891</ele>
        <time>2017-05-13T07:44:30Z</time>
      </trkpt>
      <trkpt lat="45.22689" lon="5.99399">
        <ele>1311.4449462891</ele>
        <time>2017-05-13T07:44:34Z</time>
      </trkpt>
      <trkpt lat="45.22694" lon="5.99403">
        <ele>1312.4449462891</ele>
        <time>2017-05-13T07:44:37Z</time>
      </trkpt>
      <trkpt lat="45.22695" lon="5.99397">
        <ele>1316.4449462891</ele>
        <time>2017-05-13T07:44:42Z</time>
      </trkpt>
      <trkpt lat="45.22694" lon="5.9939">
        <ele>1316.4449462891</ele>
        <time>2017-05-13T07:46:53Z</time>
      </trkpt>
    </trkseg>
  </trk>
</gpx>